<?xml version="1.0" encoding="UTF-8" standalone="no" ?>
<gpx xmlns="http://www.topografix.com/GPX/1/1" xmlns:xsi="http://www.w3.org/2001/XMLSchema-instance" xsi:schemaLocation="http://www.topografix.com/GPX/1/1 http://www.topografix.com/GPX/1/1/gpx.xsd" version="1.1" creator="VisuGPX - https://www.visugpx.com">
  <metadata>
    <name>lac du laouzas</name>
    <desc><![CDATA[belle rando avec les belles couleurs d\'automne ]]></desc>
  </metadata>
  <trk>
    <name><![CDATA[LAC LAOUZAS]]></name>
    <trkseg>
      <trkpt lat="43.64914" lon="2.77774">
        <ele>769.19</ele>
        <time>2011-10-23T06:27:59Z</time>
      </trkpt>
      <trkpt lat="43.64911" lon="2.77784">
        <ele>789.38</ele>
        <time>2011-10-23T06:28:46Z</time>
      </trkpt>
      <trkpt lat="43.64912" lon="2.77781">
        <ele>789.86</ele>
        <time>2011-10-23T06:29:40Z</time>
      </trkpt>
      <trkpt lat="43.64907" lon="2.77784">
        <ele>790.34</ele>
        <time>2011-10-23T06:29:58Z</time>
      </trkpt>
      <trkpt lat="43.64904" lon="2.77791">
        <ele>790.34</ele>
        <time>2011-10-23T06:30:14Z</time>
      </trkpt>
      <trkpt lat="43.64902" lon="2.77792">
        <ele>790.82</ele>
        <time>2011-10-23T06:30:16Z</time>
      </trkpt>
      <trkpt lat="43.649" lon="2.77794">
        <ele>791.3</ele>
        <time>2011-10-23T06:30:19Z</time>
      </trkpt>
      <trkpt lat="43.64896" lon="2.77809">
        <ele>790.34</ele>
        <time>2011-10-23T06:30:32Z</time>
      </trkpt>
      <trkpt lat="43.64898" lon="2.77812">
        <ele>790.34</ele>
        <time>2011-10-23T06:30:57Z</time>
      </trkpt>
      <trkpt lat="43.649" lon="2.77816">
        <ele>790.34</ele>
        <time>2011-10-23T06:31:01Z</time>
      </trkpt>
      <trkpt lat="43.64907" lon="2.77832">
        <ele>791.3</ele>
        <time>2011-10-23T06:31:15Z</time>
      </trkpt>
      <trkpt lat="43.64909" lon="2.77835">
        <ele>791.3</ele>
        <time>2011-10-23T06:31:17Z</time>
      </trkpt>
      <trkpt lat="43.64914" lon="2.77853">
        <ele>794.67</ele>
        <time>2011-10-23T06:31:33Z</time>
      </trkpt>
      <trkpt lat="43.6492" lon="2.77869">
        <ele>797.55</ele>
        <time>2011-10-23T06:31:46Z</time>
      </trkpt>
      <trkpt lat="43.64927" lon="2.77887">
        <ele>799.47</ele>
        <time>2011-10-23T06:32:02Z</time>
      </trkpt>
      <trkpt lat="43.64926" lon="2.77895">
        <ele>800.44</ele>
        <time>2011-10-23T06:32:08Z</time>
      </trkpt>
      <trkpt lat="43.64926" lon="2.77902">
        <ele>801.88</ele>
        <time>2011-10-23T06:32:13Z</time>
      </trkpt>
      <trkpt lat="43.64932" lon="2.7791">
        <ele>804.28</ele>
        <time>2011-10-23T06:32:22Z</time>
      </trkpt>
      <trkpt lat="43.64939" lon="2.77915">
        <ele>804.76</ele>
        <time>2011-10-23T06:32:29Z</time>
      </trkpt>
      <trkpt lat="43.64953" lon="2.77926">
        <ele>805.72</ele>
        <time>2011-10-23T06:32:44Z</time>
      </trkpt>
      <trkpt lat="43.64967" lon="2.77943">
        <ele>807.16</ele>
        <time>2011-10-23T06:32:59Z</time>
      </trkpt>
      <trkpt lat="43.64982" lon="2.77957">
        <ele>808.13</ele>
        <time>2011-10-23T06:33:12Z</time>
      </trkpt>
      <trkpt lat="43.6499" lon="2.77966">
        <ele>807.16</ele>
        <time>2011-10-23T06:33:22Z</time>
      </trkpt>
      <trkpt lat="43.64996" lon="2.77971">
        <ele>806.68</ele>
        <time>2011-10-23T06:33:28Z</time>
      </trkpt>
      <trkpt lat="43.65012" lon="2.77989">
        <ele>806.68</ele>
        <time>2011-10-23T06:33:45Z</time>
      </trkpt>
      <trkpt lat="43.65025" lon="2.78002">
        <ele>806.68</ele>
        <time>2011-10-23T06:33:58Z</time>
      </trkpt>
      <trkpt lat="43.65028" lon="2.78006">
        <ele>806.68</ele>
        <time>2011-10-23T06:34:03Z</time>
      </trkpt>
      <trkpt lat="43.65039" lon="2.7802">
        <ele>808.13</ele>
        <time>2011-10-23T06:34:18Z</time>
      </trkpt>
      <trkpt lat="43.6506" lon="2.7803">
        <ele>809.57</ele>
        <time>2011-10-23T06:34:34Z</time>
      </trkpt>
      <trkpt lat="43.65078" lon="2.78038">
        <ele>813.41</ele>
        <time>2011-10-23T06:34:50Z</time>
      </trkpt>
      <trkpt lat="43.65094" lon="2.78048">
        <ele>818.22</ele>
        <time>2011-10-23T06:35:06Z</time>
      </trkpt>
      <trkpt lat="43.65109" lon="2.78057">
        <ele>820.14</ele>
        <time>2011-10-23T06:35:21Z</time>
      </trkpt>
      <trkpt lat="43.65125" lon="2.78067">
        <ele>819.66</ele>
        <time>2011-10-23T06:35:35Z</time>
      </trkpt>
      <trkpt lat="43.65142" lon="2.78078">
        <ele>818.7</ele>
        <time>2011-10-23T06:35:49Z</time>
      </trkpt>
      <trkpt lat="43.6516" lon="2.78088">
        <ele>819.18</ele>
        <time>2011-10-23T06:36:05Z</time>
      </trkpt>
      <trkpt lat="43.6517" lon="2.78096">
        <ele>819.66</ele>
        <time>2011-10-23T06:36:15Z</time>
      </trkpt>
      <trkpt lat="43.65186" lon="2.78106">
        <ele>821.1</ele>
        <time>2011-10-23T06:36:30Z</time>
      </trkpt>
      <trkpt lat="43.65199" lon="2.78122">
        <ele>823.03</ele>
        <time>2011-10-23T06:36:46Z</time>
      </trkpt>
      <trkpt lat="43.65203" lon="2.78127">
        <ele>823.51</ele>
        <time>2011-10-23T06:36:51Z</time>
      </trkpt>
      <trkpt lat="43.65206" lon="2.78131">
        <ele>823.51</ele>
        <time>2011-10-23T06:36:55Z</time>
      </trkpt>
      <trkpt lat="43.65207" lon="2.78134">
        <ele>823.03</ele>
        <time>2011-10-23T06:36:57Z</time>
      </trkpt>
      <trkpt lat="43.65208" lon="2.78136">
        <ele>823.03</ele>
        <time>2011-10-23T06:36:59Z</time>
      </trkpt>
      <trkpt lat="43.6521" lon="2.78143">
        <ele>822.55</ele>
        <time>2011-10-23T06:37:03Z</time>
      </trkpt>
      <trkpt lat="43.65208" lon="2.78151">
        <ele>822.06</ele>
        <time>2011-10-23T06:37:08Z</time>
      </trkpt>
      <trkpt lat="43.65204" lon="2.78158">
        <ele>821.1</ele>
        <time>2011-10-23T06:37:14Z</time>
      </trkpt>
      <trkpt lat="43.65187" lon="2.78169">
        <ele>823.99</ele>
        <time>2011-10-23T06:37:30Z</time>
      </trkpt>
      <trkpt lat="43.65168" lon="2.78163">
        <ele>824.95</ele>
        <time>2011-10-23T06:37:44Z</time>
      </trkpt>
      <trkpt lat="43.65151" lon="2.78155">
        <ele>825.43</ele>
        <time>2011-10-23T06:37:59Z</time>
      </trkpt>
      <trkpt lat="43.65132" lon="2.78145">
        <ele>828.31</ele>
        <time>2011-10-23T06:38:15Z</time>
      </trkpt>
      <trkpt lat="43.65115" lon="2.78138">
        <ele>829.76</ele>
        <time>2011-10-23T06:38:29Z</time>
      </trkpt>
      <trkpt lat="43.65113" lon="2.78137">
        <ele>829.27</ele>
        <time>2011-10-23T06:38:31Z</time>
      </trkpt>
      <trkpt lat="43.65096" lon="2.7813">
        <ele>829.27</ele>
        <time>2011-10-23T06:38:46Z</time>
      </trkpt>
      <trkpt lat="43.65084" lon="2.78124">
        <ele>827.83</ele>
        <time>2011-10-23T06:38:57Z</time>
      </trkpt>
      <trkpt lat="43.65074" lon="2.78119">
        <ele>829.27</ele>
        <time>2011-10-23T06:39:06Z</time>
      </trkpt>
      <trkpt lat="43.65054" lon="2.78113">
        <ele>826.87</ele>
        <time>2011-10-23T06:39:23Z</time>
      </trkpt>
      <trkpt lat="43.65043" lon="2.78107">
        <ele>826.39</ele>
        <time>2011-10-23T06:39:33Z</time>
      </trkpt>
      <trkpt lat="43.65024" lon="2.78105">
        <ele>828.31</ele>
        <time>2011-10-23T06:39:49Z</time>
      </trkpt>
      <trkpt lat="43.65014" lon="2.78103">
        <ele>829.27</ele>
        <time>2011-10-23T06:39:57Z</time>
      </trkpt>
      <trkpt lat="43.64997" lon="2.781">
        <ele>830.24</ele>
        <time>2011-10-23T06:40:11Z</time>
      </trkpt>
      <trkpt lat="43.6499" lon="2.78098">
        <ele>829.27</ele>
        <time>2011-10-23T06:40:16Z</time>
      </trkpt>
      <trkpt lat="43.64985" lon="2.78095">
        <ele>828.79</ele>
        <time>2011-10-23T06:40:20Z</time>
      </trkpt>
      <trkpt lat="43.64969" lon="2.78086">
        <ele>825.91</ele>
        <time>2011-10-23T06:40:37Z</time>
      </trkpt>
      <trkpt lat="43.64953" lon="2.78074">
        <ele>826.39</ele>
        <time>2011-10-23T06:40:51Z</time>
      </trkpt>
      <trkpt lat="43.64937" lon="2.78065">
        <ele>830.24</ele>
        <time>2011-10-23T06:41:04Z</time>
      </trkpt>
      <trkpt lat="43.6492" lon="2.78063">
        <ele>831.2</ele>
        <time>2011-10-23T06:41:19Z</time>
      </trkpt>
      <trkpt lat="43.64907" lon="2.78078">
        <ele>830.24</ele>
        <time>2011-10-23T06:41:33Z</time>
      </trkpt>
      <trkpt lat="43.64905" lon="2.78093">
        <ele>829.76</ele>
        <time>2011-10-23T06:41:43Z</time>
      </trkpt>
      <trkpt lat="43.64898" lon="2.78115">
        <ele>831.2</ele>
        <time>2011-10-23T06:41:59Z</time>
      </trkpt>
      <trkpt lat="43.64893" lon="2.78136">
        <ele>834.56</ele>
        <time>2011-10-23T06:42:13Z</time>
      </trkpt>
      <trkpt lat="43.64889" lon="2.78153">
        <ele>836.96</ele>
        <time>2011-10-23T06:42:25Z</time>
      </trkpt>
      <trkpt lat="43.64885" lon="2.78172">
        <ele>838.41</ele>
        <time>2011-10-23T06:42:38Z</time>
      </trkpt>
      <trkpt lat="43.64883" lon="2.78193">
        <ele>839.85</ele>
        <time>2011-10-23T06:42:53Z</time>
      </trkpt>
      <trkpt lat="43.64883" lon="2.78195">
        <ele>840.33</ele>
        <time>2011-10-23T06:42:54Z</time>
      </trkpt>
      <trkpt lat="43.64884" lon="2.78206">
        <ele>841.29</ele>
        <time>2011-10-23T06:43:01Z</time>
      </trkpt>
      <trkpt lat="43.64885" lon="2.78209">
        <ele>841.77</ele>
        <time>2011-10-23T06:43:04Z</time>
      </trkpt>
      <trkpt lat="43.64887" lon="2.78216">
        <ele>842.73</ele>
        <time>2011-10-23T06:43:09Z</time>
      </trkpt>
      <trkpt lat="43.6489" lon="2.78228">
        <ele>843.69</ele>
        <time>2011-10-23T06:43:18Z</time>
      </trkpt>
      <trkpt lat="43.64899" lon="2.78246">
        <ele>845.14</ele>
        <time>2011-10-23T06:43:33Z</time>
      </trkpt>
      <trkpt lat="43.64905" lon="2.78256">
        <ele>846.1</ele>
        <time>2011-10-23T06:43:42Z</time>
      </trkpt>
      <trkpt lat="43.6492" lon="2.78267">
        <ele>847.54</ele>
        <time>2011-10-23T06:43:57Z</time>
      </trkpt>
      <trkpt lat="43.64937" lon="2.78274">
        <ele>848.02</ele>
        <time>2011-10-23T06:44:12Z</time>
      </trkpt>
      <trkpt lat="43.64939" lon="2.78276">
        <ele>848.02</ele>
        <time>2011-10-23T06:44:14Z</time>
      </trkpt>
      <trkpt lat="43.64944" lon="2.78282">
        <ele>848.98</ele>
        <time>2011-10-23T06:44:19Z</time>
      </trkpt>
      <trkpt lat="43.64953" lon="2.78297">
        <ele>848.5</ele>
        <time>2011-10-23T06:44:32Z</time>
      </trkpt>
      <trkpt lat="43.64954" lon="2.783">
        <ele>848.98</ele>
        <time>2011-10-23T06:44:35Z</time>
      </trkpt>
      <trkpt lat="43.64955" lon="2.78302">
        <ele>848.98</ele>
        <time>2011-10-23T06:44:37Z</time>
      </trkpt>
      <trkpt lat="43.64956" lon="2.78305">
        <ele>849.46</ele>
        <time>2011-10-23T06:44:39Z</time>
      </trkpt>
      <trkpt lat="43.64956" lon="2.7831">
        <ele>849.94</ele>
        <time>2011-10-23T06:44:42Z</time>
      </trkpt>
      <trkpt lat="43.64959" lon="2.78331">
        <ele>851.87</ele>
        <time>2011-10-23T06:44:58Z</time>
      </trkpt>
      <trkpt lat="43.64962" lon="2.78344">
        <ele>851.38</ele>
        <time>2011-10-23T06:45:06Z</time>
      </trkpt>
      <trkpt lat="43.64964" lon="2.78353">
        <ele>851.38</ele>
        <time>2011-10-23T06:45:12Z</time>
      </trkpt>
      <trkpt lat="43.64969" lon="2.7837">
        <ele>853.31</ele>
        <time>2011-10-23T06:45:24Z</time>
      </trkpt>
      <trkpt lat="43.64981" lon="2.78389">
        <ele>853.79</ele>
        <time>2011-10-23T06:45:41Z</time>
      </trkpt>
      <trkpt lat="43.64988" lon="2.78408">
        <ele>854.75</ele>
        <time>2011-10-23T06:45:55Z</time>
      </trkpt>
      <trkpt lat="43.64995" lon="2.78424">
        <ele>856.19</ele>
        <time>2011-10-23T06:46:08Z</time>
      </trkpt>
      <trkpt lat="43.65007" lon="2.78443">
        <ele>857.63</ele>
        <time>2011-10-23T06:46:24Z</time>
      </trkpt>
      <trkpt lat="43.65015" lon="2.78457">
        <ele>858.11</ele>
        <time>2011-10-23T06:46:35Z</time>
      </trkpt>
      <trkpt lat="43.65017" lon="2.78463">
        <ele>858.11</ele>
        <time>2011-10-23T06:46:40Z</time>
      </trkpt>
      <trkpt lat="43.65027" lon="2.78483">
        <ele>856.67</ele>
        <time>2011-10-23T06:46:55Z</time>
      </trkpt>
      <trkpt lat="43.65037" lon="2.785">
        <ele>858.11</ele>
        <time>2011-10-23T06:47:10Z</time>
      </trkpt>
      <trkpt lat="43.65046" lon="2.78517">
        <ele>859.56</ele>
        <time>2011-10-23T06:47:24Z</time>
      </trkpt>
      <trkpt lat="43.65055" lon="2.78532">
        <ele>863.88</ele>
        <time>2011-10-23T06:47:38Z</time>
      </trkpt>
      <trkpt lat="43.65059" lon="2.78538">
        <ele>865.8</ele>
        <time>2011-10-23T06:47:44Z</time>
      </trkpt>
      <trkpt lat="43.65069" lon="2.78551">
        <ele>869.65</ele>
        <time>2011-10-23T06:48:00Z</time>
      </trkpt>
      <trkpt lat="43.65085" lon="2.78549">
        <ele>868.21</ele>
        <time>2011-10-23T06:48:16Z</time>
      </trkpt>
      <trkpt lat="43.65093" lon="2.78546">
        <ele>869.17</ele>
        <time>2011-10-23T06:48:25Z</time>
      </trkpt>
      <trkpt lat="43.651" lon="2.78543">
        <ele>870.13</ele>
        <time>2011-10-23T06:48:32Z</time>
      </trkpt>
      <trkpt lat="43.65115" lon="2.78535">
        <ele>873.01</ele>
        <time>2011-10-23T06:48:47Z</time>
      </trkpt>
      <trkpt lat="43.65127" lon="2.78532">
        <ele>872.53</ele>
        <time>2011-10-23T06:49:00Z</time>
      </trkpt>
      <trkpt lat="43.65141" lon="2.78531">
        <ele>873.01</ele>
        <time>2011-10-23T06:49:14Z</time>
      </trkpt>
      <trkpt lat="43.65157" lon="2.78534">
        <ele>874.94</ele>
        <time>2011-10-23T06:49:30Z</time>
      </trkpt>
      <trkpt lat="43.6517" lon="2.78546">
        <ele>877.82</ele>
        <time>2011-10-23T06:49:45Z</time>
      </trkpt>
      <trkpt lat="43.65188" lon="2.78553">
        <ele>877.82</ele>
        <time>2011-10-23T06:50:01Z</time>
      </trkpt>
      <trkpt lat="43.65204" lon="2.7855">
        <ele>877.82</ele>
        <time>2011-10-23T06:50:15Z</time>
      </trkpt>
      <trkpt lat="43.65222" lon="2.78543">
        <ele>878.3</ele>
        <time>2011-10-23T06:50:30Z</time>
      </trkpt>
      <trkpt lat="43.6524" lon="2.78534">
        <ele>877.34</ele>
        <time>2011-10-23T06:50:45Z</time>
      </trkpt>
      <trkpt lat="43.65243" lon="2.78532">
        <ele>876.86</ele>
        <time>2011-10-23T06:50:48Z</time>
      </trkpt>
      <trkpt lat="43.6525" lon="2.78528">
        <ele>877.34</ele>
        <time>2011-10-23T06:50:54Z</time>
      </trkpt>
      <trkpt lat="43.6527" lon="2.78526">
        <ele>875.42</ele>
        <time>2011-10-23T06:51:11Z</time>
      </trkpt>
      <trkpt lat="43.65287" lon="2.78529">
        <ele>874.46</ele>
        <time>2011-10-23T06:51:25Z</time>
      </trkpt>
      <trkpt lat="43.65308" lon="2.78532">
        <ele>873.5</ele>
        <time>2011-10-23T06:51:43Z</time>
      </trkpt>
      <trkpt lat="43.6531" lon="2.78533">
        <ele>873.01</ele>
        <time>2011-10-23T06:51:45Z</time>
      </trkpt>
      <trkpt lat="43.6533" lon="2.78537">
        <ele>872.53</ele>
        <time>2011-10-23T06:52:01Z</time>
      </trkpt>
      <trkpt lat="43.65337" lon="2.78538">
        <ele>871.57</ele>
        <time>2011-10-23T06:52:08Z</time>
      </trkpt>
      <trkpt lat="43.65351" lon="2.78555">
        <ele>869.65</ele>
        <time>2011-10-23T06:52:24Z</time>
      </trkpt>
      <trkpt lat="43.65361" lon="2.7856">
        <ele>869.65</ele>
        <time>2011-10-23T06:52:32Z</time>
      </trkpt>
      <trkpt lat="43.65368" lon="2.78565">
        <ele>870.61</ele>
        <time>2011-10-23T06:52:38Z</time>
      </trkpt>
      <trkpt lat="43.65388" lon="2.78568">
        <ele>870.61</ele>
        <time>2011-10-23T06:52:55Z</time>
      </trkpt>
      <trkpt lat="43.65392" lon="2.78569">
        <ele>870.13</ele>
        <time>2011-10-23T06:52:59Z</time>
      </trkpt>
      <trkpt lat="43.6541" lon="2.78567">
        <ele>872.53</ele>
        <time>2011-10-23T06:53:13Z</time>
      </trkpt>
      <trkpt lat="43.65429" lon="2.78569">
        <ele>874.94</ele>
        <time>2011-10-23T06:53:29Z</time>
      </trkpt>
      <trkpt lat="43.65447" lon="2.78574">
        <ele>879.26</ele>
        <time>2011-10-23T06:53:42Z</time>
      </trkpt>
      <trkpt lat="43.65462" lon="2.78586">
        <ele>879.26</ele>
        <time>2011-10-23T06:53:58Z</time>
      </trkpt>
      <trkpt lat="43.65477" lon="2.78599">
        <ele>880.71</ele>
        <time>2011-10-23T06:54:13Z</time>
      </trkpt>
      <trkpt lat="43.65478" lon="2.786">
        <ele>880.71</ele>
        <time>2011-10-23T06:54:14Z</time>
      </trkpt>
      <trkpt lat="43.65495" lon="2.78614">
        <ele>879.26</ele>
        <time>2011-10-23T06:54:30Z</time>
      </trkpt>
      <trkpt lat="43.65507" lon="2.7862">
        <ele>877.34</ele>
        <time>2011-10-23T06:54:40Z</time>
      </trkpt>
      <trkpt lat="43.65511" lon="2.78624">
        <ele>876.38</ele>
        <time>2011-10-23T06:54:44Z</time>
      </trkpt>
      <trkpt lat="43.65521" lon="2.78637">
        <ele>875.42</ele>
        <time>2011-10-23T06:54:56Z</time>
      </trkpt>
      <trkpt lat="43.65532" lon="2.78658">
        <ele>873.5</ele>
        <time>2011-10-23T06:55:12Z</time>
      </trkpt>
      <trkpt lat="43.65536" lon="2.78661">
        <ele>873.5</ele>
        <time>2011-10-23T06:55:16Z</time>
      </trkpt>
      <trkpt lat="43.65539" lon="2.78664">
        <ele>873.5</ele>
        <time>2011-10-23T06:55:19Z</time>
      </trkpt>
      <trkpt lat="43.65554" lon="2.78678">
        <ele>873.98</ele>
        <time>2011-10-23T06:55:35Z</time>
      </trkpt>
      <trkpt lat="43.65575" lon="2.78686">
        <ele>872.05</ele>
        <time>2011-10-23T06:55:52Z</time>
      </trkpt>
      <trkpt lat="43.65592" lon="2.78691">
        <ele>871.09</ele>
        <time>2011-10-23T06:56:07Z</time>
      </trkpt>
      <trkpt lat="43.65606" lon="2.78694">
        <ele>871.57</ele>
        <time>2011-10-23T06:56:20Z</time>
      </trkpt>
      <trkpt lat="43.65616" lon="2.78709">
        <ele>873.98</ele>
        <time>2011-10-23T06:56:35Z</time>
      </trkpt>
      <trkpt lat="43.65625" lon="2.78728">
        <ele>875.9</ele>
        <time>2011-10-23T06:56:50Z</time>
      </trkpt>
      <trkpt lat="43.65627" lon="2.78738">
        <ele>876.38</ele>
        <time>2011-10-23T06:56:57Z</time>
      </trkpt>
      <trkpt lat="43.65637" lon="2.78751">
        <ele>877.82</ele>
        <time>2011-10-23T06:57:10Z</time>
      </trkpt>
      <trkpt lat="43.65649" lon="2.78767">
        <ele>879.74</ele>
        <time>2011-10-23T06:57:25Z</time>
      </trkpt>
      <trkpt lat="43.65659" lon="2.78787">
        <ele>881.19</ele>
        <time>2011-10-23T06:57:40Z</time>
      </trkpt>
      <trkpt lat="43.65672" lon="2.78807">
        <ele>879.74</ele>
        <time>2011-10-23T06:57:57Z</time>
      </trkpt>
      <trkpt lat="43.65672" lon="2.78815">
        <ele>879.74</ele>
        <time>2011-10-23T06:58:04Z</time>
      </trkpt>
      <trkpt lat="43.65657" lon="2.78836">
        <ele>878.78</ele>
        <time>2011-10-23T06:58:20Z</time>
      </trkpt>
      <trkpt lat="43.65646" lon="2.7886">
        <ele>880.22</ele>
        <time>2011-10-23T06:58:38Z</time>
      </trkpt>
      <trkpt lat="43.65639" lon="2.78879">
        <ele>880.22</ele>
        <time>2011-10-23T06:58:51Z</time>
      </trkpt>
      <trkpt lat="43.65632" lon="2.78894">
        <ele>881.19</ele>
        <time>2011-10-23T06:59:01Z</time>
      </trkpt>
      <trkpt lat="43.65619" lon="2.78913">
        <ele>881.19</ele>
        <time>2011-10-23T06:59:16Z</time>
      </trkpt>
      <trkpt lat="43.65601" lon="2.78928">
        <ele>880.71</ele>
        <time>2011-10-23T06:59:32Z</time>
      </trkpt>
      <trkpt lat="43.65598" lon="2.7893">
        <ele>881.19</ele>
        <time>2011-10-23T06:59:35Z</time>
      </trkpt>
      <trkpt lat="43.65594" lon="2.7894">
        <ele>880.22</ele>
        <time>2011-10-23T06:59:41Z</time>
      </trkpt>
      <trkpt lat="43.65594" lon="2.78945">
        <ele>880.71</ele>
        <time>2011-10-23T06:59:44Z</time>
      </trkpt>
      <trkpt lat="43.65592" lon="2.78955">
        <ele>880.71</ele>
        <time>2011-10-23T06:59:50Z</time>
      </trkpt>
      <trkpt lat="43.6559" lon="2.78963">
        <ele>881.67</ele>
        <time>2011-10-23T06:59:56Z</time>
      </trkpt>
      <trkpt lat="43.65589" lon="2.78966">
        <ele>881.67</ele>
        <time>2011-10-23T06:59:58Z</time>
      </trkpt>
      <trkpt lat="43.65589" lon="2.78983">
        <ele>881.67</ele>
        <time>2011-10-23T07:00:12Z</time>
      </trkpt>
      <trkpt lat="43.65591" lon="2.79001">
        <ele>883.11</ele>
        <time>2011-10-23T07:00:25Z</time>
      </trkpt>
      <trkpt lat="43.65591" lon="2.79005">
        <ele>883.59</ele>
        <time>2011-10-23T07:00:28Z</time>
      </trkpt>
      <trkpt lat="43.65591" lon="2.79025">
        <ele>887.91</ele>
        <time>2011-10-23T07:00:40Z</time>
      </trkpt>
      <trkpt lat="43.6559" lon="2.79033">
        <ele>888.88</ele>
        <time>2011-10-23T07:00:45Z</time>
      </trkpt>
      <trkpt lat="43.65583" lon="2.79057">
        <ele>888.4</ele>
        <time>2011-10-23T07:01:02Z</time>
      </trkpt>
      <trkpt lat="43.65581" lon="2.79061">
        <ele>888.88</ele>
        <time>2011-10-23T07:01:22Z</time>
      </trkpt>
      <trkpt lat="43.65576" lon="2.7907">
        <ele>888.88</ele>
        <time>2011-10-23T07:01:29Z</time>
      </trkpt>
      <trkpt lat="43.6557" lon="2.79082">
        <ele>890.32</ele>
        <time>2011-10-23T07:01:46Z</time>
      </trkpt>
      <trkpt lat="43.65569" lon="2.79086">
        <ele>890.8</ele>
        <time>2011-10-23T07:01:49Z</time>
      </trkpt>
      <trkpt lat="43.65568" lon="2.79091">
        <ele>890.8</ele>
        <time>2011-10-23T07:01:51Z</time>
      </trkpt>
      <trkpt lat="43.6556" lon="2.79111">
        <ele>890.32</ele>
        <time>2011-10-23T07:02:06Z</time>
      </trkpt>
      <trkpt lat="43.65552" lon="2.79126">
        <ele>891.76</ele>
        <time>2011-10-23T07:02:21Z</time>
      </trkpt>
      <trkpt lat="43.65543" lon="2.79137">
        <ele>891.76</ele>
        <time>2011-10-23T07:02:35Z</time>
      </trkpt>
      <trkpt lat="43.65533" lon="2.7915">
        <ele>892.24</ele>
        <time>2011-10-23T07:02:49Z</time>
      </trkpt>
      <trkpt lat="43.65529" lon="2.79152">
        <ele>891.76</ele>
        <time>2011-10-23T07:02:54Z</time>
      </trkpt>
      <trkpt lat="43.65521" lon="2.79157">
        <ele>891.28</ele>
        <time>2011-10-23T07:03:01Z</time>
      </trkpt>
      <trkpt lat="43.6552" lon="2.79158">
        <ele>891.28</ele>
        <time>2011-10-23T07:03:03Z</time>
      </trkpt>
      <trkpt lat="43.65515" lon="2.7916">
        <ele>891.76</ele>
        <time>2011-10-23T07:03:06Z</time>
      </trkpt>
      <trkpt lat="43.65502" lon="2.79172">
        <ele>892.24</ele>
        <time>2011-10-23T07:03:20Z</time>
      </trkpt>
      <trkpt lat="43.65496" lon="2.79181">
        <ele>893.68</ele>
        <time>2011-10-23T07:03:27Z</time>
      </trkpt>
      <trkpt lat="43.65494" lon="2.79186">
        <ele>893.68</ele>
        <time>2011-10-23T07:03:30Z</time>
      </trkpt>
      <trkpt lat="43.65484" lon="2.79205">
        <ele>894.64</ele>
        <time>2011-10-23T07:03:44Z</time>
      </trkpt>
      <trkpt lat="43.65475" lon="2.79219">
        <ele>895.12</ele>
        <time>2011-10-23T07:03:58Z</time>
      </trkpt>
      <trkpt lat="43.65463" lon="2.79238">
        <ele>899.93</ele>
        <time>2011-10-23T07:04:13Z</time>
      </trkpt>
      <trkpt lat="43.65458" lon="2.79247">
        <ele>900.41</ele>
        <time>2011-10-23T07:04:21Z</time>
      </trkpt>
      <trkpt lat="43.65452" lon="2.79254">
        <ele>902.33</ele>
        <time>2011-10-23T07:04:27Z</time>
      </trkpt>
      <trkpt lat="43.65444" lon="2.79269">
        <ele>905.7</ele>
        <time>2011-10-23T07:04:42Z</time>
      </trkpt>
      <trkpt lat="43.65435" lon="2.79287">
        <ele>908.1</ele>
        <time>2011-10-23T07:04:56Z</time>
      </trkpt>
      <trkpt lat="43.65426" lon="2.79306">
        <ele>909.06</ele>
        <time>2011-10-23T07:05:10Z</time>
      </trkpt>
      <trkpt lat="43.65419" lon="2.79327">
        <ele>910.03</ele>
        <time>2011-10-23T07:05:25Z</time>
      </trkpt>
      <trkpt lat="43.65413" lon="2.79344">
        <ele>909.54</ele>
        <time>2011-10-23T07:05:37Z</time>
      </trkpt>
      <trkpt lat="43.65413" lon="2.79366">
        <ele>907.62</ele>
        <time>2011-10-23T07:05:52Z</time>
      </trkpt>
      <trkpt lat="43.65414" lon="2.79384">
        <ele>909.06</ele>
        <time>2011-10-23T07:06:05Z</time>
      </trkpt>
      <trkpt lat="43.65419" lon="2.79396">
        <ele>909.06</ele>
        <time>2011-10-23T07:06:13Z</time>
      </trkpt>
      <trkpt lat="43.65428" lon="2.79407">
        <ele>905.22</ele>
        <time>2011-10-23T07:06:22Z</time>
      </trkpt>
      <trkpt lat="43.65445" lon="2.79422">
        <ele>903.3</ele>
        <time>2011-10-23T07:06:35Z</time>
      </trkpt>
      <trkpt lat="43.65468" lon="2.79421">
        <ele>900.41</ele>
        <time>2011-10-23T07:06:51Z</time>
      </trkpt>
      <trkpt lat="43.65492" lon="2.79418">
        <ele>898.49</ele>
        <time>2011-10-23T07:07:09Z</time>
      </trkpt>
      <trkpt lat="43.6551" lon="2.79428">
        <ele>900.41</ele>
        <time>2011-10-23T07:07:23Z</time>
      </trkpt>
      <trkpt lat="43.65514" lon="2.79431">
        <ele>900.89</ele>
        <time>2011-10-23T07:07:27Z</time>
      </trkpt>
      <trkpt lat="43.65527" lon="2.79441">
        <ele>904.26</ele>
        <time>2011-10-23T07:07:42Z</time>
      </trkpt>
      <trkpt lat="43.65538" lon="2.79452">
        <ele>905.7</ele>
        <time>2011-10-23T07:07:54Z</time>
      </trkpt>
      <trkpt lat="43.65541" lon="2.79473">
        <ele>904.26</ele>
        <time>2011-10-23T07:08:09Z</time>
      </trkpt>
      <trkpt lat="43.65538" lon="2.795">
        <ele>899.93</ele>
        <time>2011-10-23T07:08:24Z</time>
      </trkpt>
      <trkpt lat="43.6554" lon="2.79525">
        <ele>896.09</ele>
        <time>2011-10-23T07:08:40Z</time>
      </trkpt>
      <trkpt lat="43.65539" lon="2.7953">
        <ele>895.12</ele>
        <time>2011-10-23T07:08:43Z</time>
      </trkpt>
      <trkpt lat="43.65537" lon="2.79546">
        <ele>893.2</ele>
        <time>2011-10-23T07:08:53Z</time>
      </trkpt>
      <trkpt lat="43.65538" lon="2.79567">
        <ele>887.43</ele>
        <time>2011-10-23T07:09:08Z</time>
      </trkpt>
      <trkpt lat="43.65542" lon="2.79596">
        <ele>885.51</ele>
        <time>2011-10-23T07:09:24Z</time>
      </trkpt>
      <trkpt lat="43.65557" lon="2.7962">
        <ele>882.15</ele>
        <time>2011-10-23T07:09:40Z</time>
      </trkpt>
      <trkpt lat="43.65567" lon="2.79631">
        <ele>880.22</ele>
        <time>2011-10-23T07:09:50Z</time>
      </trkpt>
      <trkpt lat="43.6558" lon="2.79647">
        <ele>879.74</ele>
        <time>2011-10-23T07:10:04Z</time>
      </trkpt>
      <trkpt lat="43.65585" lon="2.7965">
        <ele>880.22</ele>
        <time>2011-10-23T07:10:08Z</time>
      </trkpt>
      <trkpt lat="43.65595" lon="2.79659">
        <ele>881.19</ele>
        <time>2011-10-23T07:10:17Z</time>
      </trkpt>
      <trkpt lat="43.65599" lon="2.79658">
        <ele>882.15</ele>
        <time>2011-10-23T07:10:20Z</time>
      </trkpt>
      <trkpt lat="43.65602" lon="2.79659">
        <ele>883.11</ele>
        <time>2011-10-23T07:10:22Z</time>
      </trkpt>
      <trkpt lat="43.65617" lon="2.7967">
        <ele>884.07</ele>
        <time>2011-10-23T07:10:38Z</time>
      </trkpt>
      <trkpt lat="43.65616" lon="2.79673">
        <ele>884.07</ele>
        <time>2011-10-23T07:10:41Z</time>
      </trkpt>
      <trkpt lat="43.65612" lon="2.79674">
        <ele>883.59</ele>
        <time>2011-10-23T07:10:45Z</time>
      </trkpt>
      <trkpt lat="43.65592" lon="2.79661">
        <ele>882.15</ele>
        <time>2011-10-23T07:11:01Z</time>
      </trkpt>
      <trkpt lat="43.65585" lon="2.79662">
        <ele>881.67</ele>
        <time>2011-10-23T07:11:06Z</time>
      </trkpt>
      <trkpt lat="43.65563" lon="2.79667">
        <ele>883.11</ele>
        <time>2011-10-23T07:11:22Z</time>
      </trkpt>
      <trkpt lat="43.65551" lon="2.79673">
        <ele>883.11</ele>
        <time>2011-10-23T07:11:32Z</time>
      </trkpt>
      <trkpt lat="43.65546" lon="2.79678">
        <ele>884.07</ele>
        <time>2011-10-23T07:11:36Z</time>
      </trkpt>
      <trkpt lat="43.65527" lon="2.79698">
        <ele>886.47</ele>
        <time>2011-10-23T07:11:52Z</time>
      </trkpt>
      <trkpt lat="43.65523" lon="2.79701">
        <ele>886.47</ele>
        <time>2011-10-23T07:11:55Z</time>
      </trkpt>
      <trkpt lat="43.65508" lon="2.79717">
        <ele>884.55</ele>
        <time>2011-10-23T07:12:11Z</time>
      </trkpt>
      <trkpt lat="43.65496" lon="2.79728">
        <ele>883.59</ele>
        <time>2011-10-23T07:12:24Z</time>
      </trkpt>
      <trkpt lat="43.65479" lon="2.79737">
        <ele>881.67</ele>
        <time>2011-10-23T07:12:38Z</time>
      </trkpt>
      <trkpt lat="43.65464" lon="2.79756">
        <ele>878.3</ele>
        <time>2011-10-23T07:12:54Z</time>
      </trkpt>
      <trkpt lat="43.65458" lon="2.79761">
        <ele>878.3</ele>
        <time>2011-10-23T07:13:01Z</time>
      </trkpt>
      <trkpt lat="43.65456" lon="2.79766">
        <ele>877.82</ele>
        <time>2011-10-23T07:13:04Z</time>
      </trkpt>
      <trkpt lat="43.65449" lon="2.79774">
        <ele>875.9</ele>
        <time>2011-10-23T07:13:11Z</time>
      </trkpt>
      <trkpt lat="43.65448" lon="2.79777">
        <ele>875.9</ele>
        <time>2011-10-23T07:13:13Z</time>
      </trkpt>
      <trkpt lat="43.65435" lon="2.79795">
        <ele>873.5</ele>
        <time>2011-10-23T07:13:27Z</time>
      </trkpt>
      <trkpt lat="43.65432" lon="2.79801">
        <ele>872.53</ele>
        <time>2011-10-23T07:13:32Z</time>
      </trkpt>
      <trkpt lat="43.65429" lon="2.7981">
        <ele>871.57</ele>
        <time>2011-10-23T07:13:38Z</time>
      </trkpt>
      <trkpt lat="43.65423" lon="2.79838">
        <ele>871.09</ele>
        <time>2011-10-23T07:13:54Z</time>
      </trkpt>
      <trkpt lat="43.65423" lon="2.79862">
        <ele>861.96</ele>
        <time>2011-10-23T07:14:09Z</time>
      </trkpt>
      <trkpt lat="43.65425" lon="2.79883">
        <ele>861</ele>
        <time>2011-10-23T07:14:23Z</time>
      </trkpt>
      <trkpt lat="43.65431" lon="2.799">
        <ele>859.56</ele>
        <time>2011-10-23T07:14:32Z</time>
      </trkpt>
      <trkpt lat="43.65444" lon="2.79921">
        <ele>858.11</ele>
        <time>2011-10-23T07:14:47Z</time>
      </trkpt>
      <trkpt lat="43.65457" lon="2.79942">
        <ele>851.38</ele>
        <time>2011-10-23T07:15:02Z</time>
      </trkpt>
      <trkpt lat="43.65466" lon="2.79957">
        <ele>849.94</ele>
        <time>2011-10-23T07:15:15Z</time>
      </trkpt>
      <trkpt lat="43.6548" lon="2.79976">
        <ele>850.9</ele>
        <time>2011-10-23T07:15:29Z</time>
      </trkpt>
      <trkpt lat="43.6549" lon="2.79987">
        <ele>849.94</ele>
        <time>2011-10-23T07:15:40Z</time>
      </trkpt>
      <trkpt lat="43.65502" lon="2.80007">
        <ele>848.98</ele>
        <time>2011-10-23T07:15:56Z</time>
      </trkpt>
      <trkpt lat="43.65509" lon="2.80016">
        <ele>849.46</ele>
        <time>2011-10-23T07:16:04Z</time>
      </trkpt>
      <trkpt lat="43.65524" lon="2.80031">
        <ele>847.54</ele>
        <time>2011-10-23T07:16:21Z</time>
      </trkpt>
      <trkpt lat="43.65541" lon="2.80038">
        <ele>845.62</ele>
        <time>2011-10-23T07:16:35Z</time>
      </trkpt>
      <trkpt lat="43.65562" lon="2.80044">
        <ele>843.69</ele>
        <time>2011-10-23T07:16:50Z</time>
      </trkpt>
      <trkpt lat="43.6558" lon="2.80046">
        <ele>843.21</ele>
        <time>2011-10-23T07:17:06Z</time>
      </trkpt>
      <trkpt lat="43.65581" lon="2.80046">
        <ele>843.69</ele>
        <time>2011-10-23T07:17:07Z</time>
      </trkpt>
      <trkpt lat="43.65599" lon="2.80051">
        <ele>846.1</ele>
        <time>2011-10-23T07:17:22Z</time>
      </trkpt>
      <trkpt lat="43.65614" lon="2.80045">
        <ele>843.69</ele>
        <time>2011-10-23T07:17:32Z</time>
      </trkpt>
      <trkpt lat="43.65619" lon="2.80044">
        <ele>843.69</ele>
        <time>2011-10-23T07:17:36Z</time>
      </trkpt>
      <trkpt lat="43.65621" lon="2.80042">
        <ele>843.69</ele>
        <time>2011-10-23T07:17:39Z</time>
      </trkpt>
      <trkpt lat="43.65641" lon="2.80035">
        <ele>843.21</ele>
        <time>2011-10-23T07:17:55Z</time>
      </trkpt>
      <trkpt lat="43.65651" lon="2.80029">
        <ele>843.69</ele>
        <time>2011-10-23T07:18:02Z</time>
      </trkpt>
      <trkpt lat="43.65667" lon="2.80023">
        <ele>841.29</ele>
        <time>2011-10-23T07:18:17Z</time>
      </trkpt>
      <trkpt lat="43.65682" lon="2.80006">
        <ele>837.45</ele>
        <time>2011-10-23T07:18:32Z</time>
      </trkpt>
      <trkpt lat="43.65687" lon="2.80001">
        <ele>836.96</ele>
        <time>2011-10-23T07:18:36Z</time>
      </trkpt>
      <trkpt lat="43.6569" lon="2.79994">
        <ele>835.04</ele>
        <time>2011-10-23T07:18:41Z</time>
      </trkpt>
      <trkpt lat="43.65698" lon="2.79974">
        <ele>832.64</ele>
        <time>2011-10-23T07:18:56Z</time>
      </trkpt>
      <trkpt lat="43.65699" lon="2.79965">
        <ele>831.68</ele>
        <time>2011-10-23T07:19:03Z</time>
      </trkpt>
      <trkpt lat="43.65708" lon="2.79943">
        <ele>830.24</ele>
        <time>2011-10-23T07:19:13Z</time>
      </trkpt>
      <trkpt lat="43.65713" lon="2.79926">
        <ele>828.79</ele>
        <time>2011-10-23T07:19:23Z</time>
      </trkpt>
      <trkpt lat="43.65709" lon="2.79901">
        <ele>826.87</ele>
        <time>2011-10-23T07:19:38Z</time>
      </trkpt>
      <trkpt lat="43.65712" lon="2.79895">
        <ele>826.87</ele>
        <time>2011-10-23T07:19:41Z</time>
      </trkpt>
      <trkpt lat="43.65716" lon="2.79886">
        <ele>827.35</ele>
        <time>2011-10-23T07:19:46Z</time>
      </trkpt>
      <trkpt lat="43.6572" lon="2.79883">
        <ele>828.31</ele>
        <time>2011-10-23T07:19:49Z</time>
      </trkpt>
      <trkpt lat="43.65727" lon="2.79887">
        <ele>827.83</ele>
        <time>2011-10-23T07:19:55Z</time>
      </trkpt>
      <trkpt lat="43.65726" lon="2.799">
        <ele>825.91</ele>
        <time>2011-10-23T07:20:03Z</time>
      </trkpt>
      <trkpt lat="43.65726" lon="2.79911">
        <ele>824.47</ele>
        <time>2011-10-23T07:20:09Z</time>
      </trkpt>
      <trkpt lat="43.65723" lon="2.79942">
        <ele>825.43</ele>
        <time>2011-10-23T07:20:26Z</time>
      </trkpt>
      <trkpt lat="43.65725" lon="2.79963">
        <ele>823.51</ele>
        <time>2011-10-23T07:20:40Z</time>
      </trkpt>
      <trkpt lat="43.65726" lon="2.79981">
        <ele>821.58</ele>
        <time>2011-10-23T07:20:51Z</time>
      </trkpt>
      <trkpt lat="43.65727" lon="2.80003">
        <ele>820.62</ele>
        <time>2011-10-23T07:21:05Z</time>
      </trkpt>
      <trkpt lat="43.65725" lon="2.80027">
        <ele>817.74</ele>
        <time>2011-10-23T07:21:21Z</time>
      </trkpt>
      <trkpt lat="43.65717" lon="2.80054">
        <ele>817.74</ele>
        <time>2011-10-23T07:21:36Z</time>
      </trkpt>
      <trkpt lat="43.6571" lon="2.80074">
        <ele>819.18</ele>
        <time>2011-10-23T07:21:51Z</time>
      </trkpt>
      <trkpt lat="43.65695" lon="2.80101">
        <ele>822.55</ele>
        <time>2011-10-23T07:22:07Z</time>
      </trkpt>
      <trkpt lat="43.65681" lon="2.80118">
        <ele>823.99</ele>
        <time>2011-10-23T07:22:22Z</time>
      </trkpt>
      <trkpt lat="43.65673" lon="2.80141">
        <ele>823.99</ele>
        <time>2011-10-23T07:22:35Z</time>
      </trkpt>
      <trkpt lat="43.65675" lon="2.80146">
        <ele>822.06</ele>
        <time>2011-10-23T07:22:38Z</time>
      </trkpt>
      <trkpt lat="43.6569" lon="2.80144">
        <ele>814.85</ele>
        <time>2011-10-23T07:22:48Z</time>
      </trkpt>
      <trkpt lat="43.65705" lon="2.80135">
        <ele>809.09</ele>
        <time>2011-10-23T07:22:59Z</time>
      </trkpt>
      <trkpt lat="43.6572" lon="2.80129">
        <ele>805.72</ele>
        <time>2011-10-23T07:23:10Z</time>
      </trkpt>
      <trkpt lat="43.65728" lon="2.80124">
        <ele>804.76</ele>
        <time>2011-10-23T07:23:15Z</time>
      </trkpt>
      <trkpt lat="43.6575" lon="2.80116">
        <ele>799.95</ele>
        <time>2011-10-23T07:23:33Z</time>
      </trkpt>
      <trkpt lat="43.65754" lon="2.80111">
        <ele>798.99</ele>
        <time>2011-10-23T07:23:37Z</time>
      </trkpt>
      <trkpt lat="43.65762" lon="2.80105">
        <ele>799.47</ele>
        <time>2011-10-23T07:23:45Z</time>
      </trkpt>
      <trkpt lat="43.65777" lon="2.80085">
        <ele>800.44</ele>
        <time>2011-10-23T07:24:00Z</time>
      </trkpt>
      <trkpt lat="43.65783" lon="2.80082">
        <ele>799.95</ele>
        <time>2011-10-23T07:24:11Z</time>
      </trkpt>
      <trkpt lat="43.65784" lon="2.80089">
        <ele>799.47</ele>
        <time>2011-10-23T07:24:16Z</time>
      </trkpt>
      <trkpt lat="43.65778" lon="2.80099">
        <ele>798.03</ele>
        <time>2011-10-23T07:24:24Z</time>
      </trkpt>
      <trkpt lat="43.65767" lon="2.80124">
        <ele>793.22</ele>
        <time>2011-10-23T07:24:43Z</time>
      </trkpt>
      <trkpt lat="43.65765" lon="2.80127">
        <ele>793.22</ele>
        <time>2011-10-23T07:24:45Z</time>
      </trkpt>
      <trkpt lat="43.65764" lon="2.80129">
        <ele>792.74</ele>
        <time>2011-10-23T07:24:47Z</time>
      </trkpt>
      <trkpt lat="43.65762" lon="2.80151">
        <ele>793.71</ele>
        <time>2011-10-23T07:25:00Z</time>
      </trkpt>
      <trkpt lat="43.65774" lon="2.80154">
        <ele>793.22</ele>
        <time>2011-10-23T07:25:10Z</time>
      </trkpt>
      <trkpt lat="43.65792" lon="2.80138">
        <ele>789.86</ele>
        <time>2011-10-23T07:25:26Z</time>
      </trkpt>
      <trkpt lat="43.65806" lon="2.80124">
        <ele>787.46</ele>
        <time>2011-10-23T07:25:40Z</time>
      </trkpt>
      <trkpt lat="43.65823" lon="2.80111">
        <ele>785.53</ele>
        <time>2011-10-23T07:25:54Z</time>
      </trkpt>
      <trkpt lat="43.65836" lon="2.80093">
        <ele>782.17</ele>
        <time>2011-10-23T07:26:09Z</time>
      </trkpt>
      <trkpt lat="43.65849" lon="2.80082">
        <ele>780.73</ele>
        <time>2011-10-23T07:26:25Z</time>
      </trkpt>
      <trkpt lat="43.6585" lon="2.80084">
        <ele>780.25</ele>
        <time>2011-10-23T07:26:28Z</time>
      </trkpt>
      <trkpt lat="43.65849" lon="2.80088">
        <ele>780.25</ele>
        <time>2011-10-23T07:26:32Z</time>
      </trkpt>
      <trkpt lat="43.65848" lon="2.80093">
        <ele>780.25</ele>
        <time>2011-10-23T07:26:40Z</time>
      </trkpt>
      <trkpt lat="43.65862" lon="2.80071">
        <ele>780.73</ele>
        <time>2011-10-23T07:26:57Z</time>
      </trkpt>
      <trkpt lat="43.65872" lon="2.8005">
        <ele>781.69</ele>
        <time>2011-10-23T07:27:12Z</time>
      </trkpt>
      <trkpt lat="43.65883" lon="2.80028">
        <ele>782.65</ele>
        <time>2011-10-23T07:27:29Z</time>
      </trkpt>
      <trkpt lat="43.659" lon="2.80012">
        <ele>783.13</ele>
        <time>2011-10-23T07:27:46Z</time>
      </trkpt>
      <trkpt lat="43.65916" lon="2.80003">
        <ele>784.09</ele>
        <time>2011-10-23T07:28:02Z</time>
      </trkpt>
      <trkpt lat="43.65933" lon="2.79994">
        <ele>783.61</ele>
        <time>2011-10-23T07:28:18Z</time>
      </trkpt>
      <trkpt lat="43.65953" lon="2.79984">
        <ele>783.13</ele>
        <time>2011-10-23T07:28:36Z</time>
      </trkpt>
      <trkpt lat="43.6597" lon="2.79976">
        <ele>783.13</ele>
        <time>2011-10-23T07:28:51Z</time>
      </trkpt>
      <trkpt lat="43.65989" lon="2.79968">
        <ele>783.61</ele>
        <time>2011-10-23T07:29:06Z</time>
      </trkpt>
      <trkpt lat="43.66008" lon="2.79958">
        <ele>785.05</ele>
        <time>2011-10-23T07:29:23Z</time>
      </trkpt>
      <trkpt lat="43.66025" lon="2.79962">
        <ele>784.57</ele>
        <time>2011-10-23T07:29:38Z</time>
      </trkpt>
      <trkpt lat="43.66034" lon="2.79989">
        <ele>781.21</ele>
        <time>2011-10-23T07:29:55Z</time>
      </trkpt>
      <trkpt lat="43.66043" lon="2.80016">
        <ele>780.25</ele>
        <time>2011-10-23T07:30:11Z</time>
      </trkpt>
      <trkpt lat="43.66052" lon="2.80041">
        <ele>780.25</ele>
        <time>2011-10-23T07:30:27Z</time>
      </trkpt>
      <trkpt lat="43.66059" lon="2.80063">
        <ele>779.29</ele>
        <time>2011-10-23T07:30:41Z</time>
      </trkpt>
      <trkpt lat="43.66064" lon="2.80092">
        <ele>779.77</ele>
        <time>2011-10-23T07:30:58Z</time>
      </trkpt>
      <trkpt lat="43.66064" lon="2.80126">
        <ele>780.25</ele>
        <time>2011-10-23T07:31:16Z</time>
      </trkpt>
      <trkpt lat="43.66065" lon="2.80149">
        <ele>780.73</ele>
        <time>2011-10-23T07:31:29Z</time>
      </trkpt>
      <trkpt lat="43.66063" lon="2.8018">
        <ele>780.73</ele>
        <time>2011-10-23T07:31:45Z</time>
      </trkpt>
      <trkpt lat="43.66065" lon="2.80209">
        <ele>778.32</ele>
        <time>2011-10-23T07:32:01Z</time>
      </trkpt>
      <trkpt lat="43.66063" lon="2.80235">
        <ele>778.81</ele>
        <time>2011-10-23T07:32:18Z</time>
      </trkpt>
      <trkpt lat="43.66066" lon="2.80255">
        <ele>779.77</ele>
        <time>2011-10-23T07:32:31Z</time>
      </trkpt>
      <trkpt lat="43.66066" lon="2.8026">
        <ele>780.25</ele>
        <time>2011-10-23T07:32:34Z</time>
      </trkpt>
      <trkpt lat="43.66065" lon="2.8027">
        <ele>779.77</ele>
        <time>2011-10-23T07:32:41Z</time>
      </trkpt>
      <trkpt lat="43.66048" lon="2.80282">
        <ele>782.17</ele>
        <time>2011-10-23T07:32:59Z</time>
      </trkpt>
      <trkpt lat="43.66027" lon="2.8028">
        <ele>782.65</ele>
        <time>2011-10-23T07:33:16Z</time>
      </trkpt>
      <trkpt lat="43.6601" lon="2.80277">
        <ele>784.57</ele>
        <time>2011-10-23T07:33:29Z</time>
      </trkpt>
      <trkpt lat="43.65992" lon="2.80275">
        <ele>784.57</ele>
        <time>2011-10-23T07:33:43Z</time>
      </trkpt>
      <trkpt lat="43.6597" lon="2.80273">
        <ele>784.57</ele>
        <time>2011-10-23T07:33:59Z</time>
      </trkpt>
      <trkpt lat="43.65952" lon="2.80275">
        <ele>783.61</ele>
        <time>2011-10-23T07:34:12Z</time>
      </trkpt>
      <trkpt lat="43.65934" lon="2.80285">
        <ele>783.13</ele>
        <time>2011-10-23T07:34:27Z</time>
      </trkpt>
      <trkpt lat="43.65916" lon="2.80293">
        <ele>784.09</ele>
        <time>2011-10-23T07:34:42Z</time>
      </trkpt>
      <trkpt lat="43.65897" lon="2.80302">
        <ele>784.09</ele>
        <time>2011-10-23T07:34:57Z</time>
      </trkpt>
      <trkpt lat="43.6588" lon="2.80308">
        <ele>786.5</ele>
        <time>2011-10-23T07:35:10Z</time>
      </trkpt>
      <trkpt lat="43.65866" lon="2.80316">
        <ele>785.53</ele>
        <time>2011-10-23T07:35:24Z</time>
      </trkpt>
      <trkpt lat="43.65849" lon="2.80322">
        <ele>787.46</ele>
        <time>2011-10-23T07:35:36Z</time>
      </trkpt>
      <trkpt lat="43.65842" lon="2.80324">
        <ele>787.94</ele>
        <time>2011-10-23T07:35:43Z</time>
      </trkpt>
      <trkpt lat="43.65824" lon="2.80333">
        <ele>788.42</ele>
        <time>2011-10-23T07:35:59Z</time>
      </trkpt>
      <trkpt lat="43.65803" lon="2.80343">
        <ele>787.94</ele>
        <time>2011-10-23T07:36:14Z</time>
      </trkpt>
      <trkpt lat="43.65786" lon="2.80352">
        <ele>785.53</ele>
        <time>2011-10-23T07:36:29Z</time>
      </trkpt>
      <trkpt lat="43.6577" lon="2.80361">
        <ele>784.09</ele>
        <time>2011-10-23T07:36:43Z</time>
      </trkpt>
      <trkpt lat="43.65755" lon="2.80368">
        <ele>783.61</ele>
        <time>2011-10-23T07:36:56Z</time>
      </trkpt>
      <trkpt lat="43.65734" lon="2.80376">
        <ele>786.02</ele>
        <time>2011-10-23T07:37:11Z</time>
      </trkpt>
      <trkpt lat="43.65718" lon="2.80384">
        <ele>787.46</ele>
        <time>2011-10-23T07:37:25Z</time>
      </trkpt>
      <trkpt lat="43.65703" lon="2.80385">
        <ele>791.3</ele>
        <time>2011-10-23T07:37:38Z</time>
      </trkpt>
      <trkpt lat="43.65684" lon="2.80385">
        <ele>798.51</ele>
        <time>2011-10-23T07:37:53Z</time>
      </trkpt>
      <trkpt lat="43.65683" lon="2.80386">
        <ele>798.51</ele>
        <time>2011-10-23T07:37:54Z</time>
      </trkpt>
      <trkpt lat="43.65661" lon="2.80397">
        <ele>799.95</ele>
        <time>2011-10-23T07:38:09Z</time>
      </trkpt>
      <trkpt lat="43.65644" lon="2.80405">
        <ele>798.03</ele>
        <time>2011-10-23T07:38:22Z</time>
      </trkpt>
      <trkpt lat="43.65623" lon="2.80411">
        <ele>794.19</ele>
        <time>2011-10-23T07:38:38Z</time>
      </trkpt>
      <trkpt lat="43.65606" lon="2.80418">
        <ele>793.22</ele>
        <time>2011-10-23T07:38:53Z</time>
      </trkpt>
      <trkpt lat="43.65588" lon="2.80421">
        <ele>795.15</ele>
        <time>2011-10-23T07:39:07Z</time>
      </trkpt>
      <trkpt lat="43.65572" lon="2.80423">
        <ele>797.07</ele>
        <time>2011-10-23T07:39:20Z</time>
      </trkpt>
      <trkpt lat="43.65556" lon="2.80424">
        <ele>797.07</ele>
        <time>2011-10-23T07:39:33Z</time>
      </trkpt>
      <trkpt lat="43.65548" lon="2.80423">
        <ele>797.55</ele>
        <time>2011-10-23T07:39:40Z</time>
      </trkpt>
      <trkpt lat="43.65526" lon="2.80427">
        <ele>797.55</ele>
        <time>2011-10-23T07:39:56Z</time>
      </trkpt>
      <trkpt lat="43.6551" lon="2.80429">
        <ele>796.11</ele>
        <time>2011-10-23T07:40:09Z</time>
      </trkpt>
      <trkpt lat="43.65492" lon="2.80431">
        <ele>796.11</ele>
        <time>2011-10-23T07:40:23Z</time>
      </trkpt>
      <trkpt lat="43.65475" lon="2.80431">
        <ele>798.03</ele>
        <time>2011-10-23T07:40:37Z</time>
      </trkpt>
      <trkpt lat="43.65456" lon="2.80431">
        <ele>801.4</ele>
        <time>2011-10-23T07:40:53Z</time>
      </trkpt>
      <trkpt lat="43.6544" lon="2.80426">
        <ele>801.88</ele>
        <time>2011-10-23T07:41:07Z</time>
      </trkpt>
      <trkpt lat="43.65428" lon="2.80421">
        <ele>800.44</ele>
        <time>2011-10-23T07:41:21Z</time>
      </trkpt>
      <trkpt lat="43.65421" lon="2.80418">
        <ele>799.47</ele>
        <time>2011-10-23T07:41:34Z</time>
      </trkpt>
      <trkpt lat="43.65405" lon="2.80401">
        <ele>801.4</ele>
        <time>2011-10-23T07:41:51Z</time>
      </trkpt>
      <trkpt lat="43.65398" lon="2.80394">
        <ele>801.88</ele>
        <time>2011-10-23T07:41:58Z</time>
      </trkpt>
      <trkpt lat="43.65387" lon="2.80387">
        <ele>801.88</ele>
        <time>2011-10-23T07:42:08Z</time>
      </trkpt>
      <trkpt lat="43.65378" lon="2.8038">
        <ele>800.92</ele>
        <time>2011-10-23T07:42:17Z</time>
      </trkpt>
      <trkpt lat="43.65373" lon="2.80377">
        <ele>799.95</ele>
        <time>2011-10-23T07:42:31Z</time>
      </trkpt>
      <trkpt lat="43.65367" lon="2.80372">
        <ele>799.47</ele>
        <time>2011-10-23T07:42:56Z</time>
      </trkpt>
      <trkpt lat="43.65362" lon="2.80366">
        <ele>799.47</ele>
        <time>2011-10-23T07:43:03Z</time>
      </trkpt>
      <trkpt lat="43.65344" lon="2.8035">
        <ele>798.99</ele>
        <time>2011-10-23T07:43:22Z</time>
      </trkpt>
      <trkpt lat="43.65328" lon="2.80335">
        <ele>798.99</ele>
        <time>2011-10-23T07:43:37Z</time>
      </trkpt>
      <trkpt lat="43.6531" lon="2.80321">
        <ele>798.99</ele>
        <time>2011-10-23T07:43:53Z</time>
      </trkpt>
      <trkpt lat="43.6529" lon="2.80304">
        <ele>798.99</ele>
        <time>2011-10-23T07:44:11Z</time>
      </trkpt>
      <trkpt lat="43.65274" lon="2.80292">
        <ele>797.55</ele>
        <time>2011-10-23T07:44:26Z</time>
      </trkpt>
      <trkpt lat="43.65261" lon="2.8028">
        <ele>796.11</ele>
        <time>2011-10-23T07:44:39Z</time>
      </trkpt>
      <trkpt lat="43.65243" lon="2.80268">
        <ele>793.71</ele>
        <time>2011-10-23T07:44:54Z</time>
      </trkpt>
      <trkpt lat="43.65234" lon="2.80263">
        <ele>793.22</ele>
        <time>2011-10-23T07:45:03Z</time>
      </trkpt>
      <trkpt lat="43.65232" lon="2.80261">
        <ele>792.74</ele>
        <time>2011-10-23T07:45:06Z</time>
      </trkpt>
      <trkpt lat="43.65216" lon="2.80248">
        <ele>790.34</ele>
        <time>2011-10-23T07:45:22Z</time>
      </trkpt>
      <trkpt lat="43.65217" lon="2.80248">
        <ele>789.86</ele>
        <time>2011-10-23T07:45:30Z</time>
      </trkpt>
      <trkpt lat="43.65219" lon="2.80254">
        <ele>788.42</ele>
        <time>2011-10-23T07:45:34Z</time>
      </trkpt>
      <trkpt lat="43.65227" lon="2.80257">
        <ele>786.5</ele>
        <time>2011-10-23T07:45:47Z</time>
      </trkpt>
      <trkpt lat="43.65219" lon="2.80253">
        <ele>788.9</ele>
        <time>2011-10-23T07:47:09Z</time>
      </trkpt>
      <trkpt lat="43.65216" lon="2.80247">
        <ele>789.38</ele>
        <time>2011-10-23T07:47:24Z</time>
      </trkpt>
      <trkpt lat="43.65218" lon="2.80245">
        <ele>789.86</ele>
        <time>2011-10-23T07:48:52Z</time>
      </trkpt>
      <trkpt lat="43.6522" lon="2.80245">
        <ele>789.38</ele>
        <time>2011-10-23T07:48:56Z</time>
      </trkpt>
      <trkpt lat="43.65224" lon="2.80245">
        <ele>788.42</ele>
        <time>2011-10-23T07:49:00Z</time>
      </trkpt>
      <trkpt lat="43.65231" lon="2.80242">
        <ele>789.86</ele>
        <time>2011-10-23T07:49:04Z</time>
      </trkpt>
      <trkpt lat="43.65242" lon="2.80244">
        <ele>793.22</ele>
        <time>2011-10-23T07:49:11Z</time>
      </trkpt>
      <trkpt lat="43.65248" lon="2.8023">
        <ele>790.34</ele>
        <time>2011-10-23T07:49:24Z</time>
      </trkpt>
      <trkpt lat="43.65246" lon="2.80208">
        <ele>784.57</ele>
        <time>2011-10-23T07:49:41Z</time>
      </trkpt>
      <trkpt lat="43.65247" lon="2.80202">
        <ele>783.13</ele>
        <time>2011-10-23T07:49:48Z</time>
      </trkpt>
      <trkpt lat="43.6525" lon="2.80199">
        <ele>783.13</ele>
        <time>2011-10-23T07:49:51Z</time>
      </trkpt>
      <trkpt lat="43.65253" lon="2.80182">
        <ele>778.32</ele>
        <time>2011-10-23T07:50:07Z</time>
      </trkpt>
      <trkpt lat="43.65253" lon="2.80176">
        <ele>776.88</ele>
        <time>2011-10-23T07:50:12Z</time>
      </trkpt>
      <trkpt lat="43.65254" lon="2.80169">
        <ele>774.96</ele>
        <time>2011-10-23T07:50:16Z</time>
      </trkpt>
      <trkpt lat="43.65252" lon="2.80161">
        <ele>774.96</ele>
        <time>2011-10-23T07:50:22Z</time>
      </trkpt>
      <trkpt lat="43.65251" lon="2.80158">
        <ele>774.48</ele>
        <time>2011-10-23T07:50:26Z</time>
      </trkpt>
      <trkpt lat="43.65239" lon="2.8014">
        <ele>772.08</ele>
        <time>2011-10-23T07:50:42Z</time>
      </trkpt>
      <trkpt lat="43.65231" lon="2.80126">
        <ele>772.56</ele>
        <time>2011-10-23T07:50:52Z</time>
      </trkpt>
      <trkpt lat="43.65229" lon="2.80117">
        <ele>774.48</ele>
        <time>2011-10-23T07:50:57Z</time>
      </trkpt>
      <trkpt lat="43.65218" lon="2.801">
        <ele>777.36</ele>
        <time>2011-10-23T07:51:13Z</time>
      </trkpt>
      <trkpt lat="43.65206" lon="2.80081">
        <ele>775.44</ele>
        <time>2011-10-23T07:51:28Z</time>
      </trkpt>
      <trkpt lat="43.6519" lon="2.80067">
        <ele>775.92</ele>
        <time>2011-10-23T07:51:43Z</time>
      </trkpt>
      <trkpt lat="43.65179" lon="2.80058">
        <ele>775.44</ele>
        <time>2011-10-23T07:51:55Z</time>
      </trkpt>
      <trkpt lat="43.65172" lon="2.80037">
        <ele>775.92</ele>
        <time>2011-10-23T07:52:10Z</time>
      </trkpt>
      <trkpt lat="43.65163" lon="2.80022">
        <ele>774.48</ele>
        <time>2011-10-23T07:52:22Z</time>
      </trkpt>
      <trkpt lat="43.65158" lon="2.80016">
        <ele>774</ele>
        <time>2011-10-23T07:52:27Z</time>
      </trkpt>
      <trkpt lat="43.65154" lon="2.80013">
        <ele>773.52</ele>
        <time>2011-10-23T07:52:33Z</time>
      </trkpt>
      <trkpt lat="43.65137" lon="2.80001">
        <ele>773.52</ele>
        <time>2011-10-23T07:52:48Z</time>
      </trkpt>
      <trkpt lat="43.65135" lon="2.79999">
        <ele>773.52</ele>
        <time>2011-10-23T07:52:50Z</time>
      </trkpt>
      <trkpt lat="43.65128" lon="2.79995">
        <ele>773.52</ele>
        <time>2011-10-23T07:52:56Z</time>
      </trkpt>
      <trkpt lat="43.65108" lon="2.79988">
        <ele>773.04</ele>
        <time>2011-10-23T07:53:13Z</time>
      </trkpt>
      <trkpt lat="43.65105" lon="2.79986">
        <ele>771.6</ele>
        <time>2011-10-23T07:53:16Z</time>
      </trkpt>
      <trkpt lat="43.65103" lon="2.79983">
        <ele>771.11</ele>
        <time>2011-10-23T07:53:18Z</time>
      </trkpt>
      <trkpt lat="43.6509" lon="2.79973">
        <ele>766.31</ele>
        <time>2011-10-23T07:53:31Z</time>
      </trkpt>
      <trkpt lat="43.65084" lon="2.7997">
        <ele>766.31</ele>
        <time>2011-10-23T07:53:36Z</time>
      </trkpt>
      <trkpt lat="43.65074" lon="2.79961">
        <ele>767.27</ele>
        <time>2011-10-23T07:53:46Z</time>
      </trkpt>
      <trkpt lat="43.65068" lon="2.79943">
        <ele>767.27</ele>
        <time>2011-10-23T07:53:58Z</time>
      </trkpt>
      <trkpt lat="43.65062" lon="2.7993">
        <ele>766.79</ele>
        <time>2011-10-23T07:54:09Z</time>
      </trkpt>
      <trkpt lat="43.65051" lon="2.79907">
        <ele>769.19</ele>
        <time>2011-10-23T07:54:25Z</time>
      </trkpt>
      <trkpt lat="43.65049" lon="2.79901">
        <ele>770.63</ele>
        <time>2011-10-23T07:54:29Z</time>
      </trkpt>
      <trkpt lat="43.65039" lon="2.7988">
        <ele>773.04</ele>
        <time>2011-10-23T07:54:43Z</time>
      </trkpt>
      <trkpt lat="43.65028" lon="2.79861">
        <ele>772.56</ele>
        <time>2011-10-23T07:54:58Z</time>
      </trkpt>
      <trkpt lat="43.65022" lon="2.7985">
        <ele>773.04</ele>
        <time>2011-10-23T07:55:10Z</time>
      </trkpt>
      <trkpt lat="43.65021" lon="2.79848">
        <ele>773.04</ele>
        <time>2011-10-23T07:55:23Z</time>
      </trkpt>
      <trkpt lat="43.65013" lon="2.79837">
        <ele>772.56</ele>
        <time>2011-10-23T07:55:36Z</time>
      </trkpt>
      <trkpt lat="43.65007" lon="2.79815">
        <ele>775.92</ele>
        <time>2011-10-23T07:55:51Z</time>
      </trkpt>
      <trkpt lat="43.65006" lon="2.7981">
        <ele>775.92</ele>
        <time>2011-10-23T07:55:54Z</time>
      </trkpt>
      <trkpt lat="43.65003" lon="2.79799">
        <ele>774</ele>
        <time>2011-10-23T07:56:03Z</time>
      </trkpt>
      <trkpt lat="43.65002" lon="2.79776">
        <ele>770.15</ele>
        <time>2011-10-23T07:56:18Z</time>
      </trkpt>
      <trkpt lat="43.65007" lon="2.79743">
        <ele>775.44</ele>
        <time>2011-10-23T07:56:36Z</time>
      </trkpt>
      <trkpt lat="43.65013" lon="2.79724">
        <ele>779.77</ele>
        <time>2011-10-23T07:56:49Z</time>
      </trkpt>
      <trkpt lat="43.65008" lon="2.79699">
        <ele>782.17</ele>
        <time>2011-10-23T07:57:04Z</time>
      </trkpt>
      <trkpt lat="43.65008" lon="2.79673">
        <ele>784.09</ele>
        <time>2011-10-23T07:57:21Z</time>
      </trkpt>
      <trkpt lat="43.65002" lon="2.79652">
        <ele>785.05</ele>
        <time>2011-10-23T07:57:35Z</time>
      </trkpt>
      <trkpt lat="43.64998" lon="2.79647">
        <ele>784.57</ele>
        <time>2011-10-23T07:57:49Z</time>
      </trkpt>
      <trkpt lat="43.64997" lon="2.79636">
        <ele>785.05</ele>
        <time>2011-10-23T07:58:03Z</time>
      </trkpt>
      <trkpt lat="43.64991" lon="2.79621">
        <ele>786.02</ele>
        <time>2011-10-23T07:58:16Z</time>
      </trkpt>
      <trkpt lat="43.64992" lon="2.79619">
        <ele>785.53</ele>
        <time>2011-10-23T07:58:18Z</time>
      </trkpt>
      <trkpt lat="43.64994" lon="2.79614">
        <ele>786.5</ele>
        <time>2011-10-23T07:58:22Z</time>
      </trkpt>
      <trkpt lat="43.64997" lon="2.79603">
        <ele>787.46</ele>
        <time>2011-10-23T07:58:30Z</time>
      </trkpt>
      <trkpt lat="43.64999" lon="2.7958">
        <ele>788.42</ele>
        <time>2011-10-23T07:58:45Z</time>
      </trkpt>
      <trkpt lat="43.65001" lon="2.79556">
        <ele>786.98</ele>
        <time>2011-10-23T07:59:00Z</time>
      </trkpt>
      <trkpt lat="43.65" lon="2.79536">
        <ele>785.05</ele>
        <time>2011-10-23T07:59:14Z</time>
      </trkpt>
      <trkpt lat="43.64995" lon="2.79512">
        <ele>785.05</ele>
        <time>2011-10-23T07:59:27Z</time>
      </trkpt>
      <trkpt lat="43.64996" lon="2.79509">
        <ele>785.05</ele>
        <time>2011-10-23T07:59:29Z</time>
      </trkpt>
      <trkpt lat="43.65" lon="2.79487">
        <ele>782.17</ele>
        <time>2011-10-23T07:59:44Z</time>
      </trkpt>
      <trkpt lat="43.65" lon="2.79485">
        <ele>782.17</ele>
        <time>2011-10-23T07:59:46Z</time>
      </trkpt>
      <trkpt lat="43.65001" lon="2.79474">
        <ele>779.77</ele>
        <time>2011-10-23T07:59:55Z</time>
      </trkpt>
      <trkpt lat="43.64999" lon="2.79457">
        <ele>777.84</ele>
        <time>2011-10-23T08:00:04Z</time>
      </trkpt>
      <trkpt lat="43.65002" lon="2.79435">
        <ele>775.92</ele>
        <time>2011-10-23T08:00:20Z</time>
      </trkpt>
      <trkpt lat="43.65012" lon="2.79425">
        <ele>775.44</ele>
        <time>2011-10-23T08:00:36Z</time>
      </trkpt>
      <trkpt lat="43.65015" lon="2.79419">
        <ele>774</ele>
        <time>2011-10-23T08:00:51Z</time>
      </trkpt>
      <trkpt lat="43.65016" lon="2.79419">
        <ele>774</ele>
        <time>2011-10-23T08:01:31Z</time>
      </trkpt>
      <trkpt lat="43.65015" lon="2.79419">
        <ele>773.52</ele>
        <time>2011-10-23T08:02:10Z</time>
      </trkpt>
      <trkpt lat="43.65007" lon="2.7942">
        <ele>773.04</ele>
        <time>2011-10-23T08:02:22Z</time>
      </trkpt>
      <trkpt lat="43.65008" lon="2.79423">
        <ele>773.52</ele>
        <time>2011-10-23T08:02:45Z</time>
      </trkpt>
      <trkpt lat="43.65008" lon="2.79422">
        <ele>773.04</ele>
        <time>2011-10-23T08:03:23Z</time>
      </trkpt>
      <trkpt lat="43.65007" lon="2.79422">
        <ele>773.04</ele>
        <time>2011-10-23T08:03:53Z</time>
      </trkpt>
      <trkpt lat="43.64997" lon="2.7942">
        <ele>774.96</ele>
        <time>2011-10-23T08:04:06Z</time>
      </trkpt>
      <trkpt lat="43.64991" lon="2.79419">
        <ele>775.92</ele>
        <time>2011-10-23T08:04:12Z</time>
      </trkpt>
      <trkpt lat="43.64982" lon="2.79421">
        <ele>775.44</ele>
        <time>2011-10-23T08:04:21Z</time>
      </trkpt>
      <trkpt lat="43.64975" lon="2.79422">
        <ele>774.96</ele>
        <time>2011-10-23T08:04:27Z</time>
      </trkpt>
      <trkpt lat="43.64964" lon="2.79421">
        <ele>775.92</ele>
        <time>2011-10-23T08:04:41Z</time>
      </trkpt>
      <trkpt lat="43.64952" lon="2.79418">
        <ele>774.48</ele>
        <time>2011-10-23T08:04:55Z</time>
      </trkpt>
      <trkpt lat="43.64942" lon="2.79423">
        <ele>775.44</ele>
        <time>2011-10-23T08:05:05Z</time>
      </trkpt>
      <trkpt lat="43.6493" lon="2.79434">
        <ele>776.88</ele>
        <time>2011-10-23T08:05:19Z</time>
      </trkpt>
      <trkpt lat="43.64924" lon="2.79445">
        <ele>777.84</ele>
        <time>2011-10-23T08:05:28Z</time>
      </trkpt>
      <trkpt lat="43.6492" lon="2.79466">
        <ele>776.88</ele>
        <time>2011-10-23T08:05:41Z</time>
      </trkpt>
      <trkpt lat="43.64919" lon="2.79473">
        <ele>775.92</ele>
        <time>2011-10-23T08:05:46Z</time>
      </trkpt>
      <trkpt lat="43.64913" lon="2.79489">
        <ele>775.44</ele>
        <time>2011-10-23T08:05:56Z</time>
      </trkpt>
      <trkpt lat="43.64899" lon="2.79489">
        <ele>775.92</ele>
        <time>2011-10-23T08:06:11Z</time>
      </trkpt>
      <trkpt lat="43.64897" lon="2.79486">
        <ele>776.4</ele>
        <time>2011-10-23T08:06:15Z</time>
      </trkpt>
      <trkpt lat="43.64893" lon="2.79482">
        <ele>776.4</ele>
        <time>2011-10-23T08:06:19Z</time>
      </trkpt>
      <trkpt lat="43.64891" lon="2.79479">
        <ele>776.4</ele>
        <time>2011-10-23T08:06:21Z</time>
      </trkpt>
      <trkpt lat="43.64888" lon="2.79474">
        <ele>776.4</ele>
        <time>2011-10-23T08:06:25Z</time>
      </trkpt>
      <trkpt lat="43.64875" lon="2.79453">
        <ele>778.32</ele>
        <time>2011-10-23T08:06:43Z</time>
      </trkpt>
      <trkpt lat="43.64865" lon="2.79444">
        <ele>780.25</ele>
        <time>2011-10-23T08:06:55Z</time>
      </trkpt>
      <trkpt lat="43.64857" lon="2.79442">
        <ele>782.65</ele>
        <time>2011-10-23T08:07:10Z</time>
      </trkpt>
      <trkpt lat="43.64852" lon="2.79436">
        <ele>785.53</ele>
        <time>2011-10-23T08:07:25Z</time>
      </trkpt>
      <trkpt lat="43.64852" lon="2.79435">
        <ele>786.02</ele>
        <time>2011-10-23T08:07:41Z</time>
      </trkpt>
      <trkpt lat="43.64855" lon="2.79422">
        <ele>784.09</ele>
        <time>2011-10-23T08:08:04Z</time>
      </trkpt>
      <trkpt lat="43.64858" lon="2.79413">
        <ele>783.13</ele>
        <time>2011-10-23T08:08:11Z</time>
      </trkpt>
      <trkpt lat="43.64854" lon="2.794">
        <ele>783.13</ele>
        <time>2011-10-23T08:08:22Z</time>
      </trkpt>
      <trkpt lat="43.64838" lon="2.79387">
        <ele>785.05</ele>
        <time>2011-10-23T08:08:40Z</time>
      </trkpt>
      <trkpt lat="43.6483" lon="2.79373">
        <ele>786.98</ele>
        <time>2011-10-23T08:08:55Z</time>
      </trkpt>
      <trkpt lat="43.64829" lon="2.79368">
        <ele>786.98</ele>
        <time>2011-10-23T08:08:59Z</time>
      </trkpt>
      <trkpt lat="43.64827" lon="2.79351">
        <ele>787.94</ele>
        <time>2011-10-23T08:09:08Z</time>
      </trkpt>
      <trkpt lat="43.64825" lon="2.79343">
        <ele>790.34</ele>
        <time>2011-10-23T08:09:14Z</time>
      </trkpt>
      <trkpt lat="43.64823" lon="2.79335">
        <ele>791.3</ele>
        <time>2011-10-23T08:09:20Z</time>
      </trkpt>
      <trkpt lat="43.64816" lon="2.79316">
        <ele>789.38</ele>
        <time>2011-10-23T08:09:36Z</time>
      </trkpt>
      <trkpt lat="43.64816" lon="2.79297">
        <ele>788.42</ele>
        <time>2011-10-23T08:09:48Z</time>
      </trkpt>
      <trkpt lat="43.64821" lon="2.79273">
        <ele>786.02</ele>
        <time>2011-10-23T08:10:02Z</time>
      </trkpt>
      <trkpt lat="43.64826" lon="2.79264">
        <ele>785.53</ele>
        <time>2011-10-23T08:10:09Z</time>
      </trkpt>
      <trkpt lat="43.64829" lon="2.79262">
        <ele>785.53</ele>
        <time>2011-10-23T08:10:11Z</time>
      </trkpt>
      <trkpt lat="43.64832" lon="2.79252">
        <ele>783.61</ele>
        <time>2011-10-23T08:10:18Z</time>
      </trkpt>
      <trkpt lat="43.6483" lon="2.79244">
        <ele>782.17</ele>
        <time>2011-10-23T08:10:22Z</time>
      </trkpt>
      <trkpt lat="43.6482" lon="2.79223">
        <ele>782.17</ele>
        <time>2011-10-23T08:10:34Z</time>
      </trkpt>
      <trkpt lat="43.64821" lon="2.79215">
        <ele>781.69</ele>
        <time>2011-10-23T08:10:40Z</time>
      </trkpt>
      <trkpt lat="43.64824" lon="2.79206">
        <ele>781.69</ele>
        <time>2011-10-23T08:10:46Z</time>
      </trkpt>
      <trkpt lat="43.64819" lon="2.79197">
        <ele>781.21</ele>
        <time>2011-10-23T08:10:53Z</time>
      </trkpt>
      <trkpt lat="43.64812" lon="2.79187">
        <ele>780.73</ele>
        <time>2011-10-23T08:11:01Z</time>
      </trkpt>
      <trkpt lat="43.64803" lon="2.79165">
        <ele>779.77</ele>
        <time>2011-10-23T08:11:16Z</time>
      </trkpt>
      <trkpt lat="43.64803" lon="2.79148">
        <ele>779.29</ele>
        <time>2011-10-23T08:11:32Z</time>
      </trkpt>
      <trkpt lat="43.64799" lon="2.7913">
        <ele>782.65</ele>
        <time>2011-10-23T08:11:50Z</time>
      </trkpt>
      <trkpt lat="43.648" lon="2.79122">
        <ele>783.61</ele>
        <time>2011-10-23T08:11:57Z</time>
      </trkpt>
      <trkpt lat="43.64795" lon="2.79106">
        <ele>784.09</ele>
        <time>2011-10-23T08:12:12Z</time>
      </trkpt>
      <trkpt lat="43.64795" lon="2.79096">
        <ele>784.09</ele>
        <time>2011-10-23T08:12:24Z</time>
      </trkpt>
      <trkpt lat="43.64797" lon="2.79091">
        <ele>785.05</ele>
        <time>2011-10-23T08:12:27Z</time>
      </trkpt>
      <trkpt lat="43.64803" lon="2.79083">
        <ele>786.5</ele>
        <time>2011-10-23T08:12:36Z</time>
      </trkpt>
      <trkpt lat="43.64808" lon="2.79071">
        <ele>788.42</ele>
        <time>2011-10-23T08:12:46Z</time>
      </trkpt>
      <trkpt lat="43.64814" lon="2.79057">
        <ele>790.34</ele>
        <time>2011-10-23T08:13:00Z</time>
      </trkpt>
      <trkpt lat="43.64815" lon="2.7905">
        <ele>790.82</ele>
        <time>2011-10-23T08:13:06Z</time>
      </trkpt>
      <trkpt lat="43.64822" lon="2.79035">
        <ele>791.3</ele>
        <time>2011-10-23T08:13:20Z</time>
      </trkpt>
      <trkpt lat="43.64823" lon="2.79014">
        <ele>792.26</ele>
        <time>2011-10-23T08:13:35Z</time>
      </trkpt>
      <trkpt lat="43.64823" lon="2.79009">
        <ele>793.22</ele>
        <time>2011-10-23T08:13:41Z</time>
      </trkpt>
      <trkpt lat="43.64821" lon="2.7901">
        <ele>792.74</ele>
        <time>2011-10-23T08:13:59Z</time>
      </trkpt>
      <trkpt lat="43.64821" lon="2.79013">
        <ele>794.19</ele>
        <time>2011-10-23T08:14:12Z</time>
      </trkpt>
      <trkpt lat="43.6482" lon="2.79014">
        <ele>795.15</ele>
        <time>2011-10-23T08:14:50Z</time>
      </trkpt>
      <trkpt lat="43.64821" lon="2.79013">
        <ele>794.67</ele>
        <time>2011-10-23T08:15:17Z</time>
      </trkpt>
      <trkpt lat="43.6482" lon="2.7902">
        <ele>796.11</ele>
        <time>2011-10-23T08:15:32Z</time>
      </trkpt>
      <trkpt lat="43.6482" lon="2.79016">
        <ele>796.11</ele>
        <time>2011-10-23T08:15:47Z</time>
      </trkpt>
      <trkpt lat="43.64821" lon="2.79004">
        <ele>794.67</ele>
        <time>2011-10-23T08:16:01Z</time>
      </trkpt>
      <trkpt lat="43.64819" lon="2.78984">
        <ele>794.67</ele>
        <time>2011-10-23T08:16:15Z</time>
      </trkpt>
      <trkpt lat="43.64816" lon="2.78963">
        <ele>790.82</ele>
        <time>2011-10-23T08:16:30Z</time>
      </trkpt>
      <trkpt lat="43.64818" lon="2.78942">
        <ele>789.38</ele>
        <time>2011-10-23T08:16:43Z</time>
      </trkpt>
      <trkpt lat="43.64815" lon="2.78934">
        <ele>786.98</ele>
        <time>2011-10-23T08:16:57Z</time>
      </trkpt>
      <trkpt lat="43.64815" lon="2.78928">
        <ele>786.5</ele>
        <time>2011-10-23T08:17:18Z</time>
      </trkpt>
      <trkpt lat="43.64817" lon="2.78912">
        <ele>786.98</ele>
        <time>2011-10-23T08:17:27Z</time>
      </trkpt>
      <trkpt lat="43.64817" lon="2.78906">
        <ele>785.53</ele>
        <time>2011-10-23T08:17:30Z</time>
      </trkpt>
      <trkpt lat="43.64821" lon="2.78897">
        <ele>784.57</ele>
        <time>2011-10-23T08:17:48Z</time>
      </trkpt>
      <trkpt lat="43.64819" lon="2.78893">
        <ele>784.57</ele>
        <time>2011-10-23T08:17:53Z</time>
      </trkpt>
      <trkpt lat="43.64813" lon="2.78873">
        <ele>781.69</ele>
        <time>2011-10-23T08:18:07Z</time>
      </trkpt>
      <trkpt lat="43.64811" lon="2.78868">
        <ele>779.77</ele>
        <time>2011-10-23T08:18:34Z</time>
      </trkpt>
      <trkpt lat="43.64802" lon="2.78839">
        <ele>773.52</ele>
        <time>2011-10-23T08:18:50Z</time>
      </trkpt>
      <trkpt lat="43.64795" lon="2.78816">
        <ele>771.6</ele>
        <time>2011-10-23T08:19:04Z</time>
      </trkpt>
      <trkpt lat="43.64786" lon="2.78792">
        <ele>770.15</ele>
        <time>2011-10-23T08:19:20Z</time>
      </trkpt>
      <trkpt lat="43.64778" lon="2.78768">
        <ele>771.11</ele>
        <time>2011-10-23T08:19:34Z</time>
      </trkpt>
      <trkpt lat="43.6477" lon="2.78752">
        <ele>771.6</ele>
        <time>2011-10-23T08:19:47Z</time>
      </trkpt>
      <trkpt lat="43.64757" lon="2.78741">
        <ele>774</ele>
        <time>2011-10-23T08:20:01Z</time>
      </trkpt>
      <trkpt lat="43.64755" lon="2.78739">
        <ele>774</ele>
        <time>2011-10-23T08:20:03Z</time>
      </trkpt>
      <trkpt lat="43.64743" lon="2.7873">
        <ele>775.44</ele>
        <time>2011-10-23T08:20:16Z</time>
      </trkpt>
      <trkpt lat="43.64741" lon="2.78728">
        <ele>775.92</ele>
        <time>2011-10-23T08:20:18Z</time>
      </trkpt>
      <trkpt lat="43.64729" lon="2.78708">
        <ele>777.36</ele>
        <time>2011-10-23T08:20:33Z</time>
      </trkpt>
      <trkpt lat="43.64719" lon="2.7869">
        <ele>777.36</ele>
        <time>2011-10-23T08:20:47Z</time>
      </trkpt>
      <trkpt lat="43.64711" lon="2.78677">
        <ele>779.29</ele>
        <time>2011-10-23T08:20:57Z</time>
      </trkpt>
      <trkpt lat="43.64705" lon="2.7867">
        <ele>779.77</ele>
        <time>2011-10-23T08:21:05Z</time>
      </trkpt>
      <trkpt lat="43.647" lon="2.78667">
        <ele>778.81</ele>
        <time>2011-10-23T08:21:10Z</time>
      </trkpt>
      <trkpt lat="43.64689" lon="2.78652">
        <ele>774.96</ele>
        <time>2011-10-23T08:21:25Z</time>
      </trkpt>
      <trkpt lat="43.64683" lon="2.78645">
        <ele>773.04</ele>
        <time>2011-10-23T08:21:32Z</time>
      </trkpt>
      <trkpt lat="43.6467" lon="2.78633">
        <ele>768.23</ele>
        <time>2011-10-23T08:21:47Z</time>
      </trkpt>
      <trkpt lat="43.64668" lon="2.7863">
        <ele>769.19</ele>
        <time>2011-10-23T08:21:50Z</time>
      </trkpt>
      <trkpt lat="43.64665" lon="2.78628">
        <ele>769.67</ele>
        <time>2011-10-23T08:21:53Z</time>
      </trkpt>
      <trkpt lat="43.64652" lon="2.78619">
        <ele>771.6</ele>
        <time>2011-10-23T08:22:09Z</time>
      </trkpt>
      <trkpt lat="43.64647" lon="2.78618">
        <ele>772.08</ele>
        <time>2011-10-23T08:22:13Z</time>
      </trkpt>
      <trkpt lat="43.6463" lon="2.78618">
        <ele>777.84</ele>
        <time>2011-10-23T08:22:29Z</time>
      </trkpt>
      <trkpt lat="43.64617" lon="2.78622">
        <ele>781.69</ele>
        <time>2011-10-23T08:22:43Z</time>
      </trkpt>
      <trkpt lat="43.64611" lon="2.78619">
        <ele>784.57</ele>
        <time>2011-10-23T08:22:51Z</time>
      </trkpt>
      <trkpt lat="43.64609" lon="2.78616">
        <ele>785.05</ele>
        <time>2011-10-23T08:22:54Z</time>
      </trkpt>
      <trkpt lat="43.646" lon="2.78593">
        <ele>789.38</ele>
        <time>2011-10-23T08:23:10Z</time>
      </trkpt>
      <trkpt lat="43.64593" lon="2.78582">
        <ele>788.9</ele>
        <time>2011-10-23T08:23:19Z</time>
      </trkpt>
      <trkpt lat="43.64587" lon="2.78559">
        <ele>790.34</ele>
        <time>2011-10-23T08:23:36Z</time>
      </trkpt>
      <trkpt lat="43.64582" lon="2.78541">
        <ele>789.86</ele>
        <time>2011-10-23T08:23:50Z</time>
      </trkpt>
      <trkpt lat="43.64577" lon="2.78518">
        <ele>790.82</ele>
        <time>2011-10-23T08:24:04Z</time>
      </trkpt>
      <trkpt lat="43.64571" lon="2.78494">
        <ele>790.82</ele>
        <time>2011-10-23T08:24:20Z</time>
      </trkpt>
      <trkpt lat="43.64567" lon="2.78475">
        <ele>787.94</ele>
        <time>2011-10-23T08:24:33Z</time>
      </trkpt>
      <trkpt lat="43.6456" lon="2.78453">
        <ele>787.94</ele>
        <time>2011-10-23T08:24:47Z</time>
      </trkpt>
      <trkpt lat="43.64558" lon="2.7845">
        <ele>787.94</ele>
        <time>2011-10-23T08:24:49Z</time>
      </trkpt>
      <trkpt lat="43.64557" lon="2.78446">
        <ele>786.5</ele>
        <time>2011-10-23T08:24:52Z</time>
      </trkpt>
      <trkpt lat="43.64552" lon="2.78434">
        <ele>785.53</ele>
        <time>2011-10-23T08:25:01Z</time>
      </trkpt>
      <trkpt lat="43.6455" lon="2.78408">
        <ele>783.13</ele>
        <time>2011-10-23T08:25:18Z</time>
      </trkpt>
      <trkpt lat="43.64546" lon="2.78387">
        <ele>784.09</ele>
        <time>2011-10-23T08:25:32Z</time>
      </trkpt>
      <trkpt lat="43.64545" lon="2.78383">
        <ele>784.09</ele>
        <time>2011-10-23T08:25:35Z</time>
      </trkpt>
      <trkpt lat="43.64537" lon="2.78367">
        <ele>785.05</ele>
        <time>2011-10-23T08:25:49Z</time>
      </trkpt>
      <trkpt lat="43.64536" lon="2.78364">
        <ele>785.05</ele>
        <time>2011-10-23T08:25:51Z</time>
      </trkpt>
      <trkpt lat="43.64534" lon="2.78361">
        <ele>786.02</ele>
        <time>2011-10-23T08:25:54Z</time>
      </trkpt>
      <trkpt lat="43.6453" lon="2.78344">
        <ele>788.9</ele>
        <time>2011-10-23T08:26:04Z</time>
      </trkpt>
      <trkpt lat="43.64523" lon="2.78327">
        <ele>789.38</ele>
        <time>2011-10-23T08:26:16Z</time>
      </trkpt>
      <trkpt lat="43.64523" lon="2.78323">
        <ele>789.38</ele>
        <time>2011-10-23T08:26:18Z</time>
      </trkpt>
      <trkpt lat="43.6452" lon="2.78302">
        <ele>791.78</ele>
        <time>2011-10-23T08:26:31Z</time>
      </trkpt>
      <trkpt lat="43.64514" lon="2.78289">
        <ele>791.78</ele>
        <time>2011-10-23T08:26:40Z</time>
      </trkpt>
      <trkpt lat="43.64514" lon="2.78286">
        <ele>791.78</ele>
        <time>2011-10-23T08:26:42Z</time>
      </trkpt>
      <trkpt lat="43.64506" lon="2.7827">
        <ele>789.38</ele>
        <time>2011-10-23T08:26:54Z</time>
      </trkpt>
      <trkpt lat="43.64503" lon="2.78267">
        <ele>788.42</ele>
        <time>2011-10-23T08:26:57Z</time>
      </trkpt>
      <trkpt lat="43.64495" lon="2.78254">
        <ele>786.5</ele>
        <time>2011-10-23T08:27:13Z</time>
      </trkpt>
      <trkpt lat="43.64495" lon="2.78253">
        <ele>786.5</ele>
        <time>2011-10-23T08:27:46Z</time>
      </trkpt>
      <trkpt lat="43.64495" lon="2.78253">
        <ele>786.98</ele>
        <time>2011-10-23T08:28:10Z</time>
      </trkpt>
      <trkpt lat="43.64488" lon="2.78247">
        <ele>787.94</ele>
        <time>2011-10-23T08:28:19Z</time>
      </trkpt>
      <trkpt lat="43.64478" lon="2.78233">
        <ele>790.34</ele>
        <time>2011-10-23T08:28:33Z</time>
      </trkpt>
      <trkpt lat="43.64469" lon="2.78225">
        <ele>792.26</ele>
        <time>2011-10-23T08:28:47Z</time>
      </trkpt>
      <trkpt lat="43.64466" lon="2.78222">
        <ele>792.74</ele>
        <time>2011-10-23T08:28:51Z</time>
      </trkpt>
      <trkpt lat="43.64464" lon="2.78221">
        <ele>792.74</ele>
        <time>2011-10-23T08:28:53Z</time>
      </trkpt>
      <trkpt lat="43.64462" lon="2.78219">
        <ele>793.22</ele>
        <time>2011-10-23T08:28:55Z</time>
      </trkpt>
      <trkpt lat="43.64451" lon="2.78216">
        <ele>794.19</ele>
        <time>2011-10-23T08:29:07Z</time>
      </trkpt>
      <trkpt lat="43.64447" lon="2.78216">
        <ele>793.71</ele>
        <time>2011-10-23T08:29:11Z</time>
      </trkpt>
      <trkpt lat="43.64445" lon="2.78217">
        <ele>793.71</ele>
        <time>2011-10-23T08:29:14Z</time>
      </trkpt>
      <trkpt lat="43.64426" lon="2.78221">
        <ele>794.19</ele>
        <time>2011-10-23T08:29:30Z</time>
      </trkpt>
      <trkpt lat="43.64415" lon="2.78229">
        <ele>798.99</ele>
        <time>2011-10-23T08:29:45Z</time>
      </trkpt>
      <trkpt lat="43.64411" lon="2.78235">
        <ele>802.36</ele>
        <time>2011-10-23T08:29:53Z</time>
      </trkpt>
      <trkpt lat="43.644" lon="2.78241">
        <ele>803.8</ele>
        <time>2011-10-23T08:30:09Z</time>
      </trkpt>
      <trkpt lat="43.64399" lon="2.7824">
        <ele>803.8</ele>
        <time>2011-10-23T08:30:10Z</time>
      </trkpt>
      <trkpt lat="43.64392" lon="2.78234">
        <ele>807.16</ele>
        <time>2011-10-23T08:30:27Z</time>
      </trkpt>
      <trkpt lat="43.64391" lon="2.78232">
        <ele>807.64</ele>
        <time>2011-10-23T08:30:41Z</time>
      </trkpt>
      <trkpt lat="43.64391" lon="2.78228">
        <ele>807.16</ele>
        <time>2011-10-23T08:30:46Z</time>
      </trkpt>
      <trkpt lat="43.6439" lon="2.78213">
        <ele>807.16</ele>
        <time>2011-10-23T08:30:55Z</time>
      </trkpt>
      <trkpt lat="43.64384" lon="2.7819">
        <ele>806.2</ele>
        <time>2011-10-23T08:31:09Z</time>
      </trkpt>
      <trkpt lat="43.64385" lon="2.78184">
        <ele>806.68</ele>
        <time>2011-10-23T08:31:13Z</time>
      </trkpt>
      <trkpt lat="43.64382" lon="2.78156">
        <ele>803.32</ele>
        <time>2011-10-23T08:31:28Z</time>
      </trkpt>
      <trkpt lat="43.64372" lon="2.78133">
        <ele>798.51</ele>
        <time>2011-10-23T08:31:44Z</time>
      </trkpt>
      <trkpt lat="43.64366" lon="2.78117">
        <ele>800.44</ele>
        <time>2011-10-23T08:31:55Z</time>
      </trkpt>
      <trkpt lat="43.64367" lon="2.78105">
        <ele>802.36</ele>
        <time>2011-10-23T08:32:06Z</time>
      </trkpt>
      <trkpt lat="43.64363" lon="2.78081">
        <ele>800.92</ele>
        <time>2011-10-23T08:32:20Z</time>
      </trkpt>
      <trkpt lat="43.64359" lon="2.78063">
        <ele>801.4</ele>
        <time>2011-10-23T08:32:31Z</time>
      </trkpt>
      <trkpt lat="43.64354" lon="2.78043">
        <ele>798.03</ele>
        <time>2011-10-23T08:32:45Z</time>
      </trkpt>
      <trkpt lat="43.64347" lon="2.78027">
        <ele>797.07</ele>
        <time>2011-10-23T08:32:59Z</time>
      </trkpt>
      <trkpt lat="43.64339" lon="2.78009">
        <ele>793.22</ele>
        <time>2011-10-23T08:33:14Z</time>
      </trkpt>
      <trkpt lat="43.64327" lon="2.77991">
        <ele>790.34</ele>
        <time>2011-10-23T08:33:31Z</time>
      </trkpt>
      <trkpt lat="43.64316" lon="2.7798">
        <ele>790.34</ele>
        <time>2011-10-23T08:33:45Z</time>
      </trkpt>
      <trkpt lat="43.64314" lon="2.77977">
        <ele>789.86</ele>
        <time>2011-10-23T08:34:05Z</time>
      </trkpt>
      <trkpt lat="43.64314" lon="2.77975">
        <ele>789.86</ele>
        <time>2011-10-23T08:34:11Z</time>
      </trkpt>
      <trkpt lat="43.64319" lon="2.77964">
        <ele>790.82</ele>
        <time>2011-10-23T08:34:20Z</time>
      </trkpt>
      <trkpt lat="43.64323" lon="2.7796">
        <ele>789.86</ele>
        <time>2011-10-23T08:34:24Z</time>
      </trkpt>
      <trkpt lat="43.64328" lon="2.77952">
        <ele>787.46</ele>
        <time>2011-10-23T08:34:32Z</time>
      </trkpt>
      <trkpt lat="43.64335" lon="2.77926">
        <ele>784.09</ele>
        <time>2011-10-23T08:34:48Z</time>
      </trkpt>
      <trkpt lat="43.64336" lon="2.77921">
        <ele>784.09</ele>
        <time>2011-10-23T08:34:51Z</time>
      </trkpt>
      <trkpt lat="43.64336" lon="2.7791">
        <ele>781.69</ele>
        <time>2011-10-23T08:34:59Z</time>
      </trkpt>
      <trkpt lat="43.64337" lon="2.77901">
        <ele>781.21</ele>
        <time>2011-10-23T08:35:05Z</time>
      </trkpt>
      <trkpt lat="43.64336" lon="2.77884">
        <ele>780.25</ele>
        <time>2011-10-23T08:35:16Z</time>
      </trkpt>
      <trkpt lat="43.64336" lon="2.77865">
        <ele>780.73</ele>
        <time>2011-10-23T08:35:31Z</time>
      </trkpt>
      <trkpt lat="43.64337" lon="2.77848">
        <ele>779.77</ele>
        <time>2011-10-23T08:35:42Z</time>
      </trkpt>
      <trkpt lat="43.64335" lon="2.77838">
        <ele>778.81</ele>
        <time>2011-10-23T08:35:49Z</time>
      </trkpt>
      <trkpt lat="43.64333" lon="2.77824">
        <ele>779.77</ele>
        <time>2011-10-23T08:35:58Z</time>
      </trkpt>
      <trkpt lat="43.6433" lon="2.77814">
        <ele>778.81</ele>
        <time>2011-10-23T08:36:04Z</time>
      </trkpt>
      <trkpt lat="43.64324" lon="2.77806">
        <ele>777.84</ele>
        <time>2011-10-23T08:36:15Z</time>
      </trkpt>
      <trkpt lat="43.64316" lon="2.77805">
        <ele>777.36</ele>
        <time>2011-10-23T08:36:22Z</time>
      </trkpt>
      <trkpt lat="43.643" lon="2.77816">
        <ele>776.4</ele>
        <time>2011-10-23T08:36:38Z</time>
      </trkpt>
      <trkpt lat="43.64294" lon="2.77821">
        <ele>776.4</ele>
        <time>2011-10-23T08:36:45Z</time>
      </trkpt>
      <trkpt lat="43.6429" lon="2.77831">
        <ele>776.4</ele>
        <time>2011-10-23T08:36:52Z</time>
      </trkpt>
      <trkpt lat="43.64278" lon="2.77844">
        <ele>775.92</ele>
        <time>2011-10-23T08:37:06Z</time>
      </trkpt>
      <trkpt lat="43.64268" lon="2.77853">
        <ele>775.92</ele>
        <time>2011-10-23T08:37:20Z</time>
      </trkpt>
      <trkpt lat="43.64267" lon="2.77851">
        <ele>776.88</ele>
        <time>2011-10-23T08:37:36Z</time>
      </trkpt>
      <trkpt lat="43.6427" lon="2.77849">
        <ele>777.36</ele>
        <time>2011-10-23T08:37:48Z</time>
      </trkpt>
      <trkpt lat="43.64269" lon="2.7785">
        <ele>776.4</ele>
        <time>2011-10-23T08:38:12Z</time>
      </trkpt>
      <trkpt lat="43.64252" lon="2.7787">
        <ele>775.44</ele>
        <time>2011-10-23T08:38:30Z</time>
      </trkpt>
      <trkpt lat="43.64236" lon="2.77878">
        <ele>775.44</ele>
        <time>2011-10-23T08:38:46Z</time>
      </trkpt>
      <trkpt lat="43.64235" lon="2.77877">
        <ele>775.44</ele>
        <time>2011-10-23T08:38:47Z</time>
      </trkpt>
      <trkpt lat="43.64226" lon="2.77869">
        <ele>775.44</ele>
        <time>2011-10-23T08:39:00Z</time>
      </trkpt>
      <trkpt lat="43.64218" lon="2.77861">
        <ele>774.96</ele>
        <time>2011-10-23T08:39:12Z</time>
      </trkpt>
      <trkpt lat="43.64203" lon="2.77847">
        <ele>773.52</ele>
        <time>2011-10-23T08:39:27Z</time>
      </trkpt>
      <trkpt lat="43.64183" lon="2.77847">
        <ele>773.04</ele>
        <time>2011-10-23T08:39:42Z</time>
      </trkpt>
      <trkpt lat="43.64166" lon="2.77848">
        <ele>774.48</ele>
        <time>2011-10-23T08:39:56Z</time>
      </trkpt>
      <trkpt lat="43.64148" lon="2.77849">
        <ele>774.48</ele>
        <time>2011-10-23T08:40:11Z</time>
      </trkpt>
      <trkpt lat="43.64126" lon="2.77853">
        <ele>773.52</ele>
        <time>2011-10-23T08:40:28Z</time>
      </trkpt>
      <trkpt lat="43.6411" lon="2.77851">
        <ele>772.08</ele>
        <time>2011-10-23T08:40:42Z</time>
      </trkpt>
      <trkpt lat="43.64105" lon="2.77853">
        <ele>772.08</ele>
        <time>2011-10-23T08:40:46Z</time>
      </trkpt>
      <trkpt lat="43.64086" lon="2.77857">
        <ele>774</ele>
        <time>2011-10-23T08:41:01Z</time>
      </trkpt>
      <trkpt lat="43.64069" lon="2.77868">
        <ele>775.92</ele>
        <time>2011-10-23T08:41:16Z</time>
      </trkpt>
      <trkpt lat="43.64054" lon="2.77865">
        <ele>775.92</ele>
        <time>2011-10-23T08:41:30Z</time>
      </trkpt>
      <trkpt lat="43.64037" lon="2.77854">
        <ele>775.92</ele>
        <time>2011-10-23T08:41:44Z</time>
      </trkpt>
      <trkpt lat="43.64033" lon="2.77851">
        <ele>776.88</ele>
        <time>2011-10-23T08:41:48Z</time>
      </trkpt>
      <trkpt lat="43.64023" lon="2.7783">
        <ele>777.84</ele>
        <time>2011-10-23T08:42:04Z</time>
      </trkpt>
      <trkpt lat="43.64021" lon="2.77828">
        <ele>777.84</ele>
        <time>2011-10-23T08:42:06Z</time>
      </trkpt>
      <trkpt lat="43.64011" lon="2.7782">
        <ele>778.81</ele>
        <time>2011-10-23T08:42:22Z</time>
      </trkpt>
      <trkpt lat="43.64007" lon="2.7782">
        <ele>778.32</ele>
        <time>2011-10-23T08:42:48Z</time>
      </trkpt>
      <trkpt lat="43.64005" lon="2.7782">
        <ele>778.32</ele>
        <time>2011-10-23T08:43:25Z</time>
      </trkpt>
      <trkpt lat="43.63999" lon="2.77817">
        <ele>778.81</ele>
        <time>2011-10-23T08:43:44Z</time>
      </trkpt>
      <trkpt lat="43.63998" lon="2.77818">
        <ele>778.81</ele>
        <time>2011-10-23T08:44:25Z</time>
      </trkpt>
      <trkpt lat="43.63996" lon="2.77817">
        <ele>777.84</ele>
        <time>2011-10-23T08:45:22Z</time>
      </trkpt>
      <trkpt lat="43.63992" lon="2.77816">
        <ele>777.36</ele>
        <time>2011-10-23T08:46:18Z</time>
      </trkpt>
      <trkpt lat="43.63974" lon="2.7782">
        <ele>776.88</ele>
        <time>2011-10-23T08:46:34Z</time>
      </trkpt>
      <trkpt lat="43.63957" lon="2.77833">
        <ele>775.92</ele>
        <time>2011-10-23T08:46:49Z</time>
      </trkpt>
      <trkpt lat="43.63944" lon="2.77845">
        <ele>776.4</ele>
        <time>2011-10-23T08:47:04Z</time>
      </trkpt>
      <trkpt lat="43.6394" lon="2.77848">
        <ele>777.36</ele>
        <time>2011-10-23T08:47:08Z</time>
      </trkpt>
      <trkpt lat="43.63932" lon="2.7785">
        <ele>779.29</ele>
        <time>2011-10-23T08:47:19Z</time>
      </trkpt>
      <trkpt lat="43.63917" lon="2.77833">
        <ele>779.77</ele>
        <time>2011-10-23T08:47:36Z</time>
      </trkpt>
      <trkpt lat="43.6391" lon="2.77826">
        <ele>778.81</ele>
        <time>2011-10-23T08:47:43Z</time>
      </trkpt>
      <trkpt lat="43.63893" lon="2.77809">
        <ele>776.4</ele>
        <time>2011-10-23T08:48:01Z</time>
      </trkpt>
      <trkpt lat="43.6388" lon="2.77794">
        <ele>775.44</ele>
        <time>2011-10-23T08:48:15Z</time>
      </trkpt>
      <trkpt lat="43.63865" lon="2.77781">
        <ele>775.44</ele>
        <time>2011-10-23T08:48:30Z</time>
      </trkpt>
      <trkpt lat="43.6386" lon="2.7778">
        <ele>774.96</ele>
        <time>2011-10-23T08:48:45Z</time>
      </trkpt>
      <trkpt lat="43.6385" lon="2.7778">
        <ele>774.96</ele>
        <time>2011-10-23T08:49:10Z</time>
      </trkpt>
      <trkpt lat="43.63841" lon="2.77777">
        <ele>776.4</ele>
        <time>2011-10-23T08:49:19Z</time>
      </trkpt>
      <trkpt lat="43.63837" lon="2.77776">
        <ele>777.36</ele>
        <time>2011-10-23T08:49:29Z</time>
      </trkpt>
      <trkpt lat="43.63835" lon="2.77775">
        <ele>777.36</ele>
        <time>2011-10-23T08:49:32Z</time>
      </trkpt>
      <trkpt lat="43.6383" lon="2.77772">
        <ele>778.32</ele>
        <time>2011-10-23T08:49:37Z</time>
      </trkpt>
      <trkpt lat="43.63809" lon="2.7776">
        <ele>778.32</ele>
        <time>2011-10-23T08:49:54Z</time>
      </trkpt>
      <trkpt lat="43.63797" lon="2.77757">
        <ele>778.81</ele>
        <time>2011-10-23T08:50:04Z</time>
      </trkpt>
      <trkpt lat="43.63773" lon="2.77764">
        <ele>777.36</ele>
        <time>2011-10-23T08:50:22Z</time>
      </trkpt>
      <trkpt lat="43.63754" lon="2.77755">
        <ele>777.84</ele>
        <time>2011-10-23T08:50:37Z</time>
      </trkpt>
      <trkpt lat="43.63737" lon="2.77747">
        <ele>776.4</ele>
        <time>2011-10-23T08:50:52Z</time>
      </trkpt>
      <trkpt lat="43.63718" lon="2.77737">
        <ele>776.4</ele>
        <time>2011-10-23T08:51:08Z</time>
      </trkpt>
      <trkpt lat="43.637" lon="2.77722">
        <ele>776.4</ele>
        <time>2011-10-23T08:51:24Z</time>
      </trkpt>
      <trkpt lat="43.63686" lon="2.77704">
        <ele>776.88</ele>
        <time>2011-10-23T08:51:40Z</time>
      </trkpt>
      <trkpt lat="43.63685" lon="2.77701">
        <ele>776.88</ele>
        <time>2011-10-23T08:51:42Z</time>
      </trkpt>
      <trkpt lat="43.63668" lon="2.77683">
        <ele>777.36</ele>
        <time>2011-10-23T08:51:59Z</time>
      </trkpt>
      <trkpt lat="43.63666" lon="2.77682">
        <ele>777.36</ele>
        <time>2011-10-23T08:52:01Z</time>
      </trkpt>
      <trkpt lat="43.63651" lon="2.77664">
        <ele>776.4</ele>
        <time>2011-10-23T08:52:18Z</time>
      </trkpt>
      <trkpt lat="43.63644" lon="2.77658">
        <ele>776.88</ele>
        <time>2011-10-23T08:52:24Z</time>
      </trkpt>
      <trkpt lat="43.63632" lon="2.77638">
        <ele>776.4</ele>
        <time>2011-10-23T08:52:40Z</time>
      </trkpt>
      <trkpt lat="43.63618" lon="2.77618">
        <ele>775.44</ele>
        <time>2011-10-23T08:52:56Z</time>
      </trkpt>
      <trkpt lat="43.63605" lon="2.77598">
        <ele>775.44</ele>
        <time>2011-10-23T08:53:12Z</time>
      </trkpt>
      <trkpt lat="43.63584" lon="2.77584">
        <ele>775.44</ele>
        <time>2011-10-23T08:53:30Z</time>
      </trkpt>
      <trkpt lat="43.63565" lon="2.77572">
        <ele>778.81</ele>
        <time>2011-10-23T08:53:45Z</time>
      </trkpt>
      <trkpt lat="43.63548" lon="2.77567">
        <ele>782.17</ele>
        <time>2011-10-23T08:53:58Z</time>
      </trkpt>
      <trkpt lat="43.63528" lon="2.77565">
        <ele>785.05</ele>
        <time>2011-10-23T08:54:12Z</time>
      </trkpt>
      <trkpt lat="43.63527" lon="2.77564">
        <ele>785.05</ele>
        <time>2011-10-23T08:54:13Z</time>
      </trkpt>
      <trkpt lat="43.63525" lon="2.77564">
        <ele>786.02</ele>
        <time>2011-10-23T08:54:16Z</time>
      </trkpt>
      <trkpt lat="43.63508" lon="2.77552">
        <ele>785.53</ele>
        <time>2011-10-23T08:54:31Z</time>
      </trkpt>
      <trkpt lat="43.63488" lon="2.7754">
        <ele>787.46</ele>
        <time>2011-10-23T08:54:48Z</time>
      </trkpt>
      <trkpt lat="43.63474" lon="2.77532">
        <ele>784.09</ele>
        <time>2011-10-23T08:55:02Z</time>
      </trkpt>
      <trkpt lat="43.63465" lon="2.77511">
        <ele>779.77</ele>
        <time>2011-10-23T08:55:19Z</time>
      </trkpt>
      <trkpt lat="43.63452" lon="2.77501">
        <ele>778.81</ele>
        <time>2011-10-23T08:55:31Z</time>
      </trkpt>
      <trkpt lat="43.63445" lon="2.77493">
        <ele>778.32</ele>
        <time>2011-10-23T08:55:39Z</time>
      </trkpt>
      <trkpt lat="43.63442" lon="2.7749">
        <ele>778.32</ele>
        <time>2011-10-23T08:55:42Z</time>
      </trkpt>
      <trkpt lat="43.63437" lon="2.77483">
        <ele>778.32</ele>
        <time>2011-10-23T08:55:49Z</time>
      </trkpt>
      <trkpt lat="43.63432" lon="2.77476">
        <ele>777.84</ele>
        <time>2011-10-23T08:55:55Z</time>
      </trkpt>
      <trkpt lat="43.63431" lon="2.77475">
        <ele>777.84</ele>
        <time>2011-10-23T08:55:57Z</time>
      </trkpt>
      <trkpt lat="43.6343" lon="2.77456">
        <ele>777.36</ele>
        <time>2011-10-23T08:56:12Z</time>
      </trkpt>
      <trkpt lat="43.6343" lon="2.77455">
        <ele>777.36</ele>
        <time>2011-10-23T08:56:19Z</time>
      </trkpt>
      <trkpt lat="43.63431" lon="2.77431">
        <ele>777.36</ele>
        <time>2011-10-23T08:56:35Z</time>
      </trkpt>
      <trkpt lat="43.63428" lon="2.7741">
        <ele>776.88</ele>
        <time>2011-10-23T08:56:50Z</time>
      </trkpt>
      <trkpt lat="43.63423" lon="2.77406">
        <ele>775.44</ele>
        <time>2011-10-23T08:57:04Z</time>
      </trkpt>
      <trkpt lat="43.63413" lon="2.77409">
        <ele>775.92</ele>
        <time>2011-10-23T08:57:20Z</time>
      </trkpt>
      <trkpt lat="43.63408" lon="2.77413">
        <ele>776.4</ele>
        <time>2011-10-23T08:57:28Z</time>
      </trkpt>
      <trkpt lat="43.63405" lon="2.77413">
        <ele>777.36</ele>
        <time>2011-10-23T08:57:36Z</time>
      </trkpt>
      <trkpt lat="43.63402" lon="2.77415">
        <ele>777.84</ele>
        <time>2011-10-23T08:57:39Z</time>
      </trkpt>
      <trkpt lat="43.63393" lon="2.77421">
        <ele>777.36</ele>
        <time>2011-10-23T08:57:56Z</time>
      </trkpt>
      <trkpt lat="43.63384" lon="2.77423">
        <ele>778.81</ele>
        <time>2011-10-23T08:58:01Z</time>
      </trkpt>
      <trkpt lat="43.63378" lon="2.77423">
        <ele>779.77</ele>
        <time>2011-10-23T08:58:05Z</time>
      </trkpt>
      <trkpt lat="43.63372" lon="2.77419">
        <ele>780.25</ele>
        <time>2011-10-23T08:58:16Z</time>
      </trkpt>
      <trkpt lat="43.63369" lon="2.77399">
        <ele>784.09</ele>
        <time>2011-10-23T08:58:31Z</time>
      </trkpt>
      <trkpt lat="43.63363" lon="2.77376">
        <ele>786.02</ele>
        <time>2011-10-23T08:58:46Z</time>
      </trkpt>
      <trkpt lat="43.63357" lon="2.77352">
        <ele>781.21</ele>
        <time>2011-10-23T08:59:01Z</time>
      </trkpt>
      <trkpt lat="43.63352" lon="2.77326">
        <ele>778.81</ele>
        <time>2011-10-23T08:59:18Z</time>
      </trkpt>
      <trkpt lat="43.6335" lon="2.77313">
        <ele>779.29</ele>
        <time>2011-10-23T08:59:24Z</time>
      </trkpt>
      <trkpt lat="43.63347" lon="2.77294">
        <ele>780.73</ele>
        <time>2011-10-23T08:59:35Z</time>
      </trkpt>
      <trkpt lat="43.63347" lon="2.77288">
        <ele>781.21</ele>
        <time>2011-10-23T08:59:39Z</time>
      </trkpt>
      <trkpt lat="43.63345" lon="2.77283">
        <ele>781.69</ele>
        <time>2011-10-23T08:59:42Z</time>
      </trkpt>
      <trkpt lat="43.63341" lon="2.77259">
        <ele>780.73</ele>
        <time>2011-10-23T08:59:58Z</time>
      </trkpt>
      <trkpt lat="43.63339" lon="2.77231">
        <ele>783.61</ele>
        <time>2011-10-23T09:00:14Z</time>
      </trkpt>
      <trkpt lat="43.63338" lon="2.77207">
        <ele>782.65</ele>
        <time>2011-10-23T09:00:29Z</time>
      </trkpt>
      <trkpt lat="43.63335" lon="2.7718">
        <ele>781.69</ele>
        <time>2011-10-23T09:00:45Z</time>
      </trkpt>
      <trkpt lat="43.63332" lon="2.77151">
        <ele>779.29</ele>
        <time>2011-10-23T09:01:02Z</time>
      </trkpt>
      <trkpt lat="43.6333" lon="2.77136">
        <ele>779.77</ele>
        <time>2011-10-23T09:01:11Z</time>
      </trkpt>
      <trkpt lat="43.6333" lon="2.77114">
        <ele>780.73</ele>
        <time>2011-10-23T09:01:25Z</time>
      </trkpt>
      <trkpt lat="43.63329" lon="2.77111">
        <ele>780.73</ele>
        <time>2011-10-23T09:01:27Z</time>
      </trkpt>
      <trkpt lat="43.63321" lon="2.77086">
        <ele>782.17</ele>
        <time>2011-10-23T09:01:43Z</time>
      </trkpt>
      <trkpt lat="43.6331" lon="2.7707">
        <ele>783.61</ele>
        <time>2011-10-23T09:01:56Z</time>
      </trkpt>
      <trkpt lat="43.63306" lon="2.77051">
        <ele>781.21</ele>
        <time>2011-10-23T09:02:09Z</time>
      </trkpt>
      <trkpt lat="43.63302" lon="2.77024">
        <ele>777.84</ele>
        <time>2011-10-23T09:02:23Z</time>
      </trkpt>
      <trkpt lat="43.63311" lon="2.77002">
        <ele>776.4</ele>
        <time>2011-10-23T09:02:40Z</time>
      </trkpt>
      <trkpt lat="43.63326" lon="2.76985">
        <ele>776.88</ele>
        <time>2011-10-23T09:02:57Z</time>
      </trkpt>
      <trkpt lat="43.63335" lon="2.76976">
        <ele>778.81</ele>
        <time>2011-10-23T09:03:13Z</time>
      </trkpt>
      <trkpt lat="43.6335" lon="2.76966">
        <ele>778.32</ele>
        <time>2011-10-23T09:03:27Z</time>
      </trkpt>
      <trkpt lat="43.63365" lon="2.76958">
        <ele>777.36</ele>
        <time>2011-10-23T09:03:40Z</time>
      </trkpt>
      <trkpt lat="43.63381" lon="2.76945">
        <ele>776.4</ele>
        <time>2011-10-23T09:03:55Z</time>
      </trkpt>
      <trkpt lat="43.63399" lon="2.76925">
        <ele>777.84</ele>
        <time>2011-10-23T09:04:12Z</time>
      </trkpt>
      <trkpt lat="43.63412" lon="2.76911">
        <ele>776.88</ele>
        <time>2011-10-23T09:04:25Z</time>
      </trkpt>
      <trkpt lat="43.63419" lon="2.76906">
        <ele>777.36</ele>
        <time>2011-10-23T09:04:32Z</time>
      </trkpt>
      <trkpt lat="43.63423" lon="2.76903">
        <ele>777.84</ele>
        <time>2011-10-23T09:04:44Z</time>
      </trkpt>
      <trkpt lat="43.63432" lon="2.76895">
        <ele>777.84</ele>
        <time>2011-10-23T09:05:05Z</time>
      </trkpt>
      <trkpt lat="43.63441" lon="2.76886">
        <ele>777.84</ele>
        <time>2011-10-23T09:05:19Z</time>
      </trkpt>
      <trkpt lat="43.63447" lon="2.76871">
        <ele>777.36</ele>
        <time>2011-10-23T09:05:30Z</time>
      </trkpt>
      <trkpt lat="43.63447" lon="2.76868">
        <ele>777.36</ele>
        <time>2011-10-23T09:05:32Z</time>
      </trkpt>
      <trkpt lat="43.63449" lon="2.76859">
        <ele>777.36</ele>
        <time>2011-10-23T09:05:38Z</time>
      </trkpt>
      <trkpt lat="43.6345" lon="2.76838">
        <ele>777.84</ele>
        <time>2011-10-23T09:05:53Z</time>
      </trkpt>
      <trkpt lat="43.63456" lon="2.76825">
        <ele>778.81</ele>
        <time>2011-10-23T09:06:07Z</time>
      </trkpt>
      <trkpt lat="43.63459" lon="2.76822">
        <ele>780.73</ele>
        <time>2011-10-23T09:06:11Z</time>
      </trkpt>
      <trkpt lat="43.63463" lon="2.76816">
        <ele>782.17</ele>
        <time>2011-10-23T09:06:18Z</time>
      </trkpt>
      <trkpt lat="43.63463" lon="2.76811">
        <ele>783.61</ele>
        <time>2011-10-23T09:06:32Z</time>
      </trkpt>
      <trkpt lat="43.63466" lon="2.76802">
        <ele>784.09</ele>
        <time>2011-10-23T09:07:15Z</time>
      </trkpt>
      <trkpt lat="43.63469" lon="2.76797">
        <ele>785.05</ele>
        <time>2011-10-23T09:07:21Z</time>
      </trkpt>
      <trkpt lat="43.63473" lon="2.76795">
        <ele>785.05</ele>
        <time>2011-10-23T09:07:25Z</time>
      </trkpt>
      <trkpt lat="43.63484" lon="2.76778">
        <ele>785.05</ele>
        <time>2011-10-23T09:07:41Z</time>
      </trkpt>
      <trkpt lat="43.63496" lon="2.76765">
        <ele>786.5</ele>
        <time>2011-10-23T09:07:56Z</time>
      </trkpt>
      <trkpt lat="43.63506" lon="2.76758">
        <ele>788.42</ele>
        <time>2011-10-23T09:08:09Z</time>
      </trkpt>
      <trkpt lat="43.63508" lon="2.76757">
        <ele>788.9</ele>
        <time>2011-10-23T09:08:11Z</time>
      </trkpt>
      <trkpt lat="43.63525" lon="2.76743">
        <ele>788.42</ele>
        <time>2011-10-23T09:08:29Z</time>
      </trkpt>
      <trkpt lat="43.63538" lon="2.7673">
        <ele>788.42</ele>
        <time>2011-10-23T09:08:43Z</time>
      </trkpt>
      <trkpt lat="43.63545" lon="2.76724">
        <ele>788.42</ele>
        <time>2011-10-23T09:08:49Z</time>
      </trkpt>
      <trkpt lat="43.63557" lon="2.76707">
        <ele>788.42</ele>
        <time>2011-10-23T09:09:04Z</time>
      </trkpt>
      <trkpt lat="43.63567" lon="2.76693">
        <ele>786.98</ele>
        <time>2011-10-23T09:09:16Z</time>
      </trkpt>
      <trkpt lat="43.63571" lon="2.76686">
        <ele>786.5</ele>
        <time>2011-10-23T09:09:21Z</time>
      </trkpt>
      <trkpt lat="43.63582" lon="2.76671">
        <ele>784.57</ele>
        <time>2011-10-23T09:09:37Z</time>
      </trkpt>
      <trkpt lat="43.63583" lon="2.7667">
        <ele>784.57</ele>
        <time>2011-10-23T09:10:11Z</time>
      </trkpt>
      <trkpt lat="43.63594" lon="2.76658">
        <ele>784.57</ele>
        <time>2011-10-23T09:10:23Z</time>
      </trkpt>
      <trkpt lat="43.63609" lon="2.76635">
        <ele>783.13</ele>
        <time>2011-10-23T09:10:42Z</time>
      </trkpt>
      <trkpt lat="43.63623" lon="2.76622">
        <ele>784.57</ele>
        <time>2011-10-23T09:10:56Z</time>
      </trkpt>
      <trkpt lat="43.63639" lon="2.76607">
        <ele>786.5</ele>
        <time>2011-10-23T09:11:10Z</time>
      </trkpt>
      <trkpt lat="43.63655" lon="2.76598">
        <ele>788.42</ele>
        <time>2011-10-23T09:11:23Z</time>
      </trkpt>
      <trkpt lat="43.6366" lon="2.76596">
        <ele>790.34</ele>
        <time>2011-10-23T09:11:36Z</time>
      </trkpt>
      <trkpt lat="43.6366" lon="2.76596">
        <ele>790.34</ele>
        <time>2011-10-23T09:11:37Z</time>
      </trkpt>
      <trkpt lat="43.63665" lon="2.76594">
        <ele>791.78</ele>
        <time>2011-10-23T09:11:49Z</time>
      </trkpt>
      <trkpt lat="43.63687" lon="2.76601">
        <ele>789.86</ele>
        <time>2011-10-23T09:12:08Z</time>
      </trkpt>
      <trkpt lat="43.63703" lon="2.76607">
        <ele>789.38</ele>
        <time>2011-10-23T09:12:24Z</time>
      </trkpt>
      <trkpt lat="43.63705" lon="2.76603">
        <ele>788.9</ele>
        <time>2011-10-23T09:12:39Z</time>
      </trkpt>
      <trkpt lat="43.63715" lon="2.76608">
        <ele>784.09</ele>
        <time>2011-10-23T09:12:53Z</time>
      </trkpt>
      <trkpt lat="43.63719" lon="2.76612">
        <ele>783.61</ele>
        <time>2011-10-23T09:12:57Z</time>
      </trkpt>
      <trkpt lat="43.63722" lon="2.76615">
        <ele>783.13</ele>
        <time>2011-10-23T09:13:02Z</time>
      </trkpt>
      <trkpt lat="43.63721" lon="2.76617">
        <ele>783.61</ele>
        <time>2011-10-23T09:13:16Z</time>
      </trkpt>
      <trkpt lat="43.63723" lon="2.76621">
        <ele>784.09</ele>
        <time>2011-10-23T09:13:36Z</time>
      </trkpt>
      <trkpt lat="43.63722" lon="2.76623">
        <ele>785.05</ele>
        <time>2011-10-23T09:13:48Z</time>
      </trkpt>
      <trkpt lat="43.63727" lon="2.76621">
        <ele>785.05</ele>
        <time>2011-10-23T09:14:01Z</time>
      </trkpt>
      <trkpt lat="43.63726" lon="2.76617">
        <ele>784.57</ele>
        <time>2011-10-23T09:14:07Z</time>
      </trkpt>
      <trkpt lat="43.63727" lon="2.76613">
        <ele>785.05</ele>
        <time>2011-10-23T09:14:15Z</time>
      </trkpt>
      <trkpt lat="43.63732" lon="2.76616">
        <ele>783.61</ele>
        <time>2011-10-23T09:14:34Z</time>
      </trkpt>
      <trkpt lat="43.63738" lon="2.76625">
        <ele>784.57</ele>
        <time>2011-10-23T09:14:41Z</time>
      </trkpt>
      <trkpt lat="43.63751" lon="2.76632">
        <ele>785.53</ele>
        <time>2011-10-23T09:14:54Z</time>
      </trkpt>
      <trkpt lat="43.63768" lon="2.76649">
        <ele>784.57</ele>
        <time>2011-10-23T09:15:11Z</time>
      </trkpt>
      <trkpt lat="43.63774" lon="2.76653">
        <ele>784.09</ele>
        <time>2011-10-23T09:15:16Z</time>
      </trkpt>
      <trkpt lat="43.63782" lon="2.76659">
        <ele>784.09</ele>
        <time>2011-10-23T09:15:23Z</time>
      </trkpt>
      <trkpt lat="43.63787" lon="2.76661">
        <ele>784.09</ele>
        <time>2011-10-23T09:15:26Z</time>
      </trkpt>
      <trkpt lat="43.63793" lon="2.76665">
        <ele>784.57</ele>
        <time>2011-10-23T09:15:31Z</time>
      </trkpt>
      <trkpt lat="43.63804" lon="2.76672">
        <ele>784.57</ele>
        <time>2011-10-23T09:15:41Z</time>
      </trkpt>
      <trkpt lat="43.6381" lon="2.76678">
        <ele>784.09</ele>
        <time>2011-10-23T09:15:47Z</time>
      </trkpt>
      <trkpt lat="43.63832" lon="2.76691">
        <ele>782.17</ele>
        <time>2011-10-23T09:16:02Z</time>
      </trkpt>
      <trkpt lat="43.63851" lon="2.76701">
        <ele>779.29</ele>
        <time>2011-10-23T09:16:16Z</time>
      </trkpt>
      <trkpt lat="43.63869" lon="2.76712">
        <ele>775.92</ele>
        <time>2011-10-23T09:16:31Z</time>
      </trkpt>
      <trkpt lat="43.63892" lon="2.76725">
        <ele>775.92</ele>
        <time>2011-10-23T09:16:48Z</time>
      </trkpt>
      <trkpt lat="43.63911" lon="2.76737">
        <ele>777.84</ele>
        <time>2011-10-23T09:17:03Z</time>
      </trkpt>
      <trkpt lat="43.63915" lon="2.76739">
        <ele>778.81</ele>
        <time>2011-10-23T09:17:06Z</time>
      </trkpt>
      <trkpt lat="43.63925" lon="2.76743">
        <ele>781.21</ele>
        <time>2011-10-23T09:17:22Z</time>
      </trkpt>
      <trkpt lat="43.63925" lon="2.76743">
        <ele>781.21</ele>
        <time>2011-10-23T09:17:59Z</time>
      </trkpt>
      <trkpt lat="43.63928" lon="2.76744">
        <ele>780.73</ele>
        <time>2011-10-23T09:18:25Z</time>
      </trkpt>
      <trkpt lat="43.63946" lon="2.76753">
        <ele>779.29</ele>
        <time>2011-10-23T09:18:42Z</time>
      </trkpt>
      <trkpt lat="43.63953" lon="2.7675">
        <ele>780.25</ele>
        <time>2011-10-23T09:18:58Z</time>
      </trkpt>
      <trkpt lat="43.6396" lon="2.76753">
        <ele>780.73</ele>
        <time>2011-10-23T09:19:10Z</time>
      </trkpt>
      <trkpt lat="43.63979" lon="2.76761">
        <ele>781.69</ele>
        <time>2011-10-23T09:19:25Z</time>
      </trkpt>
      <trkpt lat="43.6399" lon="2.7677">
        <ele>782.65</ele>
        <time>2011-10-23T09:19:36Z</time>
      </trkpt>
      <trkpt lat="43.63993" lon="2.76773">
        <ele>782.17</ele>
        <time>2011-10-23T09:19:42Z</time>
      </trkpt>
      <trkpt lat="43.63995" lon="2.76774">
        <ele>782.17</ele>
        <time>2011-10-23T09:19:44Z</time>
      </trkpt>
      <trkpt lat="43.6401" lon="2.76781">
        <ele>782.17</ele>
        <time>2011-10-23T09:20:00Z</time>
      </trkpt>
      <trkpt lat="43.64028" lon="2.76787">
        <ele>783.13</ele>
        <time>2011-10-23T09:20:15Z</time>
      </trkpt>
      <trkpt lat="43.64042" lon="2.7679">
        <ele>782.65</ele>
        <time>2011-10-23T09:20:30Z</time>
      </trkpt>
      <trkpt lat="43.64046" lon="2.7679">
        <ele>783.13</ele>
        <time>2011-10-23T09:20:46Z</time>
      </trkpt>
      <trkpt lat="43.64056" lon="2.76792">
        <ele>783.13</ele>
        <time>2011-10-23T09:20:57Z</time>
      </trkpt>
      <trkpt lat="43.64073" lon="2.76794">
        <ele>782.65</ele>
        <time>2011-10-23T09:21:14Z</time>
      </trkpt>
      <trkpt lat="43.64083" lon="2.76799">
        <ele>782.17</ele>
        <time>2011-10-23T09:21:28Z</time>
      </trkpt>
      <trkpt lat="43.64084" lon="2.76798">
        <ele>781.21</ele>
        <time>2011-10-23T09:21:47Z</time>
      </trkpt>
      <trkpt lat="43.64087" lon="2.768">
        <ele>783.13</ele>
        <time>2011-10-23T09:22:02Z</time>
      </trkpt>
      <trkpt lat="43.64092" lon="2.76806">
        <ele>785.53</ele>
        <time>2011-10-23T09:22:19Z</time>
      </trkpt>
      <trkpt lat="43.64096" lon="2.7681">
        <ele>786.02</ele>
        <time>2011-10-23T09:22:32Z</time>
      </trkpt>
      <trkpt lat="43.64097" lon="2.76814">
        <ele>786.98</ele>
        <time>2011-10-23T09:23:01Z</time>
      </trkpt>
      <trkpt lat="43.64099" lon="2.76815">
        <ele>786.98</ele>
        <time>2011-10-23T09:23:23Z</time>
      </trkpt>
      <trkpt lat="43.64108" lon="2.76824">
        <ele>786.98</ele>
        <time>2011-10-23T09:23:51Z</time>
      </trkpt>
      <trkpt lat="43.6411" lon="2.76827">
        <ele>786.5</ele>
        <time>2011-10-23T09:23:53Z</time>
      </trkpt>
      <trkpt lat="43.64129" lon="2.76838">
        <ele>785.53</ele>
        <time>2011-10-23T09:24:10Z</time>
      </trkpt>
      <trkpt lat="43.6414" lon="2.76848">
        <ele>785.05</ele>
        <time>2011-10-23T09:24:20Z</time>
      </trkpt>
      <trkpt lat="43.6415" lon="2.76853">
        <ele>785.53</ele>
        <time>2011-10-23T09:24:27Z</time>
      </trkpt>
      <trkpt lat="43.64153" lon="2.76855">
        <ele>785.05</ele>
        <time>2011-10-23T09:24:30Z</time>
      </trkpt>
      <trkpt lat="43.64163" lon="2.76859">
        <ele>784.57</ele>
        <time>2011-10-23T09:24:40Z</time>
      </trkpt>
      <trkpt lat="43.64182" lon="2.76864">
        <ele>783.61</ele>
        <time>2011-10-23T09:24:54Z</time>
      </trkpt>
      <trkpt lat="43.642" lon="2.76867">
        <ele>785.05</ele>
        <time>2011-10-23T09:25:08Z</time>
      </trkpt>
      <trkpt lat="43.64212" lon="2.7687">
        <ele>786.98</ele>
        <time>2011-10-23T09:25:19Z</time>
      </trkpt>
      <trkpt lat="43.64222" lon="2.76872">
        <ele>787.94</ele>
        <time>2011-10-23T09:25:27Z</time>
      </trkpt>
      <trkpt lat="43.6424" lon="2.76874">
        <ele>789.86</ele>
        <time>2011-10-23T09:25:40Z</time>
      </trkpt>
      <trkpt lat="43.64256" lon="2.76871">
        <ele>790.82</ele>
        <time>2011-10-23T09:25:54Z</time>
      </trkpt>
      <trkpt lat="43.64268" lon="2.76871">
        <ele>790.34</ele>
        <time>2011-10-23T09:26:03Z</time>
      </trkpt>
      <trkpt lat="43.64285" lon="2.76867">
        <ele>791.3</ele>
        <time>2011-10-23T09:26:18Z</time>
      </trkpt>
      <trkpt lat="43.64293" lon="2.76865">
        <ele>792.74</ele>
        <time>2011-10-23T09:26:31Z</time>
      </trkpt>
      <trkpt lat="43.64298" lon="2.76864">
        <ele>792.74</ele>
        <time>2011-10-23T09:26:51Z</time>
      </trkpt>
      <trkpt lat="43.64301" lon="2.76864">
        <ele>792.74</ele>
        <time>2011-10-23T09:26:55Z</time>
      </trkpt>
      <trkpt lat="43.64318" lon="2.76861">
        <ele>790.82</ele>
        <time>2011-10-23T09:27:11Z</time>
      </trkpt>
      <trkpt lat="43.64326" lon="2.76858">
        <ele>791.78</ele>
        <time>2011-10-23T09:27:18Z</time>
      </trkpt>
      <trkpt lat="43.64344" lon="2.76852">
        <ele>790.82</ele>
        <time>2011-10-23T09:27:32Z</time>
      </trkpt>
      <trkpt lat="43.64347" lon="2.76852">
        <ele>790.34</ele>
        <time>2011-10-23T09:27:35Z</time>
      </trkpt>
      <trkpt lat="43.64363" lon="2.76867">
        <ele>790.34</ele>
        <time>2011-10-23T09:27:51Z</time>
      </trkpt>
      <trkpt lat="43.64378" lon="2.76874">
        <ele>791.3</ele>
        <time>2011-10-23T09:28:07Z</time>
      </trkpt>
      <trkpt lat="43.64391" lon="2.76879">
        <ele>794.67</ele>
        <time>2011-10-23T09:28:22Z</time>
      </trkpt>
      <trkpt lat="43.64405" lon="2.76882">
        <ele>798.03</ele>
        <time>2011-10-23T09:28:38Z</time>
      </trkpt>
      <trkpt lat="43.64419" lon="2.76874">
        <ele>799.47</ele>
        <time>2011-10-23T09:28:53Z</time>
      </trkpt>
      <trkpt lat="43.64426" lon="2.76865">
        <ele>798.51</ele>
        <time>2011-10-23T09:29:10Z</time>
      </trkpt>
      <trkpt lat="43.64428" lon="2.76865">
        <ele>798.51</ele>
        <time>2011-10-23T09:29:38Z</time>
      </trkpt>
      <trkpt lat="43.64432" lon="2.76867">
        <ele>798.03</ele>
        <time>2011-10-23T09:30:07Z</time>
      </trkpt>
      <trkpt lat="43.64433" lon="2.76862">
        <ele>798.03</ele>
        <time>2011-10-23T09:30:14Z</time>
      </trkpt>
      <trkpt lat="43.64436" lon="2.76854">
        <ele>798.51</ele>
        <time>2011-10-23T09:30:20Z</time>
      </trkpt>
      <trkpt lat="43.64439" lon="2.76852">
        <ele>798.51</ele>
        <time>2011-10-23T09:30:23Z</time>
      </trkpt>
      <trkpt lat="43.64443" lon="2.76835">
        <ele>800.44</ele>
        <time>2011-10-23T09:30:38Z</time>
      </trkpt>
      <trkpt lat="43.64448" lon="2.76823">
        <ele>800.44</ele>
        <time>2011-10-23T09:30:54Z</time>
      </trkpt>
      <trkpt lat="43.64452" lon="2.76821">
        <ele>800.92</ele>
        <time>2011-10-23T09:31:03Z</time>
      </trkpt>
      <trkpt lat="43.64457" lon="2.76822">
        <ele>799.95</ele>
        <time>2011-10-23T09:31:08Z</time>
      </trkpt>
      <trkpt lat="43.6447" lon="2.7681">
        <ele>799.95</ele>
        <time>2011-10-23T09:31:22Z</time>
      </trkpt>
      <trkpt lat="43.64482" lon="2.76795">
        <ele>797.55</ele>
        <time>2011-10-23T09:31:37Z</time>
      </trkpt>
      <trkpt lat="43.64483" lon="2.7679">
        <ele>796.59</ele>
        <time>2011-10-23T09:31:40Z</time>
      </trkpt>
      <trkpt lat="43.64483" lon="2.7678">
        <ele>795.63</ele>
        <time>2011-10-23T09:31:45Z</time>
      </trkpt>
      <trkpt lat="43.64482" lon="2.7677">
        <ele>794.67</ele>
        <time>2011-10-23T09:31:52Z</time>
      </trkpt>
      <trkpt lat="43.64487" lon="2.76746">
        <ele>792.26</ele>
        <time>2011-10-23T09:32:09Z</time>
      </trkpt>
      <trkpt lat="43.64487" lon="2.76743">
        <ele>791.78</ele>
        <time>2011-10-23T09:32:11Z</time>
      </trkpt>
      <trkpt lat="43.64485" lon="2.76736">
        <ele>790.82</ele>
        <time>2011-10-23T09:32:15Z</time>
      </trkpt>
      <trkpt lat="43.64482" lon="2.76716">
        <ele>790.34</ele>
        <time>2011-10-23T09:32:30Z</time>
      </trkpt>
      <trkpt lat="43.64486" lon="2.76696">
        <ele>787.94</ele>
        <time>2011-10-23T09:32:44Z</time>
      </trkpt>
      <trkpt lat="43.64485" lon="2.76679">
        <ele>786.98</ele>
        <time>2011-10-23T09:32:55Z</time>
      </trkpt>
      <trkpt lat="43.64483" lon="2.76673">
        <ele>786.02</ele>
        <time>2011-10-23T09:32:59Z</time>
      </trkpt>
      <trkpt lat="43.64481" lon="2.76652">
        <ele>783.61</ele>
        <time>2011-10-23T09:33:13Z</time>
      </trkpt>
      <trkpt lat="43.6448" lon="2.76651">
        <ele>783.61</ele>
        <time>2011-10-23T09:33:14Z</time>
      </trkpt>
      <trkpt lat="43.64473" lon="2.76637">
        <ele>782.65</ele>
        <time>2011-10-23T09:33:26Z</time>
      </trkpt>
      <trkpt lat="43.6446" lon="2.76617">
        <ele>784.09</ele>
        <time>2011-10-23T09:33:42Z</time>
      </trkpt>
      <trkpt lat="43.64459" lon="2.76614">
        <ele>784.09</ele>
        <time>2011-10-23T09:33:44Z</time>
      </trkpt>
      <trkpt lat="43.64451" lon="2.76607">
        <ele>783.61</ele>
        <time>2011-10-23T09:33:51Z</time>
      </trkpt>
      <trkpt lat="43.64443" lon="2.76601">
        <ele>783.61</ele>
        <time>2011-10-23T09:33:59Z</time>
      </trkpt>
      <trkpt lat="43.64431" lon="2.76593">
        <ele>784.09</ele>
        <time>2011-10-23T09:34:14Z</time>
      </trkpt>
      <trkpt lat="43.64421" lon="2.76582">
        <ele>786.02</ele>
        <time>2011-10-23T09:34:27Z</time>
      </trkpt>
      <trkpt lat="43.64403" lon="2.76569">
        <ele>786.5</ele>
        <time>2011-10-23T09:34:41Z</time>
      </trkpt>
      <trkpt lat="43.64398" lon="2.76564">
        <ele>786.5</ele>
        <time>2011-10-23T09:34:47Z</time>
      </trkpt>
      <trkpt lat="43.64389" lon="2.76555">
        <ele>786.02</ele>
        <time>2011-10-23T09:34:57Z</time>
      </trkpt>
      <trkpt lat="43.64386" lon="2.76555">
        <ele>786.02</ele>
        <time>2011-10-23T09:35:00Z</time>
      </trkpt>
      <trkpt lat="43.64378" lon="2.76543">
        <ele>786.02</ele>
        <time>2011-10-23T09:35:11Z</time>
      </trkpt>
      <trkpt lat="43.64372" lon="2.76536">
        <ele>786.5</ele>
        <time>2011-10-23T09:35:18Z</time>
      </trkpt>
      <trkpt lat="43.64364" lon="2.76533">
        <ele>786.02</ele>
        <time>2011-10-23T09:35:27Z</time>
      </trkpt>
      <trkpt lat="43.64346" lon="2.76519">
        <ele>786.98</ele>
        <time>2011-10-23T09:35:42Z</time>
      </trkpt>
      <trkpt lat="43.64332" lon="2.7651">
        <ele>787.46</ele>
        <time>2011-10-23T09:35:55Z</time>
      </trkpt>
      <trkpt lat="43.64324" lon="2.76503">
        <ele>786.98</ele>
        <time>2011-10-23T09:36:06Z</time>
      </trkpt>
      <trkpt lat="43.64306" lon="2.76488">
        <ele>787.46</ele>
        <time>2011-10-23T09:36:23Z</time>
      </trkpt>
      <trkpt lat="43.64293" lon="2.76474">
        <ele>787.94</ele>
        <time>2011-10-23T09:36:38Z</time>
      </trkpt>
      <trkpt lat="43.64285" lon="2.7646">
        <ele>787.94</ele>
        <time>2011-10-23T09:36:52Z</time>
      </trkpt>
      <trkpt lat="43.64275" lon="2.76449">
        <ele>787.94</ele>
        <time>2011-10-23T09:37:02Z</time>
      </trkpt>
      <trkpt lat="43.64266" lon="2.76441">
        <ele>786.98</ele>
        <time>2011-10-23T09:37:11Z</time>
      </trkpt>
      <trkpt lat="43.64255" lon="2.76432">
        <ele>786.02</ele>
        <time>2011-10-23T09:37:24Z</time>
      </trkpt>
      <trkpt lat="43.64254" lon="2.76432">
        <ele>786.02</ele>
        <time>2011-10-23T09:37:44Z</time>
      </trkpt>
      <trkpt lat="43.64245" lon="2.76426">
        <ele>786.5</ele>
        <time>2011-10-23T09:38:06Z</time>
      </trkpt>
      <trkpt lat="43.64245" lon="2.76426">
        <ele>786.5</ele>
        <time>2011-10-23T09:38:07Z</time>
      </trkpt>
      <trkpt lat="43.64232" lon="2.76416">
        <ele>785.53</ele>
        <time>2011-10-23T09:38:21Z</time>
      </trkpt>
      <trkpt lat="43.64219" lon="2.76409">
        <ele>786.02</ele>
        <time>2011-10-23T09:38:33Z</time>
      </trkpt>
      <trkpt lat="43.64214" lon="2.76406">
        <ele>786.5</ele>
        <time>2011-10-23T09:38:40Z</time>
      </trkpt>
      <trkpt lat="43.64212" lon="2.76404">
        <ele>786.5</ele>
        <time>2011-10-23T09:38:43Z</time>
      </trkpt>
      <trkpt lat="43.64195" lon="2.76396">
        <ele>786.02</ele>
        <time>2011-10-23T09:38:57Z</time>
      </trkpt>
      <trkpt lat="43.64182" lon="2.76385">
        <ele>786.5</ele>
        <time>2011-10-23T09:39:11Z</time>
      </trkpt>
      <trkpt lat="43.64181" lon="2.76379">
        <ele>786.5</ele>
        <time>2011-10-23T09:39:17Z</time>
      </trkpt>
      <trkpt lat="43.6418" lon="2.76376">
        <ele>786.5</ele>
        <time>2011-10-23T09:39:20Z</time>
      </trkpt>
      <trkpt lat="43.64175" lon="2.7637">
        <ele>786.5</ele>
        <time>2011-10-23T09:39:25Z</time>
      </trkpt>
      <trkpt lat="43.64173" lon="2.76367">
        <ele>786.5</ele>
        <time>2011-10-23T09:39:28Z</time>
      </trkpt>
      <trkpt lat="43.64169" lon="2.76355">
        <ele>786.02</ele>
        <time>2011-10-23T09:39:44Z</time>
      </trkpt>
      <trkpt lat="43.64163" lon="2.76343">
        <ele>786.5</ele>
        <time>2011-10-23T09:39:55Z</time>
      </trkpt>
      <trkpt lat="43.64159" lon="2.76337">
        <ele>787.94</ele>
        <time>2011-10-23T09:39:59Z</time>
      </trkpt>
      <trkpt lat="43.64154" lon="2.76318">
        <ele>790.82</ele>
        <time>2011-10-23T09:40:14Z</time>
      </trkpt>
      <trkpt lat="43.64151" lon="2.76308">
        <ele>790.82</ele>
        <time>2011-10-23T09:40:23Z</time>
      </trkpt>
      <trkpt lat="43.64144" lon="2.76283">
        <ele>788.42</ele>
        <time>2011-10-23T09:40:39Z</time>
      </trkpt>
      <trkpt lat="43.64137" lon="2.76272">
        <ele>789.38</ele>
        <time>2011-10-23T09:40:53Z</time>
      </trkpt>
      <trkpt lat="43.64129" lon="2.76262">
        <ele>790.82</ele>
        <time>2011-10-23T09:41:09Z</time>
      </trkpt>
      <trkpt lat="43.64129" lon="2.76261">
        <ele>790.82</ele>
        <time>2011-10-23T09:41:10Z</time>
      </trkpt>
      <trkpt lat="43.64119" lon="2.76249">
        <ele>789.86</ele>
        <time>2011-10-23T09:41:27Z</time>
      </trkpt>
      <trkpt lat="43.64119" lon="2.76247">
        <ele>789.86</ele>
        <time>2011-10-23T09:41:29Z</time>
      </trkpt>
      <trkpt lat="43.64116" lon="2.76244">
        <ele>789.86</ele>
        <time>2011-10-23T09:41:32Z</time>
      </trkpt>
      <trkpt lat="43.64114" lon="2.76234">
        <ele>789.86</ele>
        <time>2011-10-23T09:41:39Z</time>
      </trkpt>
      <trkpt lat="43.64113" lon="2.76228">
        <ele>790.34</ele>
        <time>2011-10-23T09:41:44Z</time>
      </trkpt>
      <trkpt lat="43.6411" lon="2.76221">
        <ele>790.34</ele>
        <time>2011-10-23T09:41:48Z</time>
      </trkpt>
      <trkpt lat="43.64097" lon="2.76199">
        <ele>791.78</ele>
        <time>2011-10-23T09:42:05Z</time>
      </trkpt>
      <trkpt lat="43.64091" lon="2.76184">
        <ele>793.71</ele>
        <time>2011-10-23T09:42:15Z</time>
      </trkpt>
      <trkpt lat="43.64088" lon="2.76181">
        <ele>793.71</ele>
        <time>2011-10-23T09:42:19Z</time>
      </trkpt>
      <trkpt lat="43.64083" lon="2.76168">
        <ele>794.19</ele>
        <time>2011-10-23T09:42:27Z</time>
      </trkpt>
      <trkpt lat="43.64075" lon="2.76153">
        <ele>794.67</ele>
        <time>2011-10-23T09:42:40Z</time>
      </trkpt>
      <trkpt lat="43.64062" lon="2.76138">
        <ele>795.15</ele>
        <time>2011-10-23T09:42:56Z</time>
      </trkpt>
      <trkpt lat="43.64047" lon="2.76121">
        <ele>796.59</ele>
        <time>2011-10-23T09:43:13Z</time>
      </trkpt>
      <trkpt lat="43.64038" lon="2.7611">
        <ele>796.11</ele>
        <time>2011-10-23T09:43:27Z</time>
      </trkpt>
      <trkpt lat="43.64028" lon="2.76097">
        <ele>797.07</ele>
        <time>2011-10-23T09:43:40Z</time>
      </trkpt>
      <trkpt lat="43.64021" lon="2.7609">
        <ele>797.07</ele>
        <time>2011-10-23T09:43:46Z</time>
      </trkpt>
      <trkpt lat="43.64009" lon="2.76076">
        <ele>796.59</ele>
        <time>2011-10-23T09:44:01Z</time>
      </trkpt>
      <trkpt lat="43.63997" lon="2.76064">
        <ele>797.07</ele>
        <time>2011-10-23T09:44:15Z</time>
      </trkpt>
      <trkpt lat="43.63994" lon="2.76062">
        <ele>796.59</ele>
        <time>2011-10-23T09:44:18Z</time>
      </trkpt>
      <trkpt lat="43.63992" lon="2.76059">
        <ele>796.11</ele>
        <time>2011-10-23T09:44:20Z</time>
      </trkpt>
      <trkpt lat="43.63977" lon="2.76049">
        <ele>795.15</ele>
        <time>2011-10-23T09:44:35Z</time>
      </trkpt>
      <trkpt lat="43.63962" lon="2.76046">
        <ele>795.15</ele>
        <time>2011-10-23T09:44:49Z</time>
      </trkpt>
      <trkpt lat="43.63958" lon="2.76044">
        <ele>795.15</ele>
        <time>2011-10-23T09:44:53Z</time>
      </trkpt>
      <trkpt lat="43.63938" lon="2.76036">
        <ele>795.15</ele>
        <time>2011-10-23T09:45:08Z</time>
      </trkpt>
      <trkpt lat="43.63922" lon="2.7603">
        <ele>794.67</ele>
        <time>2011-10-23T09:45:23Z</time>
      </trkpt>
      <trkpt lat="43.63915" lon="2.76028">
        <ele>794.67</ele>
        <time>2011-10-23T09:45:29Z</time>
      </trkpt>
      <trkpt lat="43.63904" lon="2.76019">
        <ele>794.67</ele>
        <time>2011-10-23T09:45:39Z</time>
      </trkpt>
      <trkpt lat="43.63896" lon="2.76015">
        <ele>794.19</ele>
        <time>2011-10-23T09:45:46Z</time>
      </trkpt>
      <trkpt lat="43.63892" lon="2.76008">
        <ele>794.19</ele>
        <time>2011-10-23T09:45:54Z</time>
      </trkpt>
      <trkpt lat="43.63885" lon="2.75995">
        <ele>794.19</ele>
        <time>2011-10-23T09:46:04Z</time>
      </trkpt>
      <trkpt lat="43.63878" lon="2.75987">
        <ele>793.71</ele>
        <time>2011-10-23T09:46:11Z</time>
      </trkpt>
      <trkpt lat="43.63869" lon="2.75972">
        <ele>793.71</ele>
        <time>2011-10-23T09:46:24Z</time>
      </trkpt>
      <trkpt lat="43.63857" lon="2.75958">
        <ele>793.71</ele>
        <time>2011-10-23T09:46:36Z</time>
      </trkpt>
      <trkpt lat="43.63854" lon="2.75947">
        <ele>793.22</ele>
        <time>2011-10-23T09:46:50Z</time>
      </trkpt>
      <trkpt lat="43.63846" lon="2.75932">
        <ele>796.11</ele>
        <time>2011-10-23T09:46:57Z</time>
      </trkpt>
      <trkpt lat="43.63827" lon="2.75917">
        <ele>796.11</ele>
        <time>2011-10-23T09:47:13Z</time>
      </trkpt>
      <trkpt lat="43.63815" lon="2.75908">
        <ele>796.11</ele>
        <time>2011-10-23T09:47:27Z</time>
      </trkpt>
      <trkpt lat="43.63806" lon="2.75902">
        <ele>796.11</ele>
        <time>2011-10-23T09:47:39Z</time>
      </trkpt>
      <trkpt lat="43.63805" lon="2.75902">
        <ele>796.11</ele>
        <time>2011-10-23T09:47:40Z</time>
      </trkpt>
      <trkpt lat="43.63787" lon="2.75887">
        <ele>796.11</ele>
        <time>2011-10-23T09:47:56Z</time>
      </trkpt>
      <trkpt lat="43.63769" lon="2.75871">
        <ele>788.9</ele>
        <time>2011-10-23T09:48:12Z</time>
      </trkpt>
      <trkpt lat="43.63753" lon="2.75855">
        <ele>787.46</ele>
        <time>2011-10-23T09:48:28Z</time>
      </trkpt>
      <trkpt lat="43.63737" lon="2.75841">
        <ele>785.53</ele>
        <time>2011-10-23T09:48:42Z</time>
      </trkpt>
      <trkpt lat="43.63724" lon="2.7583">
        <ele>784.09</ele>
        <time>2011-10-23T09:48:56Z</time>
      </trkpt>
      <trkpt lat="43.63709" lon="2.75819">
        <ele>783.61</ele>
        <time>2011-10-23T09:49:11Z</time>
      </trkpt>
      <trkpt lat="43.6369" lon="2.75823">
        <ele>784.09</ele>
        <time>2011-10-23T09:49:26Z</time>
      </trkpt>
      <trkpt lat="43.63674" lon="2.7583">
        <ele>785.05</ele>
        <time>2011-10-23T09:49:41Z</time>
      </trkpt>
      <trkpt lat="43.63657" lon="2.75844">
        <ele>785.05</ele>
        <time>2011-10-23T09:49:57Z</time>
      </trkpt>
      <trkpt lat="43.63643" lon="2.75862">
        <ele>786.5</ele>
        <time>2011-10-23T09:50:13Z</time>
      </trkpt>
      <trkpt lat="43.63633" lon="2.75879">
        <ele>785.53</ele>
        <time>2011-10-23T09:50:27Z</time>
      </trkpt>
      <trkpt lat="43.63629" lon="2.75884">
        <ele>786.02</ele>
        <time>2011-10-23T09:50:32Z</time>
      </trkpt>
      <trkpt lat="43.63616" lon="2.75902">
        <ele>786.5</ele>
        <time>2011-10-23T09:50:47Z</time>
      </trkpt>
      <trkpt lat="43.63615" lon="2.75904">
        <ele>786.02</ele>
        <time>2011-10-23T09:50:49Z</time>
      </trkpt>
      <trkpt lat="43.63599" lon="2.7592">
        <ele>785.05</ele>
        <time>2011-10-23T09:51:05Z</time>
      </trkpt>
      <trkpt lat="43.63585" lon="2.7594">
        <ele>784.09</ele>
        <time>2011-10-23T09:51:21Z</time>
      </trkpt>
      <trkpt lat="43.63574" lon="2.75956">
        <ele>784.09</ele>
        <time>2011-10-23T09:51:33Z</time>
      </trkpt>
      <trkpt lat="43.63561" lon="2.75977">
        <ele>783.13</ele>
        <time>2011-10-23T09:51:49Z</time>
      </trkpt>
      <trkpt lat="43.63548" lon="2.75995">
        <ele>784.09</ele>
        <time>2011-10-23T09:52:04Z</time>
      </trkpt>
      <trkpt lat="43.63535" lon="2.7601">
        <ele>785.53</ele>
        <time>2011-10-23T09:52:19Z</time>
      </trkpt>
      <trkpt lat="43.63521" lon="2.76024">
        <ele>786.5</ele>
        <time>2011-10-23T09:52:33Z</time>
      </trkpt>
      <trkpt lat="43.63513" lon="2.76041">
        <ele>783.61</ele>
        <time>2011-10-23T09:52:48Z</time>
      </trkpt>
      <trkpt lat="43.635" lon="2.76058">
        <ele>782.17</ele>
        <time>2011-10-23T09:53:02Z</time>
      </trkpt>
      <trkpt lat="43.63486" lon="2.76072">
        <ele>781.69</ele>
        <time>2011-10-23T09:53:17Z</time>
      </trkpt>
      <trkpt lat="43.63473" lon="2.76081">
        <ele>781.69</ele>
        <time>2011-10-23T09:53:31Z</time>
      </trkpt>
      <trkpt lat="43.63453" lon="2.76091">
        <ele>782.17</ele>
        <time>2011-10-23T09:53:46Z</time>
      </trkpt>
      <trkpt lat="43.63437" lon="2.76101">
        <ele>782.65</ele>
        <time>2011-10-23T09:53:59Z</time>
      </trkpt>
      <trkpt lat="43.63425" lon="2.76121">
        <ele>782.65</ele>
        <time>2011-10-23T09:54:13Z</time>
      </trkpt>
      <trkpt lat="43.63411" lon="2.76134">
        <ele>782.65</ele>
        <time>2011-10-23T09:54:26Z</time>
      </trkpt>
      <trkpt lat="43.63399" lon="2.7615">
        <ele>782.65</ele>
        <time>2011-10-23T09:54:41Z</time>
      </trkpt>
      <trkpt lat="43.6339" lon="2.76171">
        <ele>782.17</ele>
        <time>2011-10-23T09:54:56Z</time>
      </trkpt>
      <trkpt lat="43.63388" lon="2.76177">
        <ele>782.17</ele>
        <time>2011-10-23T09:55:00Z</time>
      </trkpt>
      <trkpt lat="43.63386" lon="2.76184">
        <ele>782.17</ele>
        <time>2011-10-23T09:55:05Z</time>
      </trkpt>
      <trkpt lat="43.63386" lon="2.76187">
        <ele>782.17</ele>
        <time>2011-10-23T09:55:07Z</time>
      </trkpt>
      <trkpt lat="43.63383" lon="2.76198">
        <ele>782.17</ele>
        <time>2011-10-23T09:55:13Z</time>
      </trkpt>
      <trkpt lat="43.63376" lon="2.76219">
        <ele>782.17</ele>
        <time>2011-10-23T09:55:29Z</time>
      </trkpt>
      <trkpt lat="43.6337" lon="2.76221">
        <ele>781.69</ele>
        <time>2011-10-23T09:55:36Z</time>
      </trkpt>
      <trkpt lat="43.63353" lon="2.76226">
        <ele>794.67</ele>
        <time>2011-10-23T09:55:50Z</time>
      </trkpt>
      <trkpt lat="43.6335" lon="2.76226">
        <ele>797.55</ele>
        <time>2011-10-23T09:55:53Z</time>
      </trkpt>
      <trkpt lat="43.63337" lon="2.76222">
        <ele>798.99</ele>
        <time>2011-10-23T09:56:08Z</time>
      </trkpt>
      <trkpt lat="43.63329" lon="2.76221">
        <ele>798.99</ele>
        <time>2011-10-23T09:56:23Z</time>
      </trkpt>
      <trkpt lat="43.63323" lon="2.76218">
        <ele>798.99</ele>
        <time>2011-10-23T09:56:35Z</time>
      </trkpt>
      <trkpt lat="43.63318" lon="2.76218">
        <ele>796.11</ele>
        <time>2011-10-23T09:56:48Z</time>
      </trkpt>
      <trkpt lat="43.63315" lon="2.7622">
        <ele>792.74</ele>
        <time>2011-10-23T09:57:21Z</time>
      </trkpt>
      <trkpt lat="43.63315" lon="2.76221">
        <ele>794.19</ele>
        <time>2011-10-23T09:58:14Z</time>
      </trkpt>
      <trkpt lat="43.63317" lon="2.76219">
        <ele>791.78</ele>
        <time>2011-10-23T09:58:35Z</time>
      </trkpt>
      <trkpt lat="43.63319" lon="2.76214">
        <ele>787.94</ele>
        <time>2011-10-23T10:00:26Z</time>
      </trkpt>
      <trkpt lat="43.63319" lon="2.76211">
        <ele>786.98</ele>
        <time>2011-10-23T10:00:29Z</time>
      </trkpt>
      <trkpt lat="43.63316" lon="2.76196">
        <ele>786.02</ele>
        <time>2011-10-23T10:00:39Z</time>
      </trkpt>
      <trkpt lat="43.63312" lon="2.7619">
        <ele>785.05</ele>
        <time>2011-10-23T10:00:56Z</time>
      </trkpt>
      <trkpt lat="43.63312" lon="2.76187">
        <ele>784.57</ele>
        <time>2011-10-23T10:01:13Z</time>
      </trkpt>
      <trkpt lat="43.63314" lon="2.76175">
        <ele>781.69</ele>
        <time>2011-10-23T10:01:29Z</time>
      </trkpt>
      <trkpt lat="43.63319" lon="2.7617">
        <ele>779.77</ele>
        <time>2011-10-23T10:01:43Z</time>
      </trkpt>
      <trkpt lat="43.63325" lon="2.76165">
        <ele>777.84</ele>
        <time>2011-10-23T10:01:58Z</time>
      </trkpt>
      <trkpt lat="43.63327" lon="2.76165">
        <ele>776.88</ele>
        <time>2011-10-23T10:02:21Z</time>
      </trkpt>
      <trkpt lat="43.63328" lon="2.76165">
        <ele>777.36</ele>
        <time>2011-10-23T10:02:45Z</time>
      </trkpt>
      <trkpt lat="43.63333" lon="2.76165">
        <ele>777.36</ele>
        <time>2011-10-23T10:03:02Z</time>
      </trkpt>
      <trkpt lat="43.63333" lon="2.76167">
        <ele>777.36</ele>
        <time>2011-10-23T10:03:31Z</time>
      </trkpt>
      <trkpt lat="43.63333" lon="2.76167">
        <ele>776.4</ele>
        <time>2011-10-23T10:05:43Z</time>
      </trkpt>
      <trkpt lat="43.63333" lon="2.76166">
        <ele>774.48</ele>
        <time>2011-10-23T10:08:15Z</time>
      </trkpt>
      <trkpt lat="43.63333" lon="2.76167">
        <ele>772.56</ele>
        <time>2011-10-23T10:11:27Z</time>
      </trkpt>
      <trkpt lat="43.63332" lon="2.76167">
        <ele>771.11</ele>
        <time>2011-10-23T10:13:27Z</time>
      </trkpt>
      <trkpt lat="43.63333" lon="2.76168">
        <ele>770.63</ele>
        <time>2011-10-23T10:14:26Z</time>
      </trkpt>
      <trkpt lat="43.63334" lon="2.76169">
        <ele>768.71</ele>
        <time>2011-10-23T10:15:46Z</time>
      </trkpt>
      <trkpt lat="43.63333" lon="2.76168">
        <ele>768.23</ele>
        <time>2011-10-23T10:17:49Z</time>
      </trkpt>
      <trkpt lat="43.63333" lon="2.76169">
        <ele>768.23</ele>
        <time>2011-10-23T10:22:31Z</time>
      </trkpt>
      <trkpt lat="43.63333" lon="2.76169">
        <ele>768.23</ele>
        <time>2011-10-23T10:27:02Z</time>
      </trkpt>
      <trkpt lat="43.63334" lon="2.7617">
        <ele>768.23</ele>
        <time>2011-10-23T10:29:45Z</time>
      </trkpt>
      <trkpt lat="43.63334" lon="2.76171">
        <ele>767.75</ele>
        <time>2011-10-23T10:30:48Z</time>
      </trkpt>
      <trkpt lat="43.63334" lon="2.76171">
        <ele>766.31</ele>
        <time>2011-10-23T10:33:20Z</time>
      </trkpt>
      <trkpt lat="43.63335" lon="2.76171">
        <ele>765.83</ele>
        <time>2011-10-23T10:34:32Z</time>
      </trkpt>
      <trkpt lat="43.63335" lon="2.76172">
        <ele>765.35</ele>
        <time>2011-10-23T10:36:26Z</time>
      </trkpt>
      <trkpt lat="43.63335" lon="2.76168">
        <ele>765.35</ele>
        <time>2011-10-23T10:40:37Z</time>
      </trkpt>
      <trkpt lat="43.63337" lon="2.76168">
        <ele>767.27</ele>
        <time>2011-10-23T10:43:20Z</time>
      </trkpt>
      <trkpt lat="43.63336" lon="2.76168">
        <ele>767.27</ele>
        <time>2011-10-23T10:44:22Z</time>
      </trkpt>
      <trkpt lat="43.63336" lon="2.7617">
        <ele>767.75</ele>
        <time>2011-10-23T10:45:44Z</time>
      </trkpt>
      <trkpt lat="43.63332" lon="2.76163">
        <ele>768.71</ele>
        <time>2011-10-23T10:46:07Z</time>
      </trkpt>
      <trkpt lat="43.63324" lon="2.76164">
        <ele>769.19</ele>
        <time>2011-10-23T10:46:20Z</time>
      </trkpt>
      <trkpt lat="43.63324" lon="2.76164">
        <ele>769.67</ele>
        <time>2011-10-23T10:46:21Z</time>
      </trkpt>
      <trkpt lat="43.63315" lon="2.76171">
        <ele>770.15</ele>
        <time>2011-10-23T10:46:34Z</time>
      </trkpt>
      <trkpt lat="43.63308" lon="2.7618">
        <ele>775.44</ele>
        <time>2011-10-23T10:46:50Z</time>
      </trkpt>
      <trkpt lat="43.63303" lon="2.76185">
        <ele>778.32</ele>
        <time>2011-10-23T10:47:04Z</time>
      </trkpt>
      <trkpt lat="43.63299" lon="2.76186">
        <ele>779.29</ele>
        <time>2011-10-23T10:47:19Z</time>
      </trkpt>
      <trkpt lat="43.6329" lon="2.76188">
        <ele>780.25</ele>
        <time>2011-10-23T10:47:32Z</time>
      </trkpt>
      <trkpt lat="43.63283" lon="2.76182">
        <ele>780.73</ele>
        <time>2011-10-23T10:47:40Z</time>
      </trkpt>
      <trkpt lat="43.63268" lon="2.76177">
        <ele>780.25</ele>
        <time>2011-10-23T10:47:55Z</time>
      </trkpt>
      <trkpt lat="43.63261" lon="2.76172">
        <ele>781.21</ele>
        <time>2011-10-23T10:48:03Z</time>
      </trkpt>
      <trkpt lat="43.63248" lon="2.76161">
        <ele>782.17</ele>
        <time>2011-10-23T10:48:18Z</time>
      </trkpt>
      <trkpt lat="43.63236" lon="2.76155">
        <ele>785.05</ele>
        <time>2011-10-23T10:48:33Z</time>
      </trkpt>
      <trkpt lat="43.63235" lon="2.76153">
        <ele>785.05</ele>
        <time>2011-10-23T10:48:35Z</time>
      </trkpt>
      <trkpt lat="43.63218" lon="2.7614">
        <ele>786.02</ele>
        <time>2011-10-23T10:48:52Z</time>
      </trkpt>
      <trkpt lat="43.63204" lon="2.76141">
        <ele>785.53</ele>
        <time>2011-10-23T10:49:06Z</time>
      </trkpt>
      <trkpt lat="43.63201" lon="2.76139">
        <ele>785.53</ele>
        <time>2011-10-23T10:49:14Z</time>
      </trkpt>
      <trkpt lat="43.632" lon="2.76133">
        <ele>784.57</ele>
        <time>2011-10-23T10:49:21Z</time>
      </trkpt>
      <trkpt lat="43.63183" lon="2.76131">
        <ele>781.21</ele>
        <time>2011-10-23T10:49:37Z</time>
      </trkpt>
      <trkpt lat="43.63182" lon="2.7613">
        <ele>780.73</ele>
        <time>2011-10-23T10:49:38Z</time>
      </trkpt>
      <trkpt lat="43.63176" lon="2.76122">
        <ele>780.73</ele>
        <time>2011-10-23T10:49:51Z</time>
      </trkpt>
      <trkpt lat="43.63176" lon="2.76122">
        <ele>780.73</ele>
        <time>2011-10-23T10:50:02Z</time>
      </trkpt>
      <trkpt lat="43.63172" lon="2.76118">
        <ele>780.73</ele>
        <time>2011-10-23T10:50:06Z</time>
      </trkpt>
      <trkpt lat="43.63162" lon="2.76098">
        <ele>779.77</ele>
        <time>2011-10-23T10:50:23Z</time>
      </trkpt>
      <trkpt lat="43.63161" lon="2.76098">
        <ele>778.81</ele>
        <time>2011-10-23T10:50:28Z</time>
      </trkpt>
      <trkpt lat="43.63146" lon="2.76105">
        <ele>776.4</ele>
        <time>2011-10-23T10:50:42Z</time>
      </trkpt>
      <trkpt lat="43.63142" lon="2.76094">
        <ele>772.56</ele>
        <time>2011-10-23T10:50:55Z</time>
      </trkpt>
      <trkpt lat="43.63141" lon="2.76072">
        <ele>767.75</ele>
        <time>2011-10-23T10:51:12Z</time>
      </trkpt>
      <trkpt lat="43.63143" lon="2.76063">
        <ele>767.75</ele>
        <time>2011-10-23T10:51:21Z</time>
      </trkpt>
      <trkpt lat="43.63159" lon="2.76052">
        <ele>774.96</ele>
        <time>2011-10-23T10:51:37Z</time>
      </trkpt>
      <trkpt lat="43.63163" lon="2.76051">
        <ele>776.88</ele>
        <time>2011-10-23T10:51:42Z</time>
      </trkpt>
      <trkpt lat="43.63178" lon="2.76045">
        <ele>780.73</ele>
        <time>2011-10-23T10:51:59Z</time>
      </trkpt>
      <trkpt lat="43.6319" lon="2.76039">
        <ele>782.17</ele>
        <time>2011-10-23T10:52:13Z</time>
      </trkpt>
      <trkpt lat="43.63194" lon="2.76037">
        <ele>781.69</ele>
        <time>2011-10-23T10:52:17Z</time>
      </trkpt>
      <trkpt lat="43.63213" lon="2.76031">
        <ele>782.17</ele>
        <time>2011-10-23T10:52:32Z</time>
      </trkpt>
      <trkpt lat="43.63228" lon="2.76024">
        <ele>782.65</ele>
        <time>2011-10-23T10:52:46Z</time>
      </trkpt>
      <trkpt lat="43.63243" lon="2.76019">
        <ele>782.17</ele>
        <time>2011-10-23T10:53:00Z</time>
      </trkpt>
      <trkpt lat="43.63258" lon="2.76019">
        <ele>782.17</ele>
        <time>2011-10-23T10:53:14Z</time>
      </trkpt>
      <trkpt lat="43.63263" lon="2.76019">
        <ele>782.17</ele>
        <time>2011-10-23T10:53:19Z</time>
      </trkpt>
      <trkpt lat="43.63277" lon="2.76015">
        <ele>782.17</ele>
        <time>2011-10-23T10:53:33Z</time>
      </trkpt>
      <trkpt lat="43.63276" lon="2.76009">
        <ele>780.73</ele>
        <time>2011-10-23T10:53:44Z</time>
      </trkpt>
      <trkpt lat="43.63283" lon="2.76006">
        <ele>781.69</ele>
        <time>2011-10-23T10:54:01Z</time>
      </trkpt>
      <trkpt lat="43.63296" lon="2.76004">
        <ele>780.25</ele>
        <time>2011-10-23T10:54:14Z</time>
      </trkpt>
      <trkpt lat="43.63319" lon="2.75989">
        <ele>783.13</ele>
        <time>2011-10-23T10:54:30Z</time>
      </trkpt>
      <trkpt lat="43.63323" lon="2.75988">
        <ele>783.61</ele>
        <time>2011-10-23T10:54:35Z</time>
      </trkpt>
      <trkpt lat="43.63335" lon="2.7599">
        <ele>786.5</ele>
        <time>2011-10-23T10:54:47Z</time>
      </trkpt>
      <trkpt lat="43.63354" lon="2.75987">
        <ele>789.86</ele>
        <time>2011-10-23T10:55:04Z</time>
      </trkpt>
      <trkpt lat="43.63372" lon="2.75978">
        <ele>790.34</ele>
        <time>2011-10-23T10:55:19Z</time>
      </trkpt>
      <trkpt lat="43.63388" lon="2.75965">
        <ele>787.94</ele>
        <time>2011-10-23T10:55:33Z</time>
      </trkpt>
      <trkpt lat="43.63397" lon="2.75955">
        <ele>786.5</ele>
        <time>2011-10-23T10:55:43Z</time>
      </trkpt>
      <trkpt lat="43.63412" lon="2.75936">
        <ele>786.98</ele>
        <time>2011-10-23T10:56:00Z</time>
      </trkpt>
      <trkpt lat="43.6342" lon="2.75916">
        <ele>787.46</ele>
        <time>2011-10-23T10:56:14Z</time>
      </trkpt>
      <trkpt lat="43.63421" lon="2.75913">
        <ele>786.98</ele>
        <time>2011-10-23T10:56:16Z</time>
      </trkpt>
      <trkpt lat="43.63426" lon="2.7589">
        <ele>786.02</ele>
        <time>2011-10-23T10:56:30Z</time>
      </trkpt>
      <trkpt lat="43.63427" lon="2.75874">
        <ele>786.02</ele>
        <time>2011-10-23T10:56:39Z</time>
      </trkpt>
      <trkpt lat="43.63427" lon="2.75847">
        <ele>785.05</ele>
        <time>2011-10-23T10:56:54Z</time>
      </trkpt>
      <trkpt lat="43.63425" lon="2.75834">
        <ele>784.09</ele>
        <time>2011-10-23T10:57:07Z</time>
      </trkpt>
      <trkpt lat="43.63422" lon="2.75828">
        <ele>783.61</ele>
        <time>2011-10-23T10:57:11Z</time>
      </trkpt>
      <trkpt lat="43.63419" lon="2.7582">
        <ele>782.17</ele>
        <time>2011-10-23T10:57:17Z</time>
      </trkpt>
      <trkpt lat="43.63418" lon="2.75815">
        <ele>781.69</ele>
        <time>2011-10-23T10:57:20Z</time>
      </trkpt>
      <trkpt lat="43.6341" lon="2.75798">
        <ele>780.73</ele>
        <time>2011-10-23T10:57:35Z</time>
      </trkpt>
      <trkpt lat="43.6341" lon="2.75798">
        <ele>780.73</ele>
        <time>2011-10-23T10:57:48Z</time>
      </trkpt>
      <trkpt lat="43.63409" lon="2.75792">
        <ele>780.73</ele>
        <time>2011-10-23T10:58:06Z</time>
      </trkpt>
      <trkpt lat="43.63402" lon="2.75773">
        <ele>781.69</ele>
        <time>2011-10-23T10:58:29Z</time>
      </trkpt>
      <trkpt lat="43.63386" lon="2.75737">
        <ele>783.13</ele>
        <time>2011-10-23T10:58:49Z</time>
      </trkpt>
      <trkpt lat="43.63376" lon="2.75714">
        <ele>784.57</ele>
        <time>2011-10-23T10:59:03Z</time>
      </trkpt>
      <trkpt lat="43.63374" lon="2.75703">
        <ele>784.09</ele>
        <time>2011-10-23T10:59:16Z</time>
      </trkpt>
      <trkpt lat="43.63376" lon="2.75702">
        <ele>782.65</ele>
        <time>2011-10-23T10:59:29Z</time>
      </trkpt>
      <trkpt lat="43.63362" lon="2.75684">
        <ele>783.13</ele>
        <time>2011-10-23T10:59:44Z</time>
      </trkpt>
      <trkpt lat="43.63356" lon="2.7568">
        <ele>782.65</ele>
        <time>2011-10-23T10:59:58Z</time>
      </trkpt>
      <trkpt lat="43.63353" lon="2.75678">
        <ele>780.73</ele>
        <time>2011-10-23T11:01:17Z</time>
      </trkpt>
      <trkpt lat="43.63357" lon="2.75683">
        <ele>778.81</ele>
        <time>2011-10-23T11:01:30Z</time>
      </trkpt>
      <trkpt lat="43.63357" lon="2.75683">
        <ele>778.81</ele>
        <time>2011-10-23T11:01:46Z</time>
      </trkpt>
      <trkpt lat="43.63356" lon="2.75683">
        <ele>778.81</ele>
        <time>2011-10-23T11:02:01Z</time>
      </trkpt>
      <trkpt lat="43.63355" lon="2.75682">
        <ele>778.81</ele>
        <time>2011-10-23T11:02:30Z</time>
      </trkpt>
      <trkpt lat="43.63349" lon="2.75675">
        <ele>777.84</ele>
        <time>2011-10-23T11:02:55Z</time>
      </trkpt>
      <trkpt lat="43.63346" lon="2.75674">
        <ele>777.36</ele>
        <time>2011-10-23T11:02:59Z</time>
      </trkpt>
      <trkpt lat="43.6334" lon="2.75646">
        <ele>779.29</ele>
        <time>2011-10-23T11:03:18Z</time>
      </trkpt>
      <trkpt lat="43.63343" lon="2.75633">
        <ele>780.73</ele>
        <time>2011-10-23T11:03:32Z</time>
      </trkpt>
      <trkpt lat="43.63341" lon="2.75634">
        <ele>780.73</ele>
        <time>2011-10-23T11:03:49Z</time>
      </trkpt>
      <trkpt lat="43.63341" lon="2.75634">
        <ele>780.73</ele>
        <time>2011-10-23T11:03:51Z</time>
      </trkpt>
      <trkpt lat="43.63339" lon="2.75626">
        <ele>779.77</ele>
        <time>2011-10-23T11:04:06Z</time>
      </trkpt>
      <trkpt lat="43.63336" lon="2.75622">
        <ele>778.32</ele>
        <time>2011-10-23T11:04:11Z</time>
      </trkpt>
      <trkpt lat="43.63331" lon="2.75612">
        <ele>776.88</ele>
        <time>2011-10-23T11:04:25Z</time>
      </trkpt>
      <trkpt lat="43.63327" lon="2.75609">
        <ele>775.92</ele>
        <time>2011-10-23T11:04:42Z</time>
      </trkpt>
      <trkpt lat="43.63331" lon="2.75615">
        <ele>773.52</ele>
        <time>2011-10-23T11:04:57Z</time>
      </trkpt>
      <trkpt lat="43.63333" lon="2.75613">
        <ele>774.48</ele>
        <time>2011-10-23T11:05:27Z</time>
      </trkpt>
      <trkpt lat="43.63333" lon="2.75614">
        <ele>774.48</ele>
        <time>2011-10-23T11:05:47Z</time>
      </trkpt>
      <trkpt lat="43.63353" lon="2.75626">
        <ele>774</ele>
        <time>2011-10-23T11:06:02Z</time>
      </trkpt>
      <trkpt lat="43.63372" lon="2.75632">
        <ele>773.04</ele>
        <time>2011-10-23T11:06:16Z</time>
      </trkpt>
      <trkpt lat="43.63393" lon="2.75627">
        <ele>774.96</ele>
        <time>2011-10-23T11:06:31Z</time>
      </trkpt>
      <trkpt lat="43.6341" lon="2.75621">
        <ele>776.88</ele>
        <time>2011-10-23T11:06:46Z</time>
      </trkpt>
      <trkpt lat="43.63412" lon="2.75623">
        <ele>777.84</ele>
        <time>2011-10-23T11:06:54Z</time>
      </trkpt>
      <trkpt lat="43.63432" lon="2.75613">
        <ele>780.25</ele>
        <time>2011-10-23T11:07:11Z</time>
      </trkpt>
      <trkpt lat="43.63439" lon="2.75607">
        <ele>779.77</ele>
        <time>2011-10-23T11:07:25Z</time>
      </trkpt>
      <trkpt lat="43.63452" lon="2.75606">
        <ele>778.32</ele>
        <time>2011-10-23T11:07:40Z</time>
      </trkpt>
      <trkpt lat="43.63453" lon="2.75605">
        <ele>778.32</ele>
        <time>2011-10-23T11:07:45Z</time>
      </trkpt>
      <trkpt lat="43.63459" lon="2.75598">
        <ele>777.84</ele>
        <time>2011-10-23T11:07:57Z</time>
      </trkpt>
      <trkpt lat="43.63469" lon="2.75588">
        <ele>777.84</ele>
        <time>2011-10-23T11:08:11Z</time>
      </trkpt>
      <trkpt lat="43.63486" lon="2.75565">
        <ele>776.4</ele>
        <time>2011-10-23T11:08:29Z</time>
      </trkpt>
      <trkpt lat="43.63499" lon="2.75541">
        <ele>777.36</ele>
        <time>2011-10-23T11:08:45Z</time>
      </trkpt>
      <trkpt lat="43.63511" lon="2.75509">
        <ele>776.88</ele>
        <time>2011-10-23T11:09:04Z</time>
      </trkpt>
      <trkpt lat="43.63524" lon="2.7549">
        <ele>777.84</ele>
        <time>2011-10-23T11:09:20Z</time>
      </trkpt>
      <trkpt lat="43.63527" lon="2.75484">
        <ele>778.32</ele>
        <time>2011-10-23T11:09:37Z</time>
      </trkpt>
      <trkpt lat="43.63528" lon="2.75476">
        <ele>778.32</ele>
        <time>2011-10-23T11:09:51Z</time>
      </trkpt>
      <trkpt lat="43.63533" lon="2.75474">
        <ele>781.21</ele>
        <time>2011-10-23T11:10:06Z</time>
      </trkpt>
      <trkpt lat="43.63532" lon="2.7547">
        <ele>782.65</ele>
        <time>2011-10-23T11:10:18Z</time>
      </trkpt>
      <trkpt lat="43.63531" lon="2.75466">
        <ele>783.61</ele>
        <time>2011-10-23T11:10:27Z</time>
      </trkpt>
      <trkpt lat="43.63536" lon="2.75469">
        <ele>786.02</ele>
        <time>2011-10-23T11:10:47Z</time>
      </trkpt>
      <trkpt lat="43.6354" lon="2.75476">
        <ele>786.98</ele>
        <time>2011-10-23T11:11:02Z</time>
      </trkpt>
      <trkpt lat="43.63546" lon="2.75484">
        <ele>788.9</ele>
        <time>2011-10-23T11:11:18Z</time>
      </trkpt>
      <trkpt lat="43.6355" lon="2.75488">
        <ele>788.9</ele>
        <time>2011-10-23T11:11:23Z</time>
      </trkpt>
      <trkpt lat="43.6356" lon="2.75496">
        <ele>788.42</ele>
        <time>2011-10-23T11:11:34Z</time>
      </trkpt>
      <trkpt lat="43.63576" lon="2.75484">
        <ele>788.42</ele>
        <time>2011-10-23T11:11:51Z</time>
      </trkpt>
      <trkpt lat="43.63588" lon="2.75462">
        <ele>788.9</ele>
        <time>2011-10-23T11:12:06Z</time>
      </trkpt>
      <trkpt lat="43.63592" lon="2.75447">
        <ele>788.9</ele>
        <time>2011-10-23T11:12:16Z</time>
      </trkpt>
      <trkpt lat="43.63599" lon="2.75427">
        <ele>789.86</ele>
        <time>2011-10-23T11:12:30Z</time>
      </trkpt>
      <trkpt lat="43.63604" lon="2.75407">
        <ele>789.38</ele>
        <time>2011-10-23T11:12:43Z</time>
      </trkpt>
      <trkpt lat="43.63605" lon="2.75405">
        <ele>789.38</ele>
        <time>2011-10-23T11:12:44Z</time>
      </trkpt>
      <trkpt lat="43.63608" lon="2.75391">
        <ele>788.42</ele>
        <time>2011-10-23T11:12:53Z</time>
      </trkpt>
      <trkpt lat="43.63617" lon="2.75368">
        <ele>786.02</ele>
        <time>2011-10-23T11:13:11Z</time>
      </trkpt>
      <trkpt lat="43.63633" lon="2.7536">
        <ele>787.46</ele>
        <time>2011-10-23T11:13:25Z</time>
      </trkpt>
      <trkpt lat="43.63635" lon="2.75359">
        <ele>787.94</ele>
        <time>2011-10-23T11:13:27Z</time>
      </trkpt>
      <trkpt lat="43.63649" lon="2.75348">
        <ele>788.9</ele>
        <time>2011-10-23T11:13:41Z</time>
      </trkpt>
      <trkpt lat="43.63664" lon="2.75339">
        <ele>789.86</ele>
        <time>2011-10-23T11:13:56Z</time>
      </trkpt>
      <trkpt lat="43.63673" lon="2.75335">
        <ele>789.38</ele>
        <time>2011-10-23T11:14:03Z</time>
      </trkpt>
      <trkpt lat="43.63686" lon="2.75333">
        <ele>788.9</ele>
        <time>2011-10-23T11:14:20Z</time>
      </trkpt>
      <trkpt lat="43.63694" lon="2.75333">
        <ele>788.9</ele>
        <time>2011-10-23T11:14:30Z</time>
      </trkpt>
      <trkpt lat="43.63713" lon="2.75343">
        <ele>789.38</ele>
        <time>2011-10-23T11:14:44Z</time>
      </trkpt>
      <trkpt lat="43.63731" lon="2.75353">
        <ele>787.46</ele>
        <time>2011-10-23T11:15:01Z</time>
      </trkpt>
      <trkpt lat="43.63732" lon="2.75352">
        <ele>786.98</ele>
        <time>2011-10-23T11:15:33Z</time>
      </trkpt>
      <trkpt lat="43.63732" lon="2.75353">
        <ele>787.46</ele>
        <time>2011-10-23T11:16:06Z</time>
      </trkpt>
      <trkpt lat="43.63733" lon="2.75353">
        <ele>787.46</ele>
        <time>2011-10-23T11:16:53Z</time>
      </trkpt>
      <trkpt lat="43.63733" lon="2.75352">
        <ele>785.53</ele>
        <time>2011-10-23T11:17:20Z</time>
      </trkpt>
      <trkpt lat="43.63735" lon="2.75353">
        <ele>785.05</ele>
        <time>2011-10-23T11:17:28Z</time>
      </trkpt>
      <trkpt lat="43.63751" lon="2.75367">
        <ele>784.09</ele>
        <time>2011-10-23T11:17:44Z</time>
      </trkpt>
      <trkpt lat="43.63763" lon="2.75372">
        <ele>782.17</ele>
        <time>2011-10-23T11:17:59Z</time>
      </trkpt>
      <trkpt lat="43.63773" lon="2.75375">
        <ele>782.65</ele>
        <time>2011-10-23T11:18:14Z</time>
      </trkpt>
      <trkpt lat="43.63787" lon="2.75378">
        <ele>782.65</ele>
        <time>2011-10-23T11:18:29Z</time>
      </trkpt>
      <trkpt lat="43.63791" lon="2.7538">
        <ele>782.65</ele>
        <time>2011-10-23T11:18:32Z</time>
      </trkpt>
      <trkpt lat="43.63796" lon="2.75382">
        <ele>783.13</ele>
        <time>2011-10-23T11:18:36Z</time>
      </trkpt>
      <trkpt lat="43.63812" lon="2.75391">
        <ele>784.57</ele>
        <time>2011-10-23T11:18:51Z</time>
      </trkpt>
      <trkpt lat="43.63818" lon="2.75393">
        <ele>785.05</ele>
        <time>2011-10-23T11:19:02Z</time>
      </trkpt>
      <trkpt lat="43.63829" lon="2.75396">
        <ele>785.53</ele>
        <time>2011-10-23T11:19:19Z</time>
      </trkpt>
      <trkpt lat="43.63842" lon="2.75407">
        <ele>786.98</ele>
        <time>2011-10-23T11:19:33Z</time>
      </trkpt>
      <trkpt lat="43.63843" lon="2.75409">
        <ele>787.46</ele>
        <time>2011-10-23T11:19:35Z</time>
      </trkpt>
      <trkpt lat="43.63848" lon="2.75412">
        <ele>786.5</ele>
        <time>2011-10-23T11:19:41Z</time>
      </trkpt>
      <trkpt lat="43.63857" lon="2.75417">
        <ele>786.02</ele>
        <time>2011-10-23T11:19:49Z</time>
      </trkpt>
      <trkpt lat="43.63871" lon="2.75426">
        <ele>786.02</ele>
        <time>2011-10-23T11:20:03Z</time>
      </trkpt>
      <trkpt lat="43.63876" lon="2.75431">
        <ele>786.02</ele>
        <time>2011-10-23T11:20:09Z</time>
      </trkpt>
      <trkpt lat="43.63889" lon="2.75443">
        <ele>787.46</ele>
        <time>2011-10-23T11:20:24Z</time>
      </trkpt>
      <trkpt lat="43.63903" lon="2.75461">
        <ele>786.02</ele>
        <time>2011-10-23T11:20:40Z</time>
      </trkpt>
      <trkpt lat="43.63915" lon="2.75477">
        <ele>789.86</ele>
        <time>2011-10-23T11:20:56Z</time>
      </trkpt>
      <trkpt lat="43.63928" lon="2.75489">
        <ele>790.82</ele>
        <time>2011-10-23T11:21:11Z</time>
      </trkpt>
      <trkpt lat="43.6394" lon="2.755">
        <ele>789.38</ele>
        <time>2011-10-23T11:21:25Z</time>
      </trkpt>
      <trkpt lat="43.63949" lon="2.75511">
        <ele>788.9</ele>
        <time>2011-10-23T11:21:42Z</time>
      </trkpt>
      <trkpt lat="43.63949" lon="2.75511">
        <ele>788.9</ele>
        <time>2011-10-23T11:21:53Z</time>
      </trkpt>
      <trkpt lat="43.63962" lon="2.75527">
        <ele>787.94</ele>
        <time>2011-10-23T11:22:07Z</time>
      </trkpt>
      <trkpt lat="43.63977" lon="2.7554">
        <ele>786.5</ele>
        <time>2011-10-23T11:22:20Z</time>
      </trkpt>
      <trkpt lat="43.63994" lon="2.75555">
        <ele>785.53</ele>
        <time>2011-10-23T11:22:38Z</time>
      </trkpt>
      <trkpt lat="43.64011" lon="2.75569">
        <ele>784.57</ele>
        <time>2011-10-23T11:22:55Z</time>
      </trkpt>
      <trkpt lat="43.64018" lon="2.75572">
        <ele>784.09</ele>
        <time>2011-10-23T11:23:02Z</time>
      </trkpt>
      <trkpt lat="43.6403" lon="2.75581">
        <ele>784.57</ele>
        <time>2011-10-23T11:23:14Z</time>
      </trkpt>
      <trkpt lat="43.64033" lon="2.7559">
        <ele>783.61</ele>
        <time>2011-10-23T11:23:25Z</time>
      </trkpt>
      <trkpt lat="43.64044" lon="2.75603">
        <ele>780.73</ele>
        <time>2011-10-23T11:23:42Z</time>
      </trkpt>
      <trkpt lat="43.64055" lon="2.75605">
        <ele>776.4</ele>
        <time>2011-10-23T11:23:57Z</time>
      </trkpt>
      <trkpt lat="43.64076" lon="2.75601">
        <ele>778.32</ele>
        <time>2011-10-23T11:24:13Z</time>
      </trkpt>
      <trkpt lat="43.64081" lon="2.756">
        <ele>779.29</ele>
        <time>2011-10-23T11:24:17Z</time>
      </trkpt>
      <trkpt lat="43.64087" lon="2.75595">
        <ele>777.84</ele>
        <time>2011-10-23T11:24:35Z</time>
      </trkpt>
      <trkpt lat="43.64106" lon="2.75586">
        <ele>779.77</ele>
        <time>2011-10-23T11:24:52Z</time>
      </trkpt>
      <trkpt lat="43.64107" lon="2.75585">
        <ele>779.77</ele>
        <time>2011-10-23T11:24:53Z</time>
      </trkpt>
      <trkpt lat="43.64123" lon="2.75572">
        <ele>780.25</ele>
        <time>2011-10-23T11:25:09Z</time>
      </trkpt>
      <trkpt lat="43.64123" lon="2.75571">
        <ele>780.25</ele>
        <time>2011-10-23T11:25:10Z</time>
      </trkpt>
      <trkpt lat="43.64129" lon="2.75561">
        <ele>778.81</ele>
        <time>2011-10-23T11:25:28Z</time>
      </trkpt>
      <trkpt lat="43.64133" lon="2.75553">
        <ele>779.29</ele>
        <time>2011-10-23T11:25:52Z</time>
      </trkpt>
      <trkpt lat="43.64143" lon="2.75547">
        <ele>776.88</ele>
        <time>2011-10-23T11:26:02Z</time>
      </trkpt>
      <trkpt lat="43.64168" lon="2.75549">
        <ele>782.17</ele>
        <time>2011-10-23T11:26:11Z</time>
      </trkpt>
      <trkpt lat="43.64182" lon="2.75556">
        <ele>786.5</ele>
        <time>2011-10-23T11:26:17Z</time>
      </trkpt>
      <trkpt lat="43.64194" lon="2.75565">
        <ele>787.46</ele>
        <time>2011-10-23T11:26:34Z</time>
      </trkpt>
      <trkpt lat="43.64197" lon="2.7557">
        <ele>787.46</ele>
        <time>2011-10-23T11:27:01Z</time>
      </trkpt>
      <trkpt lat="43.64198" lon="2.75571">
        <ele>787.46</ele>
        <time>2011-10-23T11:27:21Z</time>
      </trkpt>
      <trkpt lat="43.64207" lon="2.7558">
        <ele>789.86</ele>
        <time>2011-10-23T11:27:30Z</time>
      </trkpt>
      <trkpt lat="43.64211" lon="2.75581">
        <ele>790.34</ele>
        <time>2011-10-23T11:27:36Z</time>
      </trkpt>
      <trkpt lat="43.64219" lon="2.75577">
        <ele>790.82</ele>
        <time>2011-10-23T11:27:46Z</time>
      </trkpt>
      <trkpt lat="43.64229" lon="2.75563">
        <ele>791.78</ele>
        <time>2011-10-23T11:28:02Z</time>
      </trkpt>
      <trkpt lat="43.64229" lon="2.7556">
        <ele>791.78</ele>
        <time>2011-10-23T11:28:28Z</time>
      </trkpt>
      <trkpt lat="43.64236" lon="2.7554">
        <ele>794.19</ele>
        <time>2011-10-23T11:28:39Z</time>
      </trkpt>
      <trkpt lat="43.64238" lon="2.75524">
        <ele>799.95</ele>
        <time>2011-10-23T11:28:57Z</time>
      </trkpt>
      <trkpt lat="43.64241" lon="2.75518">
        <ele>801.88</ele>
        <time>2011-10-23T11:29:17Z</time>
      </trkpt>
      <trkpt lat="43.64251" lon="2.75513">
        <ele>802.84</ele>
        <time>2011-10-23T11:29:40Z</time>
      </trkpt>
      <trkpt lat="43.64263" lon="2.75504">
        <ele>805.72</ele>
        <time>2011-10-23T11:30:02Z</time>
      </trkpt>
      <trkpt lat="43.64269" lon="2.75505">
        <ele>806.68</ele>
        <time>2011-10-23T11:30:08Z</time>
      </trkpt>
      <trkpt lat="43.64282" lon="2.75509">
        <ele>808.13</ele>
        <time>2011-10-23T11:30:23Z</time>
      </trkpt>
      <trkpt lat="43.64296" lon="2.75518">
        <ele>809.09</ele>
        <time>2011-10-23T11:30:38Z</time>
      </trkpt>
      <trkpt lat="43.64307" lon="2.75517">
        <ele>811.01</ele>
        <time>2011-10-23T11:30:52Z</time>
      </trkpt>
      <trkpt lat="43.64311" lon="2.7552">
        <ele>810.53</ele>
        <time>2011-10-23T11:31:03Z</time>
      </trkpt>
      <trkpt lat="43.64331" lon="2.75536">
        <ele>811.49</ele>
        <time>2011-10-23T11:31:24Z</time>
      </trkpt>
      <trkpt lat="43.64339" lon="2.75546">
        <ele>812.45</ele>
        <time>2011-10-23T11:31:38Z</time>
      </trkpt>
      <trkpt lat="43.64358" lon="2.75556">
        <ele>813.41</ele>
        <time>2011-10-23T11:31:55Z</time>
      </trkpt>
      <trkpt lat="43.64373" lon="2.75564">
        <ele>815.82</ele>
        <time>2011-10-23T11:32:10Z</time>
      </trkpt>
      <trkpt lat="43.6438" lon="2.75557">
        <ele>816.78</ele>
        <time>2011-10-23T11:32:19Z</time>
      </trkpt>
      <trkpt lat="43.64382" lon="2.75541">
        <ele>819.66</ele>
        <time>2011-10-23T11:32:34Z</time>
      </trkpt>
      <trkpt lat="43.6438" lon="2.75535">
        <ele>819.66</ele>
        <time>2011-10-23T11:32:39Z</time>
      </trkpt>
      <trkpt lat="43.64377" lon="2.75529">
        <ele>819.66</ele>
        <time>2011-10-23T11:32:43Z</time>
      </trkpt>
      <trkpt lat="43.64368" lon="2.7551">
        <ele>821.58</ele>
        <time>2011-10-23T11:32:58Z</time>
      </trkpt>
      <trkpt lat="43.64359" lon="2.75492">
        <ele>823.51</ele>
        <time>2011-10-23T11:33:13Z</time>
      </trkpt>
      <trkpt lat="43.64357" lon="2.75487">
        <ele>823.99</ele>
        <time>2011-10-23T11:33:17Z</time>
      </trkpt>
      <trkpt lat="43.64347" lon="2.75469">
        <ele>825.43</ele>
        <time>2011-10-23T11:33:31Z</time>
      </trkpt>
      <trkpt lat="43.64339" lon="2.75451">
        <ele>826.87</ele>
        <time>2011-10-23T11:33:46Z</time>
      </trkpt>
      <trkpt lat="43.64336" lon="2.75433">
        <ele>827.35</ele>
        <time>2011-10-23T11:33:59Z</time>
      </trkpt>
      <trkpt lat="43.64338" lon="2.75408">
        <ele>828.79</ele>
        <time>2011-10-23T11:34:16Z</time>
      </trkpt>
      <trkpt lat="43.64353" lon="2.75393">
        <ele>830.24</ele>
        <time>2011-10-23T11:34:32Z</time>
      </trkpt>
      <trkpt lat="43.6436" lon="2.7539">
        <ele>829.76</ele>
        <time>2011-10-23T11:34:39Z</time>
      </trkpt>
      <trkpt lat="43.64379" lon="2.75395">
        <ele>830.72</ele>
        <time>2011-10-23T11:34:56Z</time>
      </trkpt>
      <trkpt lat="43.64395" lon="2.754">
        <ele>831.68</ele>
        <time>2011-10-23T11:35:11Z</time>
      </trkpt>
      <trkpt lat="43.64415" lon="2.75409">
        <ele>832.64</ele>
        <time>2011-10-23T11:35:29Z</time>
      </trkpt>
      <trkpt lat="43.64418" lon="2.7541">
        <ele>832.64</ele>
        <time>2011-10-23T11:35:32Z</time>
      </trkpt>
      <trkpt lat="43.64435" lon="2.75417">
        <ele>833.6</ele>
        <time>2011-10-23T11:35:48Z</time>
      </trkpt>
      <trkpt lat="43.64453" lon="2.75425">
        <ele>836.48</ele>
        <time>2011-10-23T11:36:03Z</time>
      </trkpt>
      <trkpt lat="43.64455" lon="2.75424">
        <ele>836.48</ele>
        <time>2011-10-23T11:36:10Z</time>
      </trkpt>
      <trkpt lat="43.64468" lon="2.75427">
        <ele>838.41</ele>
        <time>2011-10-23T11:36:22Z</time>
      </trkpt>
      <trkpt lat="43.64488" lon="2.75425">
        <ele>841.29</ele>
        <time>2011-10-23T11:36:39Z</time>
      </trkpt>
      <trkpt lat="43.645" lon="2.75417">
        <ele>842.25</ele>
        <time>2011-10-23T11:36:51Z</time>
      </trkpt>
      <trkpt lat="43.64503" lon="2.75414">
        <ele>842.25</ele>
        <time>2011-10-23T11:36:55Z</time>
      </trkpt>
      <trkpt lat="43.64509" lon="2.75404">
        <ele>842.73</ele>
        <time>2011-10-23T11:37:06Z</time>
      </trkpt>
      <trkpt lat="43.6452" lon="2.75394">
        <ele>843.69</ele>
        <time>2011-10-23T11:37:21Z</time>
      </trkpt>
      <trkpt lat="43.64534" lon="2.7538">
        <ele>844.66</ele>
        <time>2011-10-23T11:37:38Z</time>
      </trkpt>
      <trkpt lat="43.64548" lon="2.75367">
        <ele>844.66</ele>
        <time>2011-10-23T11:37:53Z</time>
      </trkpt>
      <trkpt lat="43.64562" lon="2.75353">
        <ele>845.14</ele>
        <time>2011-10-23T11:38:09Z</time>
      </trkpt>
      <trkpt lat="43.64568" lon="2.7535">
        <ele>845.14</ele>
        <time>2011-10-23T11:38:15Z</time>
      </trkpt>
      <trkpt lat="43.64574" lon="2.75342">
        <ele>844.66</ele>
        <time>2011-10-23T11:38:23Z</time>
      </trkpt>
      <trkpt lat="43.64577" lon="2.75339">
        <ele>844.66</ele>
        <time>2011-10-23T11:38:27Z</time>
      </trkpt>
      <trkpt lat="43.64583" lon="2.75332">
        <ele>844.66</ele>
        <time>2011-10-23T11:38:34Z</time>
      </trkpt>
      <trkpt lat="43.64592" lon="2.75326">
        <ele>845.14</ele>
        <time>2011-10-23T11:38:44Z</time>
      </trkpt>
      <trkpt lat="43.64594" lon="2.75324">
        <ele>845.62</ele>
        <time>2011-10-23T11:38:46Z</time>
      </trkpt>
      <trkpt lat="43.64602" lon="2.75317">
        <ele>848.02</ele>
        <time>2011-10-23T11:39:03Z</time>
      </trkpt>
      <trkpt lat="43.64604" lon="2.75317">
        <ele>847.06</ele>
        <time>2011-10-23T11:39:43Z</time>
      </trkpt>
      <trkpt lat="43.64603" lon="2.75315">
        <ele>847.54</ele>
        <time>2011-10-23T11:40:01Z</time>
      </trkpt>
      <trkpt lat="43.64603" lon="2.75313">
        <ele>848.02</ele>
        <time>2011-10-23T11:41:12Z</time>
      </trkpt>
      <trkpt lat="43.64603" lon="2.75313">
        <ele>848.02</ele>
        <time>2011-10-23T11:41:55Z</time>
      </trkpt>
      <trkpt lat="43.64604" lon="2.75314">
        <ele>848.5</ele>
        <time>2011-10-23T11:42:29Z</time>
      </trkpt>
      <trkpt lat="43.64604" lon="2.75314">
        <ele>848.02</ele>
        <time>2011-10-23T11:43:03Z</time>
      </trkpt>
      <trkpt lat="43.64607" lon="2.75313">
        <ele>847.54</ele>
        <time>2011-10-23T11:43:33Z</time>
      </trkpt>
      <trkpt lat="43.64616" lon="2.75304">
        <ele>846.1</ele>
        <time>2011-10-23T11:43:47Z</time>
      </trkpt>
      <trkpt lat="43.64626" lon="2.75295">
        <ele>846.1</ele>
        <time>2011-10-23T11:44:03Z</time>
      </trkpt>
      <trkpt lat="43.64645" lon="2.75279">
        <ele>846.1</ele>
        <time>2011-10-23T11:44:22Z</time>
      </trkpt>
      <trkpt lat="43.64664" lon="2.75274">
        <ele>847.06</ele>
        <time>2011-10-23T11:44:38Z</time>
      </trkpt>
      <trkpt lat="43.64684" lon="2.75275">
        <ele>847.54</ele>
        <time>2011-10-23T11:44:54Z</time>
      </trkpt>
      <trkpt lat="43.64706" lon="2.75278">
        <ele>848.98</ele>
        <time>2011-10-23T11:45:12Z</time>
      </trkpt>
      <trkpt lat="43.64725" lon="2.75281">
        <ele>849.46</ele>
        <time>2011-10-23T11:45:28Z</time>
      </trkpt>
      <trkpt lat="43.64743" lon="2.7528">
        <ele>850.42</ele>
        <time>2011-10-23T11:45:44Z</time>
      </trkpt>
      <trkpt lat="43.64761" lon="2.7528">
        <ele>852.35</ele>
        <time>2011-10-23T11:45:59Z</time>
      </trkpt>
      <trkpt lat="43.64775" lon="2.75282">
        <ele>853.31</ele>
        <time>2011-10-23T11:46:13Z</time>
      </trkpt>
      <trkpt lat="43.64794" lon="2.75285">
        <ele>854.75</ele>
        <time>2011-10-23T11:46:29Z</time>
      </trkpt>
      <trkpt lat="43.64806" lon="2.75288">
        <ele>856.19</ele>
        <time>2011-10-23T11:46:40Z</time>
      </trkpt>
      <trkpt lat="43.64825" lon="2.75296">
        <ele>857.15</ele>
        <time>2011-10-23T11:46:55Z</time>
      </trkpt>
      <trkpt lat="43.64841" lon="2.75306">
        <ele>858.59</ele>
        <time>2011-10-23T11:47:10Z</time>
      </trkpt>
      <trkpt lat="43.64853" lon="2.75317">
        <ele>861</ele>
        <time>2011-10-23T11:47:25Z</time>
      </trkpt>
      <trkpt lat="43.64856" lon="2.75319">
        <ele>861.48</ele>
        <time>2011-10-23T11:47:28Z</time>
      </trkpt>
      <trkpt lat="43.64857" lon="2.7532">
        <ele>861.96</ele>
        <time>2011-10-23T11:47:30Z</time>
      </trkpt>
      <trkpt lat="43.64867" lon="2.75331">
        <ele>865.8</ele>
        <time>2011-10-23T11:47:44Z</time>
      </trkpt>
      <trkpt lat="43.64865" lon="2.75337">
        <ele>868.21</ele>
        <time>2011-10-23T11:47:54Z</time>
      </trkpt>
      <trkpt lat="43.64851" lon="2.75344">
        <ele>870.61</ele>
        <time>2011-10-23T11:48:08Z</time>
      </trkpt>
      <trkpt lat="43.64845" lon="2.75348">
        <ele>870.61</ele>
        <time>2011-10-23T11:48:14Z</time>
      </trkpt>
      <trkpt lat="43.64835" lon="2.75365">
        <ele>872.05</ele>
        <time>2011-10-23T11:48:31Z</time>
      </trkpt>
      <trkpt lat="43.64833" lon="2.75366">
        <ele>872.53</ele>
        <time>2011-10-23T11:48:33Z</time>
      </trkpt>
      <trkpt lat="43.64825" lon="2.75374">
        <ele>873.01</ele>
        <time>2011-10-23T11:48:42Z</time>
      </trkpt>
      <trkpt lat="43.6482" lon="2.75382">
        <ele>873.98</ele>
        <time>2011-10-23T11:48:50Z</time>
      </trkpt>
      <trkpt lat="43.64811" lon="2.75398">
        <ele>875.9</ele>
        <time>2011-10-23T11:49:05Z</time>
      </trkpt>
      <trkpt lat="43.64802" lon="2.75413">
        <ele>876.86</ele>
        <time>2011-10-23T11:49:18Z</time>
      </trkpt>
      <trkpt lat="43.64801" lon="2.75414">
        <ele>876.86</ele>
        <time>2011-10-23T11:49:19Z</time>
      </trkpt>
      <trkpt lat="43.64788" lon="2.75431">
        <ele>876.38</ele>
        <time>2011-10-23T11:49:35Z</time>
      </trkpt>
      <trkpt lat="43.64784" lon="2.75436">
        <ele>875.9</ele>
        <time>2011-10-23T11:49:43Z</time>
      </trkpt>
      <trkpt lat="43.64784" lon="2.75441">
        <ele>875.42</ele>
        <time>2011-10-23T11:50:02Z</time>
      </trkpt>
      <trkpt lat="43.64788" lon="2.75437">
        <ele>873.98</ele>
        <time>2011-10-23T11:50:21Z</time>
      </trkpt>
      <trkpt lat="43.64789" lon="2.75436">
        <ele>873.98</ele>
        <time>2011-10-23T11:50:44Z</time>
      </trkpt>
      <trkpt lat="43.64788" lon="2.75437">
        <ele>873.98</ele>
        <time>2011-10-23T11:51:04Z</time>
      </trkpt>
      <trkpt lat="43.64788" lon="2.75438">
        <ele>873.98</ele>
        <time>2011-10-23T11:51:21Z</time>
      </trkpt>
      <trkpt lat="43.64788" lon="2.75439">
        <ele>873.5</ele>
        <time>2011-10-23T11:51:52Z</time>
      </trkpt>
      <trkpt lat="43.64787" lon="2.7545">
        <ele>874.46</ele>
        <time>2011-10-23T11:52:05Z</time>
      </trkpt>
      <trkpt lat="43.6479" lon="2.75455">
        <ele>874.94</ele>
        <time>2011-10-23T11:52:19Z</time>
      </trkpt>
      <trkpt lat="43.64799" lon="2.75465">
        <ele>875.9</ele>
        <time>2011-10-23T11:52:34Z</time>
      </trkpt>
      <trkpt lat="43.64801" lon="2.75466">
        <ele>876.86</ele>
        <time>2011-10-23T11:52:37Z</time>
      </trkpt>
      <trkpt lat="43.64811" lon="2.75473">
        <ele>880.22</ele>
        <time>2011-10-23T11:52:51Z</time>
      </trkpt>
      <trkpt lat="43.64822" lon="2.75481">
        <ele>883.11</ele>
        <time>2011-10-23T11:53:05Z</time>
      </trkpt>
      <trkpt lat="43.64825" lon="2.75482">
        <ele>883.59</ele>
        <time>2011-10-23T11:53:08Z</time>
      </trkpt>
      <trkpt lat="43.64835" lon="2.75487">
        <ele>885.99</ele>
        <time>2011-10-23T11:53:22Z</time>
      </trkpt>
      <trkpt lat="43.64845" lon="2.75494">
        <ele>888.88</ele>
        <time>2011-10-23T11:53:36Z</time>
      </trkpt>
      <trkpt lat="43.64856" lon="2.75502">
        <ele>892.24</ele>
        <time>2011-10-23T11:53:51Z</time>
      </trkpt>
      <trkpt lat="43.64863" lon="2.75509">
        <ele>893.68</ele>
        <time>2011-10-23T11:54:02Z</time>
      </trkpt>
      <trkpt lat="43.64865" lon="2.7551">
        <ele>894.16</ele>
        <time>2011-10-23T11:54:04Z</time>
      </trkpt>
      <trkpt lat="43.64872" lon="2.75515">
        <ele>895.61</ele>
        <time>2011-10-23T11:54:13Z</time>
      </trkpt>
      <trkpt lat="43.64884" lon="2.7552">
        <ele>898.01</ele>
        <time>2011-10-23T11:54:28Z</time>
      </trkpt>
      <trkpt lat="43.64887" lon="2.75522">
        <ele>898.01</ele>
        <time>2011-10-23T11:54:31Z</time>
      </trkpt>
      <trkpt lat="43.64898" lon="2.75526">
        <ele>899.93</ele>
        <time>2011-10-23T11:54:46Z</time>
      </trkpt>
      <trkpt lat="43.64909" lon="2.75531">
        <ele>902.33</ele>
        <time>2011-10-23T11:54:59Z</time>
      </trkpt>
      <trkpt lat="43.64911" lon="2.75532">
        <ele>902.82</ele>
        <time>2011-10-23T11:55:01Z</time>
      </trkpt>
      <trkpt lat="43.64917" lon="2.75534">
        <ele>903.3</ele>
        <time>2011-10-23T11:55:07Z</time>
      </trkpt>
      <trkpt lat="43.64918" lon="2.75535">
        <ele>903.78</ele>
        <time>2011-10-23T11:55:09Z</time>
      </trkpt>
      <trkpt lat="43.64933" lon="2.75539">
        <ele>907.14</ele>
        <time>2011-10-23T11:55:23Z</time>
      </trkpt>
      <trkpt lat="43.64944" lon="2.75544">
        <ele>908.58</ele>
        <time>2011-10-23T11:55:34Z</time>
      </trkpt>
      <trkpt lat="43.64951" lon="2.75549">
        <ele>909.06</ele>
        <time>2011-10-23T11:55:42Z</time>
      </trkpt>
      <trkpt lat="43.64953" lon="2.7555">
        <ele>909.54</ele>
        <time>2011-10-23T11:55:44Z</time>
      </trkpt>
      <trkpt lat="43.64968" lon="2.75561">
        <ele>910.51</ele>
        <time>2011-10-23T11:56:00Z</time>
      </trkpt>
      <trkpt lat="43.6497" lon="2.75563">
        <ele>910.03</ele>
        <time>2011-10-23T11:56:03Z</time>
      </trkpt>
      <trkpt lat="43.64979" lon="2.75568">
        <ele>910.99</ele>
        <time>2011-10-23T11:56:12Z</time>
      </trkpt>
      <trkpt lat="43.6499" lon="2.75569">
        <ele>911.95</ele>
        <time>2011-10-23T11:56:22Z</time>
      </trkpt>
      <trkpt lat="43.65002" lon="2.75575">
        <ele>912.91</ele>
        <time>2011-10-23T11:56:36Z</time>
      </trkpt>
      <trkpt lat="43.65004" lon="2.75578">
        <ele>912.91</ele>
        <time>2011-10-23T11:56:50Z</time>
      </trkpt>
      <trkpt lat="43.65004" lon="2.75578">
        <ele>912.91</ele>
        <time>2011-10-23T11:57:23Z</time>
      </trkpt>
      <trkpt lat="43.65004" lon="2.75579">
        <ele>913.39</ele>
        <time>2011-10-23T11:57:51Z</time>
      </trkpt>
      <trkpt lat="43.65004" lon="2.75583">
        <ele>912.91</ele>
        <time>2011-10-23T11:58:07Z</time>
      </trkpt>
      <trkpt lat="43.65002" lon="2.75582">
        <ele>912.91</ele>
        <time>2011-10-23T11:58:30Z</time>
      </trkpt>
      <trkpt lat="43.65002" lon="2.75582">
        <ele>912.91</ele>
        <time>2011-10-23T11:59:01Z</time>
      </trkpt>
      <trkpt lat="43.64993" lon="2.75586">
        <ele>913.39</ele>
        <time>2011-10-23T11:59:09Z</time>
      </trkpt>
      <trkpt lat="43.64993" lon="2.75588">
        <ele>913.39</ele>
        <time>2011-10-23T11:59:11Z</time>
      </trkpt>
      <trkpt lat="43.64992" lon="2.75588">
        <ele>913.87</ele>
        <time>2011-10-23T11:59:29Z</time>
      </trkpt>
      <trkpt lat="43.65002" lon="2.75583">
        <ele>913.39</ele>
        <time>2011-10-23T12:00:05Z</time>
      </trkpt>
      <trkpt lat="43.65005" lon="2.75579">
        <ele>912.91</ele>
        <time>2011-10-23T12:00:18Z</time>
      </trkpt>
      <trkpt lat="43.65006" lon="2.7558">
        <ele>912.91</ele>
        <time>2011-10-23T12:00:53Z</time>
      </trkpt>
      <trkpt lat="43.65006" lon="2.7558">
        <ele>913.39</ele>
        <time>2011-10-23T12:01:08Z</time>
      </trkpt>
      <trkpt lat="43.65011" lon="2.75571">
        <ele>911.95</ele>
        <time>2011-10-23T12:01:41Z</time>
      </trkpt>
      <trkpt lat="43.65011" lon="2.7557">
        <ele>911.95</ele>
        <time>2011-10-23T12:02:28Z</time>
      </trkpt>
      <trkpt lat="43.65011" lon="2.7557">
        <ele>911.95</ele>
        <time>2011-10-23T12:03:07Z</time>
      </trkpt>
      <trkpt lat="43.65011" lon="2.7557">
        <ele>912.43</ele>
        <time>2011-10-23T12:04:01Z</time>
      </trkpt>
      <trkpt lat="43.65014" lon="2.75569">
        <ele>911.95</ele>
        <time>2011-10-23T12:04:13Z</time>
      </trkpt>
      <trkpt lat="43.65036" lon="2.75564">
        <ele>911.47</ele>
        <time>2011-10-23T12:04:33Z</time>
      </trkpt>
      <trkpt lat="43.65054" lon="2.75562">
        <ele>910.99</ele>
        <time>2011-10-23T12:04:49Z</time>
      </trkpt>
      <trkpt lat="43.65072" lon="2.75556">
        <ele>910.03</ele>
        <time>2011-10-23T12:05:06Z</time>
      </trkpt>
      <trkpt lat="43.65089" lon="2.75549">
        <ele>909.54</ele>
        <time>2011-10-23T12:05:21Z</time>
      </trkpt>
      <trkpt lat="43.65111" lon="2.75541">
        <ele>908.1</ele>
        <time>2011-10-23T12:05:40Z</time>
      </trkpt>
      <trkpt lat="43.65116" lon="2.75533">
        <ele>908.1</ele>
        <time>2011-10-23T12:05:46Z</time>
      </trkpt>
      <trkpt lat="43.6512" lon="2.75523">
        <ele>905.7</ele>
        <time>2011-10-23T12:05:53Z</time>
      </trkpt>
      <trkpt lat="43.65122" lon="2.75512">
        <ele>905.22</ele>
        <time>2011-10-23T12:05:59Z</time>
      </trkpt>
      <trkpt lat="43.65122" lon="2.75495">
        <ele>902.82</ele>
        <time>2011-10-23T12:06:10Z</time>
      </trkpt>
      <trkpt lat="43.65147" lon="2.75497">
        <ele>902.82</ele>
        <time>2011-10-23T12:06:27Z</time>
      </trkpt>
      <trkpt lat="43.65166" lon="2.75496">
        <ele>903.78</ele>
        <time>2011-10-23T12:06:43Z</time>
      </trkpt>
      <trkpt lat="43.65184" lon="2.75494">
        <ele>902.82</ele>
        <time>2011-10-23T12:06:57Z</time>
      </trkpt>
      <trkpt lat="43.65206" lon="2.75492">
        <ele>903.78</ele>
        <time>2011-10-23T12:07:15Z</time>
      </trkpt>
      <trkpt lat="43.65228" lon="2.75489">
        <ele>904.74</ele>
        <time>2011-10-23T12:07:33Z</time>
      </trkpt>
      <trkpt lat="43.65246" lon="2.75486">
        <ele>906.18</ele>
        <time>2011-10-23T12:07:48Z</time>
      </trkpt>
      <trkpt lat="43.65251" lon="2.75483">
        <ele>906.18</ele>
        <time>2011-10-23T12:08:02Z</time>
      </trkpt>
      <trkpt lat="43.6527" lon="2.75477">
        <ele>906.66</ele>
        <time>2011-10-23T12:08:17Z</time>
      </trkpt>
      <trkpt lat="43.65292" lon="2.75471">
        <ele>903.3</ele>
        <time>2011-10-23T12:08:34Z</time>
      </trkpt>
      <trkpt lat="43.65303" lon="2.75462">
        <ele>903.78</ele>
        <time>2011-10-23T12:08:44Z</time>
      </trkpt>
      <trkpt lat="43.65305" lon="2.75461">
        <ele>903.78</ele>
        <time>2011-10-23T12:09:18Z</time>
      </trkpt>
      <trkpt lat="43.65306" lon="2.7546">
        <ele>903.78</ele>
        <time>2011-10-23T12:10:04Z</time>
      </trkpt>
      <trkpt lat="43.65306" lon="2.75459">
        <ele>903.3</ele>
        <time>2011-10-23T12:13:13Z</time>
      </trkpt>
      <trkpt lat="43.65306" lon="2.75459">
        <ele>903.3</ele>
        <time>2011-10-23T12:13:19Z</time>
      </trkpt>
      <trkpt lat="43.65305" lon="2.7546">
        <ele>903.3</ele>
        <time>2011-10-23T12:13:51Z</time>
      </trkpt>
      <trkpt lat="43.65312" lon="2.75461">
        <ele>904.26</ele>
        <time>2011-10-23T12:14:04Z</time>
      </trkpt>
      <trkpt lat="43.65322" lon="2.75458">
        <ele>904.74</ele>
        <time>2011-10-23T12:14:20Z</time>
      </trkpt>
      <trkpt lat="43.65332" lon="2.75458">
        <ele>905.22</ele>
        <time>2011-10-23T12:14:37Z</time>
      </trkpt>
      <trkpt lat="43.65332" lon="2.75459">
        <ele>905.22</ele>
        <time>2011-10-23T12:14:57Z</time>
      </trkpt>
      <trkpt lat="43.65337" lon="2.75456">
        <ele>905.7</ele>
        <time>2011-10-23T12:15:38Z</time>
      </trkpt>
      <trkpt lat="43.6535" lon="2.75451">
        <ele>906.66</ele>
        <time>2011-10-23T12:15:51Z</time>
      </trkpt>
      <trkpt lat="43.65351" lon="2.75449">
        <ele>907.14</ele>
        <time>2011-10-23T12:15:53Z</time>
      </trkpt>
      <trkpt lat="43.65359" lon="2.75447">
        <ele>906.66</ele>
        <time>2011-10-23T12:15:59Z</time>
      </trkpt>
      <trkpt lat="43.65368" lon="2.75443">
        <ele>906.66</ele>
        <time>2011-10-23T12:16:16Z</time>
      </trkpt>
      <trkpt lat="43.65371" lon="2.75441">
        <ele>906.18</ele>
        <time>2011-10-23T12:16:19Z</time>
      </trkpt>
      <trkpt lat="43.65385" lon="2.75432">
        <ele>904.26</ele>
        <time>2011-10-23T12:16:34Z</time>
      </trkpt>
      <trkpt lat="43.65392" lon="2.75432">
        <ele>905.22</ele>
        <time>2011-10-23T12:16:40Z</time>
      </trkpt>
      <trkpt lat="43.65405" lon="2.75436">
        <ele>906.18</ele>
        <time>2011-10-23T12:16:54Z</time>
      </trkpt>
      <trkpt lat="43.6541" lon="2.75441">
        <ele>906.18</ele>
        <time>2011-10-23T12:17:00Z</time>
      </trkpt>
      <trkpt lat="43.65427" lon="2.75452">
        <ele>906.66</ele>
        <time>2011-10-23T12:17:18Z</time>
      </trkpt>
      <trkpt lat="43.65438" lon="2.75464">
        <ele>908.1</ele>
        <time>2011-10-23T12:17:32Z</time>
      </trkpt>
      <trkpt lat="43.65447" lon="2.7548">
        <ele>911.95</ele>
        <time>2011-10-23T12:17:47Z</time>
      </trkpt>
      <trkpt lat="43.6545" lon="2.75494">
        <ele>916.27</ele>
        <time>2011-10-23T12:18:04Z</time>
      </trkpt>
      <trkpt lat="43.65457" lon="2.75508">
        <ele>916.27</ele>
        <time>2011-10-23T12:18:21Z</time>
      </trkpt>
      <trkpt lat="43.65466" lon="2.75527">
        <ele>915.79</ele>
        <time>2011-10-23T12:18:38Z</time>
      </trkpt>
      <trkpt lat="43.65471" lon="2.75539">
        <ele>917.24</ele>
        <time>2011-10-23T12:18:47Z</time>
      </trkpt>
      <trkpt lat="43.6548" lon="2.75561">
        <ele>918.68</ele>
        <time>2011-10-23T12:19:04Z</time>
      </trkpt>
      <trkpt lat="43.65488" lon="2.75584">
        <ele>920.6</ele>
        <time>2011-10-23T12:19:21Z</time>
      </trkpt>
      <trkpt lat="43.65496" lon="2.75606">
        <ele>922.52</ele>
        <time>2011-10-23T12:19:36Z</time>
      </trkpt>
      <trkpt lat="43.655" lon="2.75614">
        <ele>923.96</ele>
        <time>2011-10-23T12:19:42Z</time>
      </trkpt>
      <trkpt lat="43.65503" lon="2.7563">
        <ele>921.56</ele>
        <time>2011-10-23T12:19:57Z</time>
      </trkpt>
      <trkpt lat="43.65506" lon="2.75641">
        <ele>922.04</ele>
        <time>2011-10-23T12:20:12Z</time>
      </trkpt>
      <trkpt lat="43.655" lon="2.75638">
        <ele>920.6</ele>
        <time>2011-10-23T12:20:20Z</time>
      </trkpt>
      <trkpt lat="43.65497" lon="2.75638">
        <ele>920.12</ele>
        <time>2011-10-23T12:20:31Z</time>
      </trkpt>
      <trkpt lat="43.65503" lon="2.75649">
        <ele>920.6</ele>
        <time>2011-10-23T12:20:47Z</time>
      </trkpt>
      <trkpt lat="43.65503" lon="2.75651">
        <ele>921.08</ele>
        <time>2011-10-23T12:21:23Z</time>
      </trkpt>
      <trkpt lat="43.65498" lon="2.75657">
        <ele>920.6</ele>
        <time>2011-10-23T12:21:37Z</time>
      </trkpt>
      <trkpt lat="43.655" lon="2.75658">
        <ele>921.08</ele>
        <time>2011-10-23T12:22:25Z</time>
      </trkpt>
      <trkpt lat="43.655" lon="2.75658">
        <ele>921.08</ele>
        <time>2011-10-23T12:22:47Z</time>
      </trkpt>
      <trkpt lat="43.65502" lon="2.7565">
        <ele>922.04</ele>
        <time>2011-10-23T12:23:21Z</time>
      </trkpt>
      <trkpt lat="43.65501" lon="2.7564">
        <ele>923.48</ele>
        <time>2011-10-23T12:23:41Z</time>
      </trkpt>
      <trkpt lat="43.65501" lon="2.75638">
        <ele>925.41</ele>
        <time>2011-10-23T12:23:58Z</time>
      </trkpt>
      <trkpt lat="43.655" lon="2.75639">
        <ele>926.85</ele>
        <time>2011-10-23T12:24:19Z</time>
      </trkpt>
      <trkpt lat="43.655" lon="2.75641">
        <ele>926.85</ele>
        <time>2011-10-23T12:24:20Z</time>
      </trkpt>
      <trkpt lat="43.65504" lon="2.75647">
        <ele>926.85</ele>
        <time>2011-10-23T12:24:32Z</time>
      </trkpt>
      <trkpt lat="43.65505" lon="2.7565">
        <ele>925.89</ele>
        <time>2011-10-23T12:25:11Z</time>
      </trkpt>
      <trkpt lat="43.65506" lon="2.75667">
        <ele>922.52</ele>
        <time>2011-10-23T12:25:26Z</time>
      </trkpt>
      <trkpt lat="43.65506" lon="2.75672">
        <ele>923</ele>
        <time>2011-10-23T12:25:29Z</time>
      </trkpt>
      <trkpt lat="43.65513" lon="2.75684">
        <ele>923.48</ele>
        <time>2011-10-23T12:25:44Z</time>
      </trkpt>
      <trkpt lat="43.65513" lon="2.75685">
        <ele>923</ele>
        <time>2011-10-23T12:26:05Z</time>
      </trkpt>
      <trkpt lat="43.65513" lon="2.75683">
        <ele>923</ele>
        <time>2011-10-23T12:27:17Z</time>
      </trkpt>
      <trkpt lat="43.65516" lon="2.75694">
        <ele>922.52</ele>
        <time>2011-10-23T12:27:32Z</time>
      </trkpt>
      <trkpt lat="43.65517" lon="2.75696">
        <ele>922.52</ele>
        <time>2011-10-23T12:27:46Z</time>
      </trkpt>
      <trkpt lat="43.65518" lon="2.75697">
        <ele>922.04</ele>
        <time>2011-10-23T12:27:49Z</time>
      </trkpt>
      <trkpt lat="43.65519" lon="2.75699">
        <ele>921.56</ele>
        <time>2011-10-23T12:28:00Z</time>
      </trkpt>
      <trkpt lat="43.65521" lon="2.75693">
        <ele>921.56</ele>
        <time>2011-10-23T12:28:07Z</time>
      </trkpt>
      <trkpt lat="43.65521" lon="2.75685">
        <ele>921.08</ele>
        <time>2011-10-23T12:28:11Z</time>
      </trkpt>
      <trkpt lat="43.65521" lon="2.7568">
        <ele>921.08</ele>
        <time>2011-10-23T12:28:14Z</time>
      </trkpt>
      <trkpt lat="43.65524" lon="2.75665">
        <ele>922.52</ele>
        <time>2011-10-23T12:28:32Z</time>
      </trkpt>
      <trkpt lat="43.65522" lon="2.75656">
        <ele>923.48</ele>
        <time>2011-10-23T12:28:46Z</time>
      </trkpt>
      <trkpt lat="43.65518" lon="2.75648">
        <ele>923.96</ele>
        <time>2011-10-23T12:29:05Z</time>
      </trkpt>
      <trkpt lat="43.65514" lon="2.75645">
        <ele>923.96</ele>
        <time>2011-10-23T12:29:29Z</time>
      </trkpt>
      <trkpt lat="43.65512" lon="2.75638">
        <ele>924.45</ele>
        <time>2011-10-23T12:29:48Z</time>
      </trkpt>
      <trkpt lat="43.6551" lon="2.75633">
        <ele>925.89</ele>
        <time>2011-10-23T12:30:13Z</time>
      </trkpt>
      <trkpt lat="43.65515" lon="2.75641">
        <ele>927.33</ele>
        <time>2011-10-23T12:30:42Z</time>
      </trkpt>
      <trkpt lat="43.65525" lon="2.75656">
        <ele>925.41</ele>
        <time>2011-10-23T12:30:57Z</time>
      </trkpt>
      <trkpt lat="43.65532" lon="2.75665">
        <ele>924.45</ele>
        <time>2011-10-23T12:31:11Z</time>
      </trkpt>
      <trkpt lat="43.65539" lon="2.7568">
        <ele>927.81</ele>
        <time>2011-10-23T12:31:25Z</time>
      </trkpt>
      <trkpt lat="43.6554" lon="2.75681">
        <ele>927.81</ele>
        <time>2011-10-23T12:31:26Z</time>
      </trkpt>
      <trkpt lat="43.65547" lon="2.75698">
        <ele>931.65</ele>
        <time>2011-10-23T12:31:42Z</time>
      </trkpt>
      <trkpt lat="43.65553" lon="2.75705">
        <ele>934.06</ele>
        <time>2011-10-23T12:31:50Z</time>
      </trkpt>
      <trkpt lat="43.65555" lon="2.75708">
        <ele>935.02</ele>
        <time>2011-10-23T12:31:53Z</time>
      </trkpt>
      <trkpt lat="43.65561" lon="2.75712">
        <ele>935.5</ele>
        <time>2011-10-23T12:32:11Z</time>
      </trkpt>
      <trkpt lat="43.65571" lon="2.75718">
        <ele>934.54</ele>
        <time>2011-10-23T12:32:25Z</time>
      </trkpt>
      <trkpt lat="43.6558" lon="2.7572">
        <ele>934.06</ele>
        <time>2011-10-23T12:32:37Z</time>
      </trkpt>
      <trkpt lat="43.65593" lon="2.75722">
        <ele>935.02</ele>
        <time>2011-10-23T12:32:51Z</time>
      </trkpt>
      <trkpt lat="43.65611" lon="2.75716">
        <ele>937.42</ele>
        <time>2011-10-23T12:33:06Z</time>
      </trkpt>
      <trkpt lat="43.65619" lon="2.75709">
        <ele>936.46</ele>
        <time>2011-10-23T12:33:14Z</time>
      </trkpt>
      <trkpt lat="43.65633" lon="2.75696">
        <ele>935.5</ele>
        <time>2011-10-23T12:33:32Z</time>
      </trkpt>
      <trkpt lat="43.65633" lon="2.75696">
        <ele>934.06</ele>
        <time>2011-10-23T12:33:57Z</time>
      </trkpt>
      <trkpt lat="43.65633" lon="2.75696">
        <ele>933.58</ele>
        <time>2011-10-23T12:34:09Z</time>
      </trkpt>
      <trkpt lat="43.65634" lon="2.7569">
        <ele>931.65</ele>
        <time>2011-10-23T12:34:47Z</time>
      </trkpt>
      <trkpt lat="43.65636" lon="2.75692">
        <ele>930.21</ele>
        <time>2011-10-23T12:35:19Z</time>
      </trkpt>
      <trkpt lat="43.65637" lon="2.75692">
        <ele>928.77</ele>
        <time>2011-10-23T12:36:05Z</time>
      </trkpt>
      <trkpt lat="43.65639" lon="2.75691">
        <ele>927.81</ele>
        <time>2011-10-23T12:36:36Z</time>
      </trkpt>
      <trkpt lat="43.65638" lon="2.75686">
        <ele>926.37</ele>
        <time>2011-10-23T12:36:56Z</time>
      </trkpt>
      <trkpt lat="43.65638" lon="2.75685">
        <ele>926.37</ele>
        <time>2011-10-23T12:37:03Z</time>
      </trkpt>
      <trkpt lat="43.65642" lon="2.75683">
        <ele>926.37</ele>
        <time>2011-10-23T12:37:07Z</time>
      </trkpt>
      <trkpt lat="43.65644" lon="2.75682">
        <ele>926.85</ele>
        <time>2011-10-23T12:37:53Z</time>
      </trkpt>
      <trkpt lat="43.65644" lon="2.75689">
        <ele>928.29</ele>
        <time>2011-10-23T12:38:04Z</time>
      </trkpt>
      <trkpt lat="43.6564" lon="2.75692">
        <ele>928.77</ele>
        <time>2011-10-23T12:38:10Z</time>
      </trkpt>
      <trkpt lat="43.6564" lon="2.75693">
        <ele>927.81</ele>
        <time>2011-10-23T12:38:40Z</time>
      </trkpt>
      <trkpt lat="43.65643" lon="2.7569">
        <ele>925.41</ele>
        <time>2011-10-23T12:39:19Z</time>
      </trkpt>
      <trkpt lat="43.65643" lon="2.7569">
        <ele>925.41</ele>
        <time>2011-10-23T12:39:34Z</time>
      </trkpt>
      <trkpt lat="43.65667" lon="2.75684">
        <ele>928.77</ele>
        <time>2011-10-23T12:39:49Z</time>
      </trkpt>
      <trkpt lat="43.6568" lon="2.75677">
        <ele>922.04</ele>
        <time>2011-10-23T12:40:02Z</time>
      </trkpt>
      <trkpt lat="43.65681" lon="2.75676">
        <ele>920.6</ele>
        <time>2011-10-23T12:40:04Z</time>
      </trkpt>
      <trkpt lat="43.65707" lon="2.75678">
        <ele>914.83</ele>
        <time>2011-10-23T12:40:19Z</time>
      </trkpt>
      <trkpt lat="43.65727" lon="2.7567">
        <ele>907.62</ele>
        <time>2011-10-23T12:40:35Z</time>
      </trkpt>
      <trkpt lat="43.65732" lon="2.75668">
        <ele>906.18</ele>
        <time>2011-10-23T12:40:39Z</time>
      </trkpt>
      <trkpt lat="43.65753" lon="2.7567">
        <ele>902.33</ele>
        <time>2011-10-23T12:40:55Z</time>
      </trkpt>
      <trkpt lat="43.65774" lon="2.75673">
        <ele>901.85</ele>
        <time>2011-10-23T12:41:11Z</time>
      </trkpt>
      <trkpt lat="43.65786" lon="2.75683">
        <ele>903.3</ele>
        <time>2011-10-23T12:41:24Z</time>
      </trkpt>
      <trkpt lat="43.65788" lon="2.75687">
        <ele>903.3</ele>
        <time>2011-10-23T12:41:27Z</time>
      </trkpt>
      <trkpt lat="43.65808" lon="2.757">
        <ele>904.26</ele>
        <time>2011-10-23T12:41:45Z</time>
      </trkpt>
      <trkpt lat="43.65815" lon="2.75707">
        <ele>907.14</ele>
        <time>2011-10-23T12:41:52Z</time>
      </trkpt>
      <trkpt lat="43.65827" lon="2.75726">
        <ele>906.66</ele>
        <time>2011-10-23T12:42:08Z</time>
      </trkpt>
      <trkpt lat="43.65842" lon="2.75743">
        <ele>901.37</ele>
        <time>2011-10-23T12:42:24Z</time>
      </trkpt>
      <trkpt lat="43.65855" lon="2.7576">
        <ele>898.97</ele>
        <time>2011-10-23T12:42:36Z</time>
      </trkpt>
      <trkpt lat="43.65869" lon="2.75777">
        <ele>894.16</ele>
        <time>2011-10-23T12:42:53Z</time>
      </trkpt>
      <trkpt lat="43.6588" lon="2.75791">
        <ele>892.24</ele>
        <time>2011-10-23T12:43:08Z</time>
      </trkpt>
      <trkpt lat="43.65887" lon="2.75799">
        <ele>886.95</ele>
        <time>2011-10-23T12:43:25Z</time>
      </trkpt>
      <trkpt lat="43.6589" lon="2.75803">
        <ele>883.59</ele>
        <time>2011-10-23T12:43:38Z</time>
      </trkpt>
      <trkpt lat="43.65885" lon="2.75812">
        <ele>880.22</ele>
        <time>2011-10-23T12:43:52Z</time>
      </trkpt>
      <trkpt lat="43.65883" lon="2.75814">
        <ele>879.74</ele>
        <time>2011-10-23T12:43:54Z</time>
      </trkpt>
      <trkpt lat="43.65867" lon="2.75819">
        <ele>877.34</ele>
        <time>2011-10-23T12:44:10Z</time>
      </trkpt>
      <trkpt lat="43.65852" lon="2.75822">
        <ele>878.78</ele>
        <time>2011-10-23T12:44:25Z</time>
      </trkpt>
      <trkpt lat="43.65841" lon="2.75822">
        <ele>879.26</ele>
        <time>2011-10-23T12:44:46Z</time>
      </trkpt>
      <trkpt lat="43.6583" lon="2.75833">
        <ele>875.42</ele>
        <time>2011-10-23T12:45:00Z</time>
      </trkpt>
      <trkpt lat="43.65831" lon="2.75846">
        <ele>874.46</ele>
        <time>2011-10-23T12:45:06Z</time>
      </trkpt>
      <trkpt lat="43.65836" lon="2.75868">
        <ele>874.46</ele>
        <time>2011-10-23T12:45:23Z</time>
      </trkpt>
      <trkpt lat="43.65837" lon="2.75871">
        <ele>874.46</ele>
        <time>2011-10-23T12:45:25Z</time>
      </trkpt>
      <trkpt lat="43.65841" lon="2.75882">
        <ele>875.9</ele>
        <time>2011-10-23T12:45:33Z</time>
      </trkpt>
      <trkpt lat="43.65839" lon="2.75895">
        <ele>878.3</ele>
        <time>2011-10-23T12:45:43Z</time>
      </trkpt>
      <trkpt lat="43.65835" lon="2.75895">
        <ele>875.9</ele>
        <time>2011-10-23T12:46:02Z</time>
      </trkpt>
      <trkpt lat="43.65828" lon="2.75895">
        <ele>876.86</ele>
        <time>2011-10-23T12:46:18Z</time>
      </trkpt>
      <trkpt lat="43.65828" lon="2.75895">
        <ele>876.86</ele>
        <time>2011-10-23T12:46:36Z</time>
      </trkpt>
      <trkpt lat="43.65801" lon="2.759">
        <ele>878.3</ele>
        <time>2011-10-23T12:46:51Z</time>
      </trkpt>
      <trkpt lat="43.65791" lon="2.75905">
        <ele>875.9</ele>
        <time>2011-10-23T12:46:59Z</time>
      </trkpt>
      <trkpt lat="43.65781" lon="2.75923">
        <ele>871.09</ele>
        <time>2011-10-23T12:47:13Z</time>
      </trkpt>
      <trkpt lat="43.65775" lon="2.7595">
        <ele>864.84</ele>
        <time>2011-10-23T12:47:28Z</time>
      </trkpt>
      <trkpt lat="43.65774" lon="2.75958">
        <ele>862.44</ele>
        <time>2011-10-23T12:47:35Z</time>
      </trkpt>
      <trkpt lat="43.65772" lon="2.75981">
        <ele>860.52</ele>
        <time>2011-10-23T12:47:46Z</time>
      </trkpt>
      <trkpt lat="43.65771" lon="2.76006">
        <ele>854.27</ele>
        <time>2011-10-23T12:48:01Z</time>
      </trkpt>
      <trkpt lat="43.65769" lon="2.7603">
        <ele>847.54</ele>
        <time>2011-10-23T12:48:16Z</time>
      </trkpt>
      <trkpt lat="43.6577" lon="2.76049">
        <ele>836.48</ele>
        <time>2011-10-23T12:48:30Z</time>
      </trkpt>
      <trkpt lat="43.65774" lon="2.76068">
        <ele>826.39</ele>
        <time>2011-10-23T12:48:42Z</time>
      </trkpt>
      <trkpt lat="43.65776" lon="2.76087">
        <ele>817.26</ele>
        <time>2011-10-23T12:48:56Z</time>
      </trkpt>
      <trkpt lat="43.65776" lon="2.76106">
        <ele>812.45</ele>
        <time>2011-10-23T12:49:09Z</time>
      </trkpt>
      <trkpt lat="43.65777" lon="2.76122">
        <ele>809.57</ele>
        <time>2011-10-23T12:49:21Z</time>
      </trkpt>
      <trkpt lat="43.6578" lon="2.76137">
        <ele>809.09</ele>
        <time>2011-10-23T12:49:28Z</time>
      </trkpt>
      <trkpt lat="43.65778" lon="2.76158">
        <ele>813.89</ele>
        <time>2011-10-23T12:49:43Z</time>
      </trkpt>
      <trkpt lat="43.65773" lon="2.76175">
        <ele>819.66</ele>
        <time>2011-10-23T12:49:56Z</time>
      </trkpt>
      <trkpt lat="43.65773" lon="2.76195">
        <ele>820.62</ele>
        <time>2011-10-23T12:50:11Z</time>
      </trkpt>
      <trkpt lat="43.65775" lon="2.7621">
        <ele>823.99</ele>
        <time>2011-10-23T12:50:21Z</time>
      </trkpt>
      <trkpt lat="43.65777" lon="2.76227">
        <ele>826.87</ele>
        <time>2011-10-23T12:50:37Z</time>
      </trkpt>
      <trkpt lat="43.65794" lon="2.76214">
        <ele>827.83</ele>
        <time>2011-10-23T12:50:55Z</time>
      </trkpt>
      <trkpt lat="43.65807" lon="2.76204">
        <ele>832.16</ele>
        <time>2011-10-23T12:51:11Z</time>
      </trkpt>
      <trkpt lat="43.6582" lon="2.76192">
        <ele>832.64</ele>
        <time>2011-10-23T12:51:27Z</time>
      </trkpt>
      <trkpt lat="43.65828" lon="2.76185">
        <ele>832.64</ele>
        <time>2011-10-23T12:51:36Z</time>
      </trkpt>
      <trkpt lat="43.65843" lon="2.76177">
        <ele>832.64</ele>
        <time>2011-10-23T12:51:52Z</time>
      </trkpt>
      <trkpt lat="43.65858" lon="2.76171">
        <ele>830.24</ele>
        <time>2011-10-23T12:52:06Z</time>
      </trkpt>
      <trkpt lat="43.65863" lon="2.76171">
        <ele>828.31</ele>
        <time>2011-10-23T12:52:11Z</time>
      </trkpt>
      <trkpt lat="43.65867" lon="2.76176">
        <ele>827.83</ele>
        <time>2011-10-23T12:52:16Z</time>
      </trkpt>
      <trkpt lat="43.65869" lon="2.76182">
        <ele>827.83</ele>
        <time>2011-10-23T12:52:21Z</time>
      </trkpt>
      <trkpt lat="43.65876" lon="2.76195">
        <ele>824.47</ele>
        <time>2011-10-23T12:52:36Z</time>
      </trkpt>
      <trkpt lat="43.65871" lon="2.76204">
        <ele>819.18</ele>
        <time>2011-10-23T12:52:51Z</time>
      </trkpt>
      <trkpt lat="43.65866" lon="2.76213">
        <ele>816.3</ele>
        <time>2011-10-23T12:53:09Z</time>
      </trkpt>
      <trkpt lat="43.65862" lon="2.76219">
        <ele>814.37</ele>
        <time>2011-10-23T12:53:16Z</time>
      </trkpt>
      <trkpt lat="43.65852" lon="2.76236">
        <ele>812.45</ele>
        <time>2011-10-23T12:53:32Z</time>
      </trkpt>
      <trkpt lat="43.65843" lon="2.76259">
        <ele>811.49</ele>
        <time>2011-10-23T12:53:48Z</time>
      </trkpt>
      <trkpt lat="43.65842" lon="2.76263">
        <ele>810.53</ele>
        <time>2011-10-23T12:53:52Z</time>
      </trkpt>
      <trkpt lat="43.65839" lon="2.76279">
        <ele>809.09</ele>
        <time>2011-10-23T12:54:03Z</time>
      </trkpt>
      <trkpt lat="43.6584" lon="2.76284">
        <ele>808.61</ele>
        <time>2011-10-23T12:54:06Z</time>
      </trkpt>
      <trkpt lat="43.65855" lon="2.76302">
        <ele>805.24</ele>
        <time>2011-10-23T12:54:21Z</time>
      </trkpt>
      <trkpt lat="43.65862" lon="2.76308">
        <ele>803.8</ele>
        <time>2011-10-23T12:54:35Z</time>
      </trkpt>
      <trkpt lat="43.65867" lon="2.7632">
        <ele>801.4</ele>
        <time>2011-10-23T12:54:46Z</time>
      </trkpt>
      <trkpt lat="43.65865" lon="2.76331">
        <ele>798.99</ele>
        <time>2011-10-23T12:55:01Z</time>
      </trkpt>
      <trkpt lat="43.65862" lon="2.76336">
        <ele>799.95</ele>
        <time>2011-10-23T12:55:05Z</time>
      </trkpt>
      <trkpt lat="43.65856" lon="2.76353">
        <ele>803.8</ele>
        <time>2011-10-23T12:55:16Z</time>
      </trkpt>
      <trkpt lat="43.65849" lon="2.76368">
        <ele>805.24</ele>
        <time>2011-10-23T12:55:32Z</time>
      </trkpt>
      <trkpt lat="43.65836" lon="2.76383">
        <ele>805.72</ele>
        <time>2011-10-23T12:55:48Z</time>
      </trkpt>
      <trkpt lat="43.65822" lon="2.764">
        <ele>807.64</ele>
        <time>2011-10-23T12:56:02Z</time>
      </trkpt>
      <trkpt lat="43.65811" lon="2.76421">
        <ele>807.64</ele>
        <time>2011-10-23T12:56:18Z</time>
      </trkpt>
      <trkpt lat="43.65807" lon="2.76441">
        <ele>809.57</ele>
        <time>2011-10-23T12:56:34Z</time>
      </trkpt>
      <trkpt lat="43.65803" lon="2.76454">
        <ele>810.53</ele>
        <time>2011-10-23T12:56:45Z</time>
      </trkpt>
      <trkpt lat="43.65798" lon="2.76466">
        <ele>810.53</ele>
        <time>2011-10-23T12:56:55Z</time>
      </trkpt>
      <trkpt lat="43.65795" lon="2.76489">
        <ele>811.97</ele>
        <time>2011-10-23T12:57:11Z</time>
      </trkpt>
      <trkpt lat="43.65791" lon="2.76508">
        <ele>814.85</ele>
        <time>2011-10-23T12:57:27Z</time>
      </trkpt>
      <trkpt lat="43.65787" lon="2.76527">
        <ele>817.26</ele>
        <time>2011-10-23T12:57:41Z</time>
      </trkpt>
      <trkpt lat="43.65783" lon="2.76548">
        <ele>819.18</ele>
        <time>2011-10-23T12:57:56Z</time>
      </trkpt>
      <trkpt lat="43.6578" lon="2.76568">
        <ele>820.14</ele>
        <time>2011-10-23T12:58:10Z</time>
      </trkpt>
      <trkpt lat="43.6578" lon="2.76587">
        <ele>822.06</ele>
        <time>2011-10-23T12:58:24Z</time>
      </trkpt>
      <trkpt lat="43.65777" lon="2.76606">
        <ele>825.91</ele>
        <time>2011-10-23T12:58:38Z</time>
      </trkpt>
      <trkpt lat="43.65775" lon="2.76617">
        <ele>826.39</ele>
        <time>2011-10-23T12:58:47Z</time>
      </trkpt>
      <trkpt lat="43.65771" lon="2.76633">
        <ele>829.27</ele>
        <time>2011-10-23T12:58:58Z</time>
      </trkpt>
      <trkpt lat="43.6577" lon="2.76658">
        <ele>832.16</ele>
        <time>2011-10-23T12:59:14Z</time>
      </trkpt>
      <trkpt lat="43.65771" lon="2.76658">
        <ele>832.64</ele>
        <time>2011-10-23T12:59:53Z</time>
      </trkpt>
      <trkpt lat="43.6577" lon="2.76668">
        <ele>831.68</ele>
        <time>2011-10-23T13:00:45Z</time>
      </trkpt>
      <trkpt lat="43.65771" lon="2.76676">
        <ele>831.2</ele>
        <time>2011-10-23T13:00:50Z</time>
      </trkpt>
      <trkpt lat="43.65775" lon="2.76702">
        <ele>830.24</ele>
        <time>2011-10-23T13:01:06Z</time>
      </trkpt>
      <trkpt lat="43.65777" lon="2.76727">
        <ele>829.27</ele>
        <time>2011-10-23T13:01:22Z</time>
      </trkpt>
      <trkpt lat="43.65777" lon="2.76752">
        <ele>828.79</ele>
        <time>2011-10-23T13:01:37Z</time>
      </trkpt>
      <trkpt lat="43.6578" lon="2.76763">
        <ele>828.31</ele>
        <time>2011-10-23T13:01:44Z</time>
      </trkpt>
      <trkpt lat="43.65785" lon="2.76769">
        <ele>827.83</ele>
        <time>2011-10-23T13:01:49Z</time>
      </trkpt>
      <trkpt lat="43.65804" lon="2.76783">
        <ele>825.43</ele>
        <time>2011-10-23T13:02:05Z</time>
      </trkpt>
      <trkpt lat="43.65812" lon="2.76793">
        <ele>824.95</ele>
        <time>2011-10-23T13:02:15Z</time>
      </trkpt>
      <trkpt lat="43.65821" lon="2.76811">
        <ele>825.91</ele>
        <time>2011-10-23T13:02:29Z</time>
      </trkpt>
      <trkpt lat="43.65835" lon="2.76828">
        <ele>825.43</ele>
        <time>2011-10-23T13:02:45Z</time>
      </trkpt>
      <trkpt lat="43.65836" lon="2.76829">
        <ele>825.43</ele>
        <time>2011-10-23T13:02:46Z</time>
      </trkpt>
      <trkpt lat="43.65849" lon="2.76842">
        <ele>825.43</ele>
        <time>2011-10-23T13:03:01Z</time>
      </trkpt>
      <trkpt lat="43.65858" lon="2.76858">
        <ele>822.55</ele>
        <time>2011-10-23T13:03:15Z</time>
      </trkpt>
      <trkpt lat="43.65869" lon="2.76872">
        <ele>817.26</ele>
        <time>2011-10-23T13:03:29Z</time>
      </trkpt>
      <trkpt lat="43.65872" lon="2.76887">
        <ele>813.89</ele>
        <time>2011-10-23T13:03:42Z</time>
      </trkpt>
      <trkpt lat="43.65878" lon="2.76907">
        <ele>810.05</ele>
        <time>2011-10-23T13:03:56Z</time>
      </trkpt>
      <trkpt lat="43.65886" lon="2.76925">
        <ele>806.68</ele>
        <time>2011-10-23T13:04:11Z</time>
      </trkpt>
      <trkpt lat="43.65895" lon="2.76945">
        <ele>802.84</ele>
        <time>2011-10-23T13:04:25Z</time>
      </trkpt>
      <trkpt lat="43.65903" lon="2.76958">
        <ele>800.92</ele>
        <time>2011-10-23T13:04:34Z</time>
      </trkpt>
      <trkpt lat="43.65904" lon="2.7696">
        <ele>800.92</ele>
        <time>2011-10-23T13:04:36Z</time>
      </trkpt>
      <trkpt lat="43.65914" lon="2.76981">
        <ele>801.4</ele>
        <time>2011-10-23T13:04:51Z</time>
      </trkpt>
      <trkpt lat="43.65925" lon="2.76996">
        <ele>797.55</ele>
        <time>2011-10-23T13:05:05Z</time>
      </trkpt>
      <trkpt lat="43.65937" lon="2.77007">
        <ele>793.71</ele>
        <time>2011-10-23T13:05:19Z</time>
      </trkpt>
      <trkpt lat="43.6594" lon="2.77009">
        <ele>793.22</ele>
        <time>2011-10-23T13:05:22Z</time>
      </trkpt>
      <trkpt lat="43.65947" lon="2.77011">
        <ele>790.82</ele>
        <time>2011-10-23T13:05:28Z</time>
      </trkpt>
      <trkpt lat="43.65962" lon="2.77015">
        <ele>787.46</ele>
        <time>2011-10-23T13:05:44Z</time>
      </trkpt>
      <trkpt lat="43.65977" lon="2.7701">
        <ele>784.57</ele>
        <time>2011-10-23T13:05:57Z</time>
      </trkpt>
      <trkpt lat="43.65991" lon="2.77011">
        <ele>782.17</ele>
        <time>2011-10-23T13:06:11Z</time>
      </trkpt>
      <trkpt lat="43.66005" lon="2.77002">
        <ele>778.81</ele>
        <time>2011-10-23T13:06:24Z</time>
      </trkpt>
      <trkpt lat="43.66013" lon="2.77">
        <ele>775.44</ele>
        <time>2011-10-23T13:06:38Z</time>
      </trkpt>
      <trkpt lat="43.66014" lon="2.77004">
        <ele>775.44</ele>
        <time>2011-10-23T13:06:41Z</time>
      </trkpt>
      <trkpt lat="43.6601" lon="2.77009">
        <ele>776.4</ele>
        <time>2011-10-23T13:06:57Z</time>
      </trkpt>
      <trkpt lat="43.65996" lon="2.77014">
        <ele>780.73</ele>
        <time>2011-10-23T13:07:08Z</time>
      </trkpt>
      <trkpt lat="43.65996" lon="2.77017">
        <ele>782.17</ele>
        <time>2011-10-23T13:07:11Z</time>
      </trkpt>
      <trkpt lat="43.65998" lon="2.77031">
        <ele>784.09</ele>
        <time>2011-10-23T13:07:17Z</time>
      </trkpt>
      <trkpt lat="43.66008" lon="2.77055">
        <ele>785.53</ele>
        <time>2011-10-23T13:07:33Z</time>
      </trkpt>
      <trkpt lat="43.66013" lon="2.77066">
        <ele>785.05</ele>
        <time>2011-10-23T13:07:43Z</time>
      </trkpt>
      <trkpt lat="43.66019" lon="2.77073">
        <ele>786.02</ele>
        <time>2011-10-23T13:07:58Z</time>
      </trkpt>
      <trkpt lat="43.66019" lon="2.77076">
        <ele>786.02</ele>
        <time>2011-10-23T13:08:10Z</time>
      </trkpt>
      <trkpt lat="43.66025" lon="2.77084">
        <ele>785.53</ele>
        <time>2011-10-23T13:08:28Z</time>
      </trkpt>
      <trkpt lat="43.66031" lon="2.77087">
        <ele>785.53</ele>
        <time>2011-10-23T13:08:38Z</time>
      </trkpt>
      <trkpt lat="43.66039" lon="2.77078">
        <ele>784.09</ele>
        <time>2011-10-23T13:08:46Z</time>
      </trkpt>
      <trkpt lat="43.66044" lon="2.7707">
        <ele>782.17</ele>
        <time>2011-10-23T13:08:52Z</time>
      </trkpt>
      <trkpt lat="43.66046" lon="2.77067">
        <ele>781.69</ele>
        <time>2011-10-23T13:08:54Z</time>
      </trkpt>
      <trkpt lat="43.66061" lon="2.77052">
        <ele>782.17</ele>
        <time>2011-10-23T13:09:09Z</time>
      </trkpt>
      <trkpt lat="43.66074" lon="2.7704">
        <ele>782.17</ele>
        <time>2011-10-23T13:09:22Z</time>
      </trkpt>
      <trkpt lat="43.66092" lon="2.77025">
        <ele>778.81</ele>
        <time>2011-10-23T13:09:39Z</time>
      </trkpt>
      <trkpt lat="43.66108" lon="2.77012">
        <ele>779.29</ele>
        <time>2011-10-23T13:09:56Z</time>
      </trkpt>
      <trkpt lat="43.66118" lon="2.77005">
        <ele>780.25</ele>
        <time>2011-10-23T13:10:05Z</time>
      </trkpt>
      <trkpt lat="43.66122" lon="2.77">
        <ele>780.25</ele>
        <time>2011-10-23T13:10:08Z</time>
      </trkpt>
      <trkpt lat="43.66126" lon="2.76997">
        <ele>780.25</ele>
        <time>2011-10-23T13:10:13Z</time>
      </trkpt>
      <trkpt lat="43.66138" lon="2.76989">
        <ele>778.81</ele>
        <time>2011-10-23T13:10:24Z</time>
      </trkpt>
      <trkpt lat="43.6615" lon="2.76992">
        <ele>777.36</ele>
        <time>2011-10-23T13:10:38Z</time>
      </trkpt>
      <trkpt lat="43.66156" lon="2.76996">
        <ele>779.29</ele>
        <time>2011-10-23T13:10:52Z</time>
      </trkpt>
      <trkpt lat="43.66162" lon="2.76998">
        <ele>783.13</ele>
        <time>2011-10-23T13:10:59Z</time>
      </trkpt>
      <trkpt lat="43.66163" lon="2.77">
        <ele>784.09</ele>
        <time>2011-10-23T13:11:03Z</time>
      </trkpt>
      <trkpt lat="43.6616" lon="2.77007">
        <ele>788.42</ele>
        <time>2011-10-23T13:11:13Z</time>
      </trkpt>
      <trkpt lat="43.66151" lon="2.77017">
        <ele>789.38</ele>
        <time>2011-10-23T13:11:28Z</time>
      </trkpt>
      <trkpt lat="43.66143" lon="2.77026">
        <ele>789.86</ele>
        <time>2011-10-23T13:11:41Z</time>
      </trkpt>
      <trkpt lat="43.66142" lon="2.77027">
        <ele>789.86</ele>
        <time>2011-10-23T13:11:44Z</time>
      </trkpt>
      <trkpt lat="43.66134" lon="2.77038">
        <ele>791.78</ele>
        <time>2011-10-23T13:11:59Z</time>
      </trkpt>
      <trkpt lat="43.66125" lon="2.77053">
        <ele>794.67</ele>
        <time>2011-10-23T13:12:16Z</time>
      </trkpt>
      <trkpt lat="43.6612" lon="2.7706">
        <ele>796.59</ele>
        <time>2011-10-23T13:12:27Z</time>
      </trkpt>
      <trkpt lat="43.66111" lon="2.77067">
        <ele>798.99</ele>
        <time>2011-10-23T13:12:39Z</time>
      </trkpt>
      <trkpt lat="43.66109" lon="2.77072">
        <ele>799.95</ele>
        <time>2011-10-23T13:12:43Z</time>
      </trkpt>
      <trkpt lat="43.66103" lon="2.77084">
        <ele>801.4</ele>
        <time>2011-10-23T13:12:57Z</time>
      </trkpt>
      <trkpt lat="43.66099" lon="2.77093">
        <ele>802.36</ele>
        <time>2011-10-23T13:13:08Z</time>
      </trkpt>
      <trkpt lat="43.66098" lon="2.77093">
        <ele>802.36</ele>
        <time>2011-10-23T13:13:09Z</time>
      </trkpt>
      <trkpt lat="43.66088" lon="2.77105">
        <ele>804.76</ele>
        <time>2011-10-23T13:13:22Z</time>
      </trkpt>
      <trkpt lat="43.66087" lon="2.77107">
        <ele>805.24</ele>
        <time>2011-10-23T13:13:24Z</time>
      </trkpt>
      <trkpt lat="43.66078" lon="2.77119">
        <ele>809.09</ele>
        <time>2011-10-23T13:13:38Z</time>
      </trkpt>
      <trkpt lat="43.66068" lon="2.77131">
        <ele>810.05</ele>
        <time>2011-10-23T13:13:52Z</time>
      </trkpt>
      <trkpt lat="43.66058" lon="2.77143">
        <ele>811.01</ele>
        <time>2011-10-23T13:14:06Z</time>
      </trkpt>
      <trkpt lat="43.66053" lon="2.77159">
        <ele>811.49</ele>
        <time>2011-10-23T13:14:19Z</time>
      </trkpt>
      <trkpt lat="43.66052" lon="2.77178">
        <ele>812.93</ele>
        <time>2011-10-23T13:14:34Z</time>
      </trkpt>
      <trkpt lat="43.66052" lon="2.7719">
        <ele>813.41</ele>
        <time>2011-10-23T13:14:43Z</time>
      </trkpt>
      <trkpt lat="43.6605" lon="2.77205">
        <ele>814.85</ele>
        <time>2011-10-23T13:14:57Z</time>
      </trkpt>
      <trkpt lat="43.66043" lon="2.77218">
        <ele>819.18</ele>
        <time>2011-10-23T13:15:10Z</time>
      </trkpt>
      <trkpt lat="43.66034" lon="2.7723">
        <ele>822.55</ele>
        <time>2011-10-23T13:15:24Z</time>
      </trkpt>
      <trkpt lat="43.66025" lon="2.77241">
        <ele>829.27</ele>
        <time>2011-10-23T13:15:38Z</time>
      </trkpt>
      <trkpt lat="43.66023" lon="2.77245">
        <ele>831.2</ele>
        <time>2011-10-23T13:15:42Z</time>
      </trkpt>
      <trkpt lat="43.66015" lon="2.7726">
        <ele>834.56</ele>
        <time>2011-10-23T13:15:57Z</time>
      </trkpt>
      <trkpt lat="43.66004" lon="2.7727">
        <ele>838.41</ele>
        <time>2011-10-23T13:16:12Z</time>
      </trkpt>
      <trkpt lat="43.65995" lon="2.77279">
        <ele>840.33</ele>
        <time>2011-10-23T13:16:26Z</time>
      </trkpt>
      <trkpt lat="43.65991" lon="2.77281">
        <ele>840.33</ele>
        <time>2011-10-23T13:16:32Z</time>
      </trkpt>
      <trkpt lat="43.65985" lon="2.77284">
        <ele>840.33</ele>
        <time>2011-10-23T13:16:38Z</time>
      </trkpt>
      <trkpt lat="43.65978" lon="2.7729">
        <ele>842.25</ele>
        <time>2011-10-23T13:16:51Z</time>
      </trkpt>
      <trkpt lat="43.65976" lon="2.77292">
        <ele>843.69</ele>
        <time>2011-10-23T13:17:07Z</time>
      </trkpt>
      <trkpt lat="43.65972" lon="2.77287">
        <ele>844.18</ele>
        <time>2011-10-23T13:17:26Z</time>
      </trkpt>
      <trkpt lat="43.65972" lon="2.77288">
        <ele>844.18</ele>
        <time>2011-10-23T13:17:53Z</time>
      </trkpt>
      <trkpt lat="43.65972" lon="2.7729">
        <ele>845.14</ele>
        <time>2011-10-23T13:18:48Z</time>
      </trkpt>
      <trkpt lat="43.65972" lon="2.77291">
        <ele>845.62</ele>
        <time>2011-10-23T13:19:54Z</time>
      </trkpt>
      <trkpt lat="43.6597" lon="2.77293">
        <ele>846.1</ele>
        <time>2011-10-23T13:20:57Z</time>
      </trkpt>
      <trkpt lat="43.65966" lon="2.77294">
        <ele>845.14</ele>
        <time>2011-10-23T13:21:25Z</time>
      </trkpt>
      <trkpt lat="43.65955" lon="2.77294">
        <ele>843.21</ele>
        <time>2011-10-23T13:21:35Z</time>
      </trkpt>
      <trkpt lat="43.65948" lon="2.77296">
        <ele>841.77</ele>
        <time>2011-10-23T13:21:49Z</time>
      </trkpt>
      <trkpt lat="43.65937" lon="2.773">
        <ele>839.37</ele>
        <time>2011-10-23T13:22:16Z</time>
      </trkpt>
      <trkpt lat="43.65919" lon="2.77303">
        <ele>836.48</ele>
        <time>2011-10-23T13:22:33Z</time>
      </trkpt>
      <trkpt lat="43.65901" lon="2.77298">
        <ele>836</ele>
        <time>2011-10-23T13:22:48Z</time>
      </trkpt>
      <trkpt lat="43.65881" lon="2.77296">
        <ele>835.52</ele>
        <time>2011-10-23T13:23:04Z</time>
      </trkpt>
      <trkpt lat="43.65876" lon="2.77295">
        <ele>835.52</ele>
        <time>2011-10-23T13:23:09Z</time>
      </trkpt>
      <trkpt lat="43.65857" lon="2.77289">
        <ele>836</ele>
        <time>2011-10-23T13:23:23Z</time>
      </trkpt>
      <trkpt lat="43.65839" lon="2.77276">
        <ele>837.93</ele>
        <time>2011-10-23T13:23:37Z</time>
      </trkpt>
      <trkpt lat="43.65824" lon="2.77263">
        <ele>837.93</ele>
        <time>2011-10-23T13:23:52Z</time>
      </trkpt>
      <trkpt lat="43.65813" lon="2.77257">
        <ele>836</ele>
        <time>2011-10-23T13:24:05Z</time>
      </trkpt>
      <trkpt lat="43.65803" lon="2.77248">
        <ele>832.16</ele>
        <time>2011-10-23T13:24:18Z</time>
      </trkpt>
      <trkpt lat="43.65794" lon="2.77234">
        <ele>828.79</ele>
        <time>2011-10-23T13:24:30Z</time>
      </trkpt>
      <trkpt lat="43.65777" lon="2.77226">
        <ele>826.39</ele>
        <time>2011-10-23T13:24:44Z</time>
      </trkpt>
      <trkpt lat="43.65765" lon="2.77223">
        <ele>824.95</ele>
        <time>2011-10-23T13:24:57Z</time>
      </trkpt>
      <trkpt lat="43.65754" lon="2.77212">
        <ele>823.03</ele>
        <time>2011-10-23T13:25:10Z</time>
      </trkpt>
      <trkpt lat="43.65739" lon="2.77199">
        <ele>819.66</ele>
        <time>2011-10-23T13:25:28Z</time>
      </trkpt>
      <trkpt lat="43.65729" lon="2.77188">
        <ele>818.22</ele>
        <time>2011-10-23T13:25:41Z</time>
      </trkpt>
      <trkpt lat="43.65714" lon="2.77175">
        <ele>821.58</ele>
        <time>2011-10-23T13:25:55Z</time>
      </trkpt>
      <trkpt lat="43.65698" lon="2.7716">
        <ele>825.91</ele>
        <time>2011-10-23T13:26:09Z</time>
      </trkpt>
      <trkpt lat="43.65688" lon="2.77147">
        <ele>829.27</ele>
        <time>2011-10-23T13:26:23Z</time>
      </trkpt>
      <trkpt lat="43.65673" lon="2.7713">
        <ele>835.04</ele>
        <time>2011-10-23T13:26:38Z</time>
      </trkpt>
      <trkpt lat="43.65659" lon="2.77124">
        <ele>832.16</ele>
        <time>2011-10-23T13:26:53Z</time>
      </trkpt>
      <trkpt lat="43.65646" lon="2.77113">
        <ele>828.79</ele>
        <time>2011-10-23T13:27:08Z</time>
      </trkpt>
      <trkpt lat="43.6563" lon="2.77101">
        <ele>826.87</ele>
        <time>2011-10-23T13:27:24Z</time>
      </trkpt>
      <trkpt lat="43.65617" lon="2.7709">
        <ele>826.87</ele>
        <time>2011-10-23T13:27:36Z</time>
      </trkpt>
      <trkpt lat="43.656" lon="2.77088">
        <ele>825.91</ele>
        <time>2011-10-23T13:27:50Z</time>
      </trkpt>
      <trkpt lat="43.65582" lon="2.77091">
        <ele>825.43</ele>
        <time>2011-10-23T13:28:06Z</time>
      </trkpt>
      <trkpt lat="43.65568" lon="2.7709">
        <ele>827.35</ele>
        <time>2011-10-23T13:28:19Z</time>
      </trkpt>
      <trkpt lat="43.65564" lon="2.77089">
        <ele>827.83</ele>
        <time>2011-10-23T13:28:23Z</time>
      </trkpt>
      <trkpt lat="43.6555" lon="2.77086">
        <ele>827.35</ele>
        <time>2011-10-23T13:28:38Z</time>
      </trkpt>
      <trkpt lat="43.65549" lon="2.77085">
        <ele>826.87</ele>
        <time>2011-10-23T13:29:14Z</time>
      </trkpt>
      <trkpt lat="43.65539" lon="2.77081">
        <ele>824.95</ele>
        <time>2011-10-23T13:29:23Z</time>
      </trkpt>
      <trkpt lat="43.65535" lon="2.7708">
        <ele>826.39</ele>
        <time>2011-10-23T13:29:27Z</time>
      </trkpt>
      <trkpt lat="43.65516" lon="2.77075">
        <ele>826.39</ele>
        <time>2011-10-23T13:29:42Z</time>
      </trkpt>
      <trkpt lat="43.65501" lon="2.7707">
        <ele>821.1</ele>
        <time>2011-10-23T13:29:55Z</time>
      </trkpt>
      <trkpt lat="43.65481" lon="2.77061">
        <ele>819.66</ele>
        <time>2011-10-23T13:30:11Z</time>
      </trkpt>
      <trkpt lat="43.65467" lon="2.77049">
        <ele>818.7</ele>
        <time>2011-10-23T13:30:23Z</time>
      </trkpt>
      <trkpt lat="43.65455" lon="2.77033">
        <ele>818.22</ele>
        <time>2011-10-23T13:30:36Z</time>
      </trkpt>
      <trkpt lat="43.6544" lon="2.77015">
        <ele>818.22</ele>
        <time>2011-10-23T13:30:51Z</time>
      </trkpt>
      <trkpt lat="43.65425" lon="2.77005">
        <ele>818.22</ele>
        <time>2011-10-23T13:31:05Z</time>
      </trkpt>
      <trkpt lat="43.65409" lon="2.76993">
        <ele>818.7</ele>
        <time>2011-10-23T13:31:20Z</time>
      </trkpt>
      <trkpt lat="43.65394" lon="2.76978">
        <ele>823.03</ele>
        <time>2011-10-23T13:31:33Z</time>
      </trkpt>
      <trkpt lat="43.65381" lon="2.7697">
        <ele>823.99</ele>
        <time>2011-10-23T13:31:44Z</time>
      </trkpt>
      <trkpt lat="43.65373" lon="2.76963">
        <ele>824.47</ele>
        <time>2011-10-23T13:31:50Z</time>
      </trkpt>
      <trkpt lat="43.65359" lon="2.76948">
        <ele>828.79</ele>
        <time>2011-10-23T13:32:06Z</time>
      </trkpt>
      <trkpt lat="43.65345" lon="2.76937">
        <ele>828.31</ele>
        <time>2011-10-23T13:32:20Z</time>
      </trkpt>
      <trkpt lat="43.65343" lon="2.76936">
        <ele>827.83</ele>
        <time>2011-10-23T13:32:22Z</time>
      </trkpt>
      <trkpt lat="43.65338" lon="2.76934">
        <ele>826.39</ele>
        <time>2011-10-23T13:32:27Z</time>
      </trkpt>
      <trkpt lat="43.65324" lon="2.76928">
        <ele>825.91</ele>
        <time>2011-10-23T13:32:39Z</time>
      </trkpt>
      <trkpt lat="43.65308" lon="2.76923">
        <ele>823.99</ele>
        <time>2011-10-23T13:32:55Z</time>
      </trkpt>
      <trkpt lat="43.6529" lon="2.76919">
        <ele>822.06</ele>
        <time>2011-10-23T13:33:11Z</time>
      </trkpt>
      <trkpt lat="43.65286" lon="2.76918">
        <ele>821.1</ele>
        <time>2011-10-23T13:33:18Z</time>
      </trkpt>
      <trkpt lat="43.6527" lon="2.76911">
        <ele>817.74</ele>
        <time>2011-10-23T13:33:33Z</time>
      </trkpt>
      <trkpt lat="43.65257" lon="2.76906">
        <ele>814.85</ele>
        <time>2011-10-23T13:33:46Z</time>
      </trkpt>
      <trkpt lat="43.6524" lon="2.76894">
        <ele>816.78</ele>
        <time>2011-10-23T13:34:01Z</time>
      </trkpt>
      <trkpt lat="43.65226" lon="2.76897">
        <ele>817.26</ele>
        <time>2011-10-23T13:34:14Z</time>
      </trkpt>
      <trkpt lat="43.65211" lon="2.769">
        <ele>820.62</ele>
        <time>2011-10-23T13:34:29Z</time>
      </trkpt>
      <trkpt lat="43.65195" lon="2.76902">
        <ele>821.1</ele>
        <time>2011-10-23T13:34:43Z</time>
      </trkpt>
      <trkpt lat="43.65194" lon="2.76902">
        <ele>821.1</ele>
        <time>2011-10-23T13:34:44Z</time>
      </trkpt>
      <trkpt lat="43.65179" lon="2.76915">
        <ele>822.55</ele>
        <time>2011-10-23T13:34:59Z</time>
      </trkpt>
      <trkpt lat="43.65177" lon="2.76921">
        <ele>821.58</ele>
        <time>2011-10-23T13:35:03Z</time>
      </trkpt>
      <trkpt lat="43.65168" lon="2.76937">
        <ele>822.55</ele>
        <time>2011-10-23T13:35:17Z</time>
      </trkpt>
      <trkpt lat="43.65161" lon="2.76957">
        <ele>823.03</ele>
        <time>2011-10-23T13:35:30Z</time>
      </trkpt>
      <trkpt lat="43.65155" lon="2.76978">
        <ele>821.58</ele>
        <time>2011-10-23T13:35:44Z</time>
      </trkpt>
      <trkpt lat="43.65152" lon="2.76998">
        <ele>820.14</ele>
        <time>2011-10-23T13:35:58Z</time>
      </trkpt>
      <trkpt lat="43.6515" lon="2.77011">
        <ele>819.66</ele>
        <time>2011-10-23T13:36:06Z</time>
      </trkpt>
      <trkpt lat="43.65143" lon="2.77034">
        <ele>820.14</ele>
        <time>2011-10-23T13:36:22Z</time>
      </trkpt>
      <trkpt lat="43.65143" lon="2.77036">
        <ele>820.14</ele>
        <time>2011-10-23T13:36:23Z</time>
      </trkpt>
      <trkpt lat="43.65145" lon="2.77048">
        <ele>820.62</ele>
        <time>2011-10-23T13:36:31Z</time>
      </trkpt>
      <trkpt lat="43.65146" lon="2.77057">
        <ele>821.58</ele>
        <time>2011-10-23T13:36:37Z</time>
      </trkpt>
      <trkpt lat="43.65144" lon="2.77076">
        <ele>822.55</ele>
        <time>2011-10-23T13:36:52Z</time>
      </trkpt>
      <trkpt lat="43.65143" lon="2.77083">
        <ele>822.55</ele>
        <time>2011-10-23T13:36:59Z</time>
      </trkpt>
      <trkpt lat="43.65141" lon="2.77088">
        <ele>822.55</ele>
        <time>2011-10-23T13:37:03Z</time>
      </trkpt>
      <trkpt lat="43.6514" lon="2.77096">
        <ele>823.03</ele>
        <time>2011-10-23T13:37:08Z</time>
      </trkpt>
      <trkpt lat="43.65139" lon="2.77099">
        <ele>822.55</ele>
        <time>2011-10-23T13:37:10Z</time>
      </trkpt>
      <trkpt lat="43.65133" lon="2.7712">
        <ele>823.03</ele>
        <time>2011-10-23T13:37:24Z</time>
      </trkpt>
      <trkpt lat="43.65133" lon="2.77133">
        <ele>820.62</ele>
        <time>2011-10-23T13:37:36Z</time>
      </trkpt>
      <trkpt lat="43.65131" lon="2.77147">
        <ele>818.7</ele>
        <time>2011-10-23T13:37:49Z</time>
      </trkpt>
      <trkpt lat="43.65132" lon="2.77161">
        <ele>817.74</ele>
        <time>2011-10-23T13:38:02Z</time>
      </trkpt>
      <trkpt lat="43.65132" lon="2.77166">
        <ele>817.26</ele>
        <time>2011-10-23T13:38:06Z</time>
      </trkpt>
      <trkpt lat="43.65132" lon="2.77182">
        <ele>816.3</ele>
        <time>2011-10-23T13:38:19Z</time>
      </trkpt>
      <trkpt lat="43.65132" lon="2.77193">
        <ele>816.78</ele>
        <time>2011-10-23T13:38:27Z</time>
      </trkpt>
      <trkpt lat="43.65132" lon="2.77213">
        <ele>818.22</ele>
        <time>2011-10-23T13:38:39Z</time>
      </trkpt>
      <trkpt lat="43.65131" lon="2.7722">
        <ele>818.22</ele>
        <time>2011-10-23T13:38:45Z</time>
      </trkpt>
      <trkpt lat="43.65131" lon="2.77229">
        <ele>817.74</ele>
        <time>2011-10-23T13:38:51Z</time>
      </trkpt>
      <trkpt lat="43.6513" lon="2.7725">
        <ele>817.74</ele>
        <time>2011-10-23T13:39:04Z</time>
      </trkpt>
      <trkpt lat="43.65129" lon="2.77271">
        <ele>818.22</ele>
        <time>2011-10-23T13:39:18Z</time>
      </trkpt>
      <trkpt lat="43.65129" lon="2.77279">
        <ele>817.74</ele>
        <time>2011-10-23T13:39:23Z</time>
      </trkpt>
      <trkpt lat="43.65127" lon="2.77302">
        <ele>817.26</ele>
        <time>2011-10-23T13:39:37Z</time>
      </trkpt>
      <trkpt lat="43.65124" lon="2.77327">
        <ele>816.78</ele>
        <time>2011-10-23T13:39:53Z</time>
      </trkpt>
      <trkpt lat="43.65124" lon="2.7733">
        <ele>816.78</ele>
        <time>2011-10-23T13:40:05Z</time>
      </trkpt>
      <trkpt lat="43.65114" lon="2.77342">
        <ele>817.26</ele>
        <time>2011-10-23T13:40:15Z</time>
      </trkpt>
      <trkpt lat="43.65107" lon="2.77351">
        <ele>816.78</ele>
        <time>2011-10-23T13:40:22Z</time>
      </trkpt>
      <trkpt lat="43.65092" lon="2.77366">
        <ele>818.22</ele>
        <time>2011-10-23T13:40:37Z</time>
      </trkpt>
      <trkpt lat="43.65088" lon="2.77368">
        <ele>818.22</ele>
        <time>2011-10-23T13:40:40Z</time>
      </trkpt>
      <trkpt lat="43.65072" lon="2.77374">
        <ele>818.22</ele>
        <time>2011-10-23T13:40:54Z</time>
      </trkpt>
      <trkpt lat="43.65058" lon="2.77381">
        <ele>820.62</ele>
        <time>2011-10-23T13:41:07Z</time>
      </trkpt>
      <trkpt lat="43.65046" lon="2.77392">
        <ele>821.1</ele>
        <time>2011-10-23T13:41:19Z</time>
      </trkpt>
      <trkpt lat="43.65034" lon="2.77407">
        <ele>819.18</ele>
        <time>2011-10-23T13:41:32Z</time>
      </trkpt>
      <trkpt lat="43.65026" lon="2.7743">
        <ele>818.7</ele>
        <time>2011-10-23T13:41:47Z</time>
      </trkpt>
      <trkpt lat="43.65023" lon="2.77456">
        <ele>819.18</ele>
        <time>2011-10-23T13:42:02Z</time>
      </trkpt>
      <trkpt lat="43.65019" lon="2.77482">
        <ele>818.22</ele>
        <time>2011-10-23T13:42:18Z</time>
      </trkpt>
      <trkpt lat="43.65017" lon="2.77486">
        <ele>818.22</ele>
        <time>2011-10-23T13:42:21Z</time>
      </trkpt>
      <trkpt lat="43.65015" lon="2.7749">
        <ele>817.74</ele>
        <time>2011-10-23T13:42:37Z</time>
      </trkpt>
      <trkpt lat="43.65016" lon="2.77489">
        <ele>817.74</ele>
        <time>2011-10-23T13:42:53Z</time>
      </trkpt>
      <trkpt lat="43.65006" lon="2.77505">
        <ele>816.78</ele>
        <time>2011-10-23T13:43:47Z</time>
      </trkpt>
      <trkpt lat="43.65006" lon="2.77506">
        <ele>816.78</ele>
        <time>2011-10-23T13:43:48Z</time>
      </trkpt>
      <trkpt lat="43.65002" lon="2.77513">
        <ele>815.82</ele>
        <time>2011-10-23T13:43:54Z</time>
      </trkpt>
      <trkpt lat="43.64991" lon="2.77534">
        <ele>814.37</ele>
        <time>2011-10-23T13:44:09Z</time>
      </trkpt>
      <trkpt lat="43.64979" lon="2.77558">
        <ele>811.49</ele>
        <time>2011-10-23T13:44:25Z</time>
      </trkpt>
      <trkpt lat="43.64968" lon="2.77578">
        <ele>811.01</ele>
        <time>2011-10-23T13:44:40Z</time>
      </trkpt>
      <trkpt lat="43.64957" lon="2.77597">
        <ele>807.16</ele>
        <time>2011-10-23T13:44:54Z</time>
      </trkpt>
      <trkpt lat="43.64948" lon="2.77617">
        <ele>801.88</ele>
        <time>2011-10-23T13:45:07Z</time>
      </trkpt>
      <trkpt lat="43.64946" lon="2.77624">
        <ele>800.92</ele>
        <time>2011-10-23T13:45:11Z</time>
      </trkpt>
      <trkpt lat="43.64938" lon="2.77648">
        <ele>797.55</ele>
        <time>2011-10-23T13:45:27Z</time>
      </trkpt>
      <trkpt lat="43.64928" lon="2.77673">
        <ele>795.63</ele>
        <time>2011-10-23T13:45:42Z</time>
      </trkpt>
      <trkpt lat="43.64926" lon="2.77682">
        <ele>794.19</ele>
        <time>2011-10-23T13:45:48Z</time>
      </trkpt>
      <trkpt lat="43.64927" lon="2.77693">
        <ele>792.74</ele>
        <time>2011-10-23T13:45:55Z</time>
      </trkpt>
      <trkpt lat="43.64933" lon="2.77718">
        <ele>788.9</ele>
        <time>2011-10-23T13:46:10Z</time>
      </trkpt>
      <trkpt lat="43.64935" lon="2.77725">
        <ele>787.46</ele>
        <time>2011-10-23T13:46:14Z</time>
      </trkpt>
      <trkpt lat="43.64939" lon="2.77743">
        <ele>788.42</ele>
        <time>2011-10-23T13:46:29Z</time>
      </trkpt>
      <trkpt lat="43.64937" lon="2.77747">
        <ele>788.42</ele>
        <time>2011-10-23T13:46:43Z</time>
      </trkpt>
      <trkpt lat="43.64935" lon="2.77746">
        <ele>788.9</ele>
        <time>2011-10-23T13:46:46Z</time>
      </trkpt>
      <trkpt lat="43.64918" lon="2.77737">
        <ele>786.02</ele>
        <time>2011-10-23T13:47:02Z</time>
      </trkpt>
      <trkpt lat="43.64909" lon="2.77732">
        <ele>782.17</ele>
        <time>2011-10-23T13:47:13Z</time>
      </trkpt>
      <trkpt lat="43.64901" lon="2.77728">
        <ele>780.25</ele>
        <time>2011-10-23T13:47:26Z</time>
      </trkpt>
      <trkpt lat="43.64901" lon="2.77728">
        <ele>780.25</ele>
        <time>2011-10-23T13:47:29Z</time>
      </trkpt>
      <trkpt lat="43.64901" lon="2.7772">
        <ele>781.21</ele>
        <time>2011-10-23T13:47:48Z</time>
      </trkpt>
      <trkpt lat="43.64898" lon="2.77718">
        <ele>782.65</ele>
        <time>2011-10-23T13:48:10Z</time>
      </trkpt>
      <trkpt lat="43.64899" lon="2.77719">
        <ele>782.65</ele>
        <time>2011-10-23T13:48:40Z</time>
      </trkpt>
      <trkpt lat="43.64901" lon="2.77725">
        <ele>782.65</ele>
        <time>2011-10-23T13:49:31Z</time>
      </trkpt>
      <trkpt lat="43.64899" lon="2.77741">
        <ele>784.57</ele>
        <time>2011-10-23T13:49:43Z</time>
      </trkpt>
      <trkpt lat="43.64899" lon="2.7776">
        <ele>783.61</ele>
        <time>2011-10-23T13:49:59Z</time>
      </trkpt>
      <trkpt lat="43.64897" lon="2.77765">
        <ele>782.65</ele>
        <time>2011-10-23T13:50:15Z</time>
      </trkpt>
      <trkpt lat="43.64897" lon="2.77765">
        <ele>782.65</ele>
        <time>2011-10-23T13:50:49Z</time>
      </trkpt>
      <trkpt lat="43.64897" lon="2.77766">
        <ele>782.17</ele>
        <time>2011-10-23T13:51:29Z</time>
      </trkpt>
      <trkpt lat="43.64899" lon="2.77772">
        <ele>780.73</ele>
        <time>2011-10-23T13:52:04Z</time>
      </trkpt>
      <trkpt lat="43.64901" lon="2.77773">
        <ele>780.25</ele>
        <time>2011-10-23T13:52:34Z</time>
      </trkpt>
      <trkpt lat="43.64902" lon="2.77774">
        <ele>778.81</ele>
        <time>2011-10-23T13:53:25Z</time>
      </trkpt>
      <trkpt lat="43.64902" lon="2.77775">
        <ele>778.81</ele>
        <time>2011-10-23T13:53:49Z</time>
      </trkpt>
      <trkpt lat="43.64902" lon="2.77775">
        <ele>778.81</ele>
        <time>2011-10-23T13:53:54Z</time>
      </trkpt>
    </trkseg>
  </trk>
</gpx>